<?xml version="1.0" encoding="UTF-8" standalone="no" ?>
<gpx xmlns="http://www.topografix.com/GPX/1/1" xmlns:xsi="http://www.w3.org/2001/XMLSchema-instance" xsi:schemaLocation="http://www.topografix.com/GPX/1/1 http://www.topografix.com/GPX/1/1/gpx.xsd" version="1.1" creator="VisuGPX - https://www.visugpx.com">
  <metadata>
    <name>20260707 La Breteque</name>
    <desc><![CDATA[Circuit en forêt verte idéal par temps caniculaire au départ du parking du grand canton.]]></desc>
  </metadata>
  <trk>
    <name><![CDATA[SityTrail - 20260707 La Breteque]]></name>
    <trkseg>
      <trkpt lat="49.49018" lon="1.10364">
        <ele>171</ele>
        <time>2026-07-07T11:44:09.408Z</time>
      </trkpt>
      <trkpt lat="49.49015" lon="1.10375">
        <ele>168</ele>
        <time>2026-07-07T11:49:35.406Z</time>
      </trkpt>
      <trkpt lat="49.49015" lon="1.10375">
        <ele>168</ele>
        <time>2026-07-07T11:49:39.405Z</time>
      </trkpt>
      <trkpt lat="49.49014" lon="1.10375">
        <ele>167</ele>
        <time>2026-07-07T11:49:44.410Z</time>
      </trkpt>
      <trkpt lat="49.49013" lon="1.10375">
        <ele>167</ele>
        <time>2026-07-07T11:49:49.407Z</time>
      </trkpt>
      <trkpt lat="49.49013" lon="1.10375">
        <ele>167</ele>
        <time>2026-07-07T11:49:53.406Z</time>
      </trkpt>
      <trkpt lat="49.49017" lon="1.1038">
        <ele>168</ele>
        <time>2026-07-07T11:56:17.404Z</time>
      </trkpt>
      <trkpt lat="49.49018" lon="1.10381">
        <ele>168</ele>
        <time>2026-07-07T11:56:22.404Z</time>
      </trkpt>
      <trkpt lat="49.49019" lon="1.10381">
        <ele>168</ele>
        <time>2026-07-07T11:56:27.410Z</time>
      </trkpt>
      <trkpt lat="49.4902" lon="1.10381">
        <ele>168</ele>
        <time>2026-07-07T11:56:32.406Z</time>
      </trkpt>
      <trkpt lat="49.49021" lon="1.10381">
        <ele>168</ele>
        <time>2026-07-07T11:56:36.409Z</time>
      </trkpt>
      <trkpt lat="49.49022" lon="1.10382">
        <ele>168</ele>
        <time>2026-07-07T11:56:41.252Z</time>
      </trkpt>
      <trkpt lat="49.49021" lon="1.10374">
        <ele>171</ele>
        <time>2026-07-07T11:56:45.408Z</time>
      </trkpt>
      <trkpt lat="49.49023" lon="1.10368">
        <ele>171</ele>
        <time>2026-07-07T11:56:50.424Z</time>
      </trkpt>
      <trkpt lat="49.49023" lon="1.10367">
        <ele>171</ele>
        <time>2026-07-07T11:56:54.411Z</time>
      </trkpt>
      <trkpt lat="49.49018" lon="1.10369">
        <ele>171</ele>
        <time>2026-07-07T12:00:39.403Z</time>
      </trkpt>
      <trkpt lat="49.49021" lon="1.10375">
        <ele>168</ele>
        <time>2026-07-07T12:00:43.858Z</time>
      </trkpt>
      <trkpt lat="49.49023" lon="1.10384">
        <ele>168</ele>
        <time>2026-07-07T12:00:48.404Z</time>
      </trkpt>
      <trkpt lat="49.49024" lon="1.10392">
        <ele>168</ele>
        <time>2026-07-07T12:00:52.660Z</time>
      </trkpt>
      <trkpt lat="49.49024" lon="1.104">
        <ele>168</ele>
        <time>2026-07-07T12:00:56.731Z</time>
      </trkpt>
      <trkpt lat="49.49026" lon="1.10406">
        <ele>166</ele>
        <time>2026-07-07T12:01:00.810Z</time>
      </trkpt>
      <trkpt lat="49.49028" lon="1.10414">
        <ele>166</ele>
        <time>2026-07-07T12:01:04.892Z</time>
      </trkpt>
      <trkpt lat="49.49029" lon="1.1042">
        <ele>166</ele>
        <time>2026-07-07T12:01:08.931Z</time>
      </trkpt>
      <trkpt lat="49.49031" lon="1.10427">
        <ele>166</ele>
        <time>2026-07-07T12:01:13.036Z</time>
      </trkpt>
      <trkpt lat="49.49034" lon="1.10433">
        <ele>167</ele>
        <time>2026-07-07T12:01:17.137Z</time>
      </trkpt>
      <trkpt lat="49.49036" lon="1.10439">
        <ele>167</ele>
        <time>2026-07-07T12:01:21.376Z</time>
      </trkpt>
      <trkpt lat="49.49037" lon="1.10446">
        <ele>167</ele>
        <time>2026-07-07T12:01:25.593Z</time>
      </trkpt>
      <trkpt lat="49.49036" lon="1.10452">
        <ele>167</ele>
        <time>2026-07-07T12:01:29.594Z</time>
      </trkpt>
      <trkpt lat="49.49035" lon="1.10461">
        <ele>168</ele>
        <time>2026-07-07T12:01:33.835Z</time>
      </trkpt>
      <trkpt lat="49.49035" lon="1.10469">
        <ele>168</ele>
        <time>2026-07-07T12:01:37.854Z</time>
      </trkpt>
      <trkpt lat="49.49033" lon="1.10477">
        <ele>168</ele>
        <time>2026-07-07T12:01:42.398Z</time>
      </trkpt>
      <trkpt lat="49.49031" lon="1.10484">
        <ele>168</ele>
        <time>2026-07-07T12:01:46.535Z</time>
      </trkpt>
      <trkpt lat="49.4903" lon="1.10492">
        <ele>170</ele>
        <time>2026-07-07T12:01:50.924Z</time>
      </trkpt>
      <trkpt lat="49.49029" lon="1.10496">
        <ele>170</ele>
        <time>2026-07-07T12:01:55.196Z</time>
      </trkpt>
      <trkpt lat="49.49029" lon="1.10496">
        <ele>170</ele>
        <time>2026-07-07T12:01:59.321Z</time>
      </trkpt>
      <trkpt lat="49.4903" lon="1.10504">
        <ele>170</ele>
        <time>2026-07-07T12:02:03.399Z</time>
      </trkpt>
      <trkpt lat="49.49032" lon="1.1051">
        <ele>170</ele>
        <time>2026-07-07T12:02:07.405Z</time>
      </trkpt>
      <trkpt lat="49.49033" lon="1.10516">
        <ele>171</ele>
        <time>2026-07-07T12:02:11.941Z</time>
      </trkpt>
      <trkpt lat="49.49034" lon="1.10522">
        <ele>171</ele>
        <time>2026-07-07T12:02:16.092Z</time>
      </trkpt>
      <trkpt lat="49.49036" lon="1.10527">
        <ele>171</ele>
        <time>2026-07-07T12:02:20.402Z</time>
      </trkpt>
      <trkpt lat="49.49036" lon="1.10535">
        <ele>171</ele>
        <time>2026-07-07T12:02:24.405Z</time>
      </trkpt>
      <trkpt lat="49.49033" lon="1.10544">
        <ele>171</ele>
        <time>2026-07-07T12:02:28.716Z</time>
      </trkpt>
      <trkpt lat="49.49027" lon="1.10552">
        <ele>171</ele>
        <time>2026-07-07T12:02:33.127Z</time>
      </trkpt>
      <trkpt lat="49.4902" lon="1.10558">
        <ele>171</ele>
        <time>2026-07-07T12:02:37.366Z</time>
      </trkpt>
      <trkpt lat="49.49013" lon="1.10558">
        <ele>175</ele>
        <time>2026-07-07T12:02:41.407Z</time>
      </trkpt>
      <trkpt lat="49.49007" lon="1.10557">
        <ele>175</ele>
        <time>2026-07-07T12:02:45.530Z</time>
      </trkpt>
      <trkpt lat="49.49002" lon="1.1056">
        <ele>175</ele>
        <time>2026-07-07T12:02:49.815Z</time>
      </trkpt>
      <trkpt lat="49.48999" lon="1.10567">
        <ele>175</ele>
        <time>2026-07-07T12:02:54.009Z</time>
      </trkpt>
      <trkpt lat="49.48996" lon="1.10574">
        <ele>174</ele>
        <time>2026-07-07T12:02:58.352Z</time>
      </trkpt>
      <trkpt lat="49.48995" lon="1.10581">
        <ele>174</ele>
        <time>2026-07-07T12:03:02.555Z</time>
      </trkpt>
      <trkpt lat="49.48994" lon="1.10589">
        <ele>174</ele>
        <time>2026-07-07T12:03:06.803Z</time>
      </trkpt>
      <trkpt lat="49.48993" lon="1.10597">
        <ele>172</ele>
        <time>2026-07-07T12:03:11.056Z</time>
      </trkpt>
      <trkpt lat="49.48993" lon="1.10605">
        <ele>172</ele>
        <time>2026-07-07T12:03:15.400Z</time>
      </trkpt>
      <trkpt lat="49.48991" lon="1.10613">
        <ele>172</ele>
        <time>2026-07-07T12:03:19.554Z</time>
      </trkpt>
      <trkpt lat="49.48991" lon="1.1062">
        <ele>172</ele>
        <time>2026-07-07T12:03:23.696Z</time>
      </trkpt>
      <trkpt lat="49.48991" lon="1.10628">
        <ele>169</ele>
        <time>2026-07-07T12:03:28.388Z</time>
      </trkpt>
      <trkpt lat="49.48991" lon="1.10635">
        <ele>169</ele>
        <time>2026-07-07T12:03:32.410Z</time>
      </trkpt>
      <trkpt lat="49.48989" lon="1.10642">
        <ele>169</ele>
        <time>2026-07-07T12:03:36.613Z</time>
      </trkpt>
      <trkpt lat="49.48987" lon="1.1065">
        <ele>169</ele>
        <time>2026-07-07T12:03:40.673Z</time>
      </trkpt>
      <trkpt lat="49.48985" lon="1.10656">
        <ele>172</ele>
        <time>2026-07-07T12:03:44.756Z</time>
      </trkpt>
      <trkpt lat="49.48983" lon="1.10663">
        <ele>172</ele>
        <time>2026-07-07T12:03:48.758Z</time>
      </trkpt>
      <trkpt lat="49.48982" lon="1.10671">
        <ele>172</ele>
        <time>2026-07-07T12:03:53.162Z</time>
      </trkpt>
      <trkpt lat="49.4898" lon="1.10678">
        <ele>172</ele>
        <time>2026-07-07T12:03:57.268Z</time>
      </trkpt>
      <trkpt lat="49.48979" lon="1.10686">
        <ele>172</ele>
        <time>2026-07-07T12:04:01.407Z</time>
      </trkpt>
      <trkpt lat="49.48979" lon="1.10695">
        <ele>172</ele>
        <time>2026-07-07T12:04:05.637Z</time>
      </trkpt>
      <trkpt lat="49.48979" lon="1.10703">
        <ele>172</ele>
        <time>2026-07-07T12:04:09.839Z</time>
      </trkpt>
      <trkpt lat="49.48979" lon="1.1071">
        <ele>172</ele>
        <time>2026-07-07T12:04:14.078Z</time>
      </trkpt>
      <trkpt lat="49.48977" lon="1.10718">
        <ele>172</ele>
        <time>2026-07-07T12:04:18.305Z</time>
      </trkpt>
      <trkpt lat="49.48974" lon="1.10725">
        <ele>172</ele>
        <time>2026-07-07T12:04:22.407Z</time>
      </trkpt>
      <trkpt lat="49.48974" lon="1.10733">
        <ele>172</ele>
        <time>2026-07-07T12:04:26.637Z</time>
      </trkpt>
      <trkpt lat="49.48972" lon="1.1074">
        <ele>171</ele>
        <time>2026-07-07T12:04:30.879Z</time>
      </trkpt>
      <trkpt lat="49.4897" lon="1.10747">
        <ele>171</ele>
        <time>2026-07-07T12:04:35.196Z</time>
      </trkpt>
      <trkpt lat="49.48969" lon="1.10755">
        <ele>171</ele>
        <time>2026-07-07T12:04:39.384Z</time>
      </trkpt>
      <trkpt lat="49.48968" lon="1.10765">
        <ele>168</ele>
        <time>2026-07-07T12:04:44.056Z</time>
      </trkpt>
      <trkpt lat="49.48967" lon="1.10772">
        <ele>168</ele>
        <time>2026-07-07T12:04:48.199Z</time>
      </trkpt>
      <trkpt lat="49.48967" lon="1.10779">
        <ele>168</ele>
        <time>2026-07-07T12:04:52.352Z</time>
      </trkpt>
      <trkpt lat="49.48966" lon="1.10784">
        <ele>168</ele>
        <time>2026-07-07T12:04:56.406Z</time>
      </trkpt>
      <trkpt lat="49.48964" lon="1.10792">
        <ele>165</ele>
        <time>2026-07-07T12:05:00.734Z</time>
      </trkpt>
      <trkpt lat="49.48963" lon="1.10798">
        <ele>165</ele>
        <time>2026-07-07T12:05:05.137Z</time>
      </trkpt>
      <trkpt lat="49.48961" lon="1.10805">
        <ele>165</ele>
        <time>2026-07-07T12:05:09.337Z</time>
      </trkpt>
      <trkpt lat="49.48961" lon="1.10812">
        <ele>165</ele>
        <time>2026-07-07T12:05:13.406Z</time>
      </trkpt>
      <trkpt lat="49.4896" lon="1.1082">
        <ele>164</ele>
        <time>2026-07-07T12:05:17.838Z</time>
      </trkpt>
      <trkpt lat="49.48957" lon="1.10826">
        <ele>171</ele>
        <time>2026-07-07T12:05:22.404Z</time>
      </trkpt>
      <trkpt lat="49.48959" lon="1.10836">
        <ele>164</ele>
        <time>2026-07-07T12:05:26.717Z</time>
      </trkpt>
      <trkpt lat="49.48962" lon="1.10844">
        <ele>164</ele>
        <time>2026-07-07T12:05:31.137Z</time>
      </trkpt>
      <trkpt lat="49.48963" lon="1.10851">
        <ele>164</ele>
        <time>2026-07-07T12:05:35.275Z</time>
      </trkpt>
      <trkpt lat="49.48962" lon="1.10859">
        <ele>164</ele>
        <time>2026-07-07T12:05:39.400Z</time>
      </trkpt>
      <trkpt lat="49.4896" lon="1.10864">
        <ele>164</ele>
        <time>2026-07-07T12:05:43.670Z</time>
      </trkpt>
      <trkpt lat="49.4896" lon="1.10873">
        <ele>164</ele>
        <time>2026-07-07T12:05:47.929Z</time>
      </trkpt>
      <trkpt lat="49.48958" lon="1.10882">
        <ele>174</ele>
        <time>2026-07-07T12:05:52.256Z</time>
      </trkpt>
      <trkpt lat="49.48957" lon="1.1089">
        <ele>174</ele>
        <time>2026-07-07T12:05:56.310Z</time>
      </trkpt>
      <trkpt lat="49.48955" lon="1.10897">
        <ele>174</ele>
        <time>2026-07-07T12:06:00.412Z</time>
      </trkpt>
      <trkpt lat="49.48957" lon="1.10904">
        <ele>179</ele>
        <time>2026-07-07T12:06:05.092Z</time>
      </trkpt>
      <trkpt lat="49.48961" lon="1.10911">
        <ele>171</ele>
        <time>2026-07-07T12:06:09.405Z</time>
      </trkpt>
      <trkpt lat="49.48965" lon="1.10915">
        <ele>171</ele>
        <time>2026-07-07T12:06:13.713Z</time>
      </trkpt>
      <trkpt lat="49.4897" lon="1.10917">
        <ele>171</ele>
        <time>2026-07-07T12:06:17.811Z</time>
      </trkpt>
      <trkpt lat="49.48975" lon="1.10916">
        <ele>171</ele>
        <time>2026-07-07T12:06:22.114Z</time>
      </trkpt>
      <trkpt lat="49.48981" lon="1.10917">
        <ele>171</ele>
        <time>2026-07-07T12:06:26.353Z</time>
      </trkpt>
      <trkpt lat="49.48987" lon="1.1092">
        <ele>165</ele>
        <time>2026-07-07T12:06:30.615Z</time>
      </trkpt>
      <trkpt lat="49.48991" lon="1.10922">
        <ele>165</ele>
        <time>2026-07-07T12:06:34.996Z</time>
      </trkpt>
      <trkpt lat="49.48991" lon="1.10923">
        <ele>165</ele>
        <time>2026-07-07T12:06:39.189Z</time>
      </trkpt>
      <trkpt lat="49.48996" lon="1.10926">
        <ele>165</ele>
        <time>2026-07-07T12:06:43.333Z</time>
      </trkpt>
      <trkpt lat="49.49001" lon="1.10928">
        <ele>165</ele>
        <time>2026-07-07T12:06:47.689Z</time>
      </trkpt>
      <trkpt lat="49.49006" lon="1.10926">
        <ele>165</ele>
        <time>2026-07-07T12:06:51.907Z</time>
      </trkpt>
      <trkpt lat="49.4901" lon="1.10928">
        <ele>165</ele>
        <time>2026-07-07T12:06:56.256Z</time>
      </trkpt>
      <trkpt lat="49.49013" lon="1.10927">
        <ele>165</ele>
        <time>2026-07-07T12:07:00.552Z</time>
      </trkpt>
      <trkpt lat="49.49018" lon="1.10928">
        <ele>163</ele>
        <time>2026-07-07T12:07:04.757Z</time>
      </trkpt>
      <trkpt lat="49.49023" lon="1.1093">
        <ele>163</ele>
        <time>2026-07-07T12:07:08.868Z</time>
      </trkpt>
      <trkpt lat="49.49028" lon="1.10932">
        <ele>167</ele>
        <time>2026-07-07T12:07:13.169Z</time>
      </trkpt>
      <trkpt lat="49.49033" lon="1.10935">
        <ele>167</ele>
        <time>2026-07-07T12:07:17.278Z</time>
      </trkpt>
      <trkpt lat="49.49039" lon="1.10941">
        <ele>167</ele>
        <time>2026-07-07T12:07:21.690Z</time>
      </trkpt>
      <trkpt lat="49.49044" lon="1.10944">
        <ele>163</ele>
        <time>2026-07-07T12:07:25.998Z</time>
      </trkpt>
      <trkpt lat="49.49049" lon="1.10945">
        <ele>163</ele>
        <time>2026-07-07T12:07:30.020Z</time>
      </trkpt>
      <trkpt lat="49.49054" lon="1.10946">
        <ele>163</ele>
        <time>2026-07-07T12:07:34.049Z</time>
      </trkpt>
      <trkpt lat="49.4906" lon="1.10947">
        <ele>163</ele>
        <time>2026-07-07T12:07:38.376Z</time>
      </trkpt>
      <trkpt lat="49.49065" lon="1.10949">
        <ele>163</ele>
        <time>2026-07-07T12:07:42.517Z</time>
      </trkpt>
      <trkpt lat="49.4907" lon="1.10954">
        <ele>161</ele>
        <time>2026-07-07T12:07:46.812Z</time>
      </trkpt>
      <trkpt lat="49.49074" lon="1.10957">
        <ele>161</ele>
        <time>2026-07-07T12:07:50.973Z</time>
      </trkpt>
      <trkpt lat="49.49079" lon="1.10957">
        <ele>161</ele>
        <time>2026-07-07T12:07:55.092Z</time>
      </trkpt>
      <trkpt lat="49.49083" lon="1.10958">
        <ele>161</ele>
        <time>2026-07-07T12:07:59.396Z</time>
      </trkpt>
      <trkpt lat="49.49088" lon="1.1096">
        <ele>161</ele>
        <time>2026-07-07T12:08:04.156Z</time>
      </trkpt>
      <trkpt lat="49.49093" lon="1.1096">
        <ele>161</ele>
        <time>2026-07-07T12:08:08.395Z</time>
      </trkpt>
      <trkpt lat="49.49096" lon="1.10959">
        <ele>161</ele>
        <time>2026-07-07T12:08:12.405Z</time>
      </trkpt>
      <trkpt lat="49.49098" lon="1.10963">
        <ele>158</ele>
        <time>2026-07-07T12:08:16.889Z</time>
      </trkpt>
      <trkpt lat="49.49102" lon="1.10964">
        <ele>158</ele>
        <time>2026-07-07T12:08:21.212Z</time>
      </trkpt>
      <trkpt lat="49.49107" lon="1.10967">
        <ele>158</ele>
        <time>2026-07-07T12:08:25.411Z</time>
      </trkpt>
      <trkpt lat="49.49112" lon="1.10969">
        <ele>158</ele>
        <time>2026-07-07T12:08:29.636Z</time>
      </trkpt>
      <trkpt lat="49.49116" lon="1.1097">
        <ele>158</ele>
        <time>2026-07-07T12:08:33.767Z</time>
      </trkpt>
      <trkpt lat="49.49121" lon="1.10974">
        <ele>158</ele>
        <time>2026-07-07T12:08:37.930Z</time>
      </trkpt>
      <trkpt lat="49.49127" lon="1.10976">
        <ele>157</ele>
        <time>2026-07-07T12:08:42.271Z</time>
      </trkpt>
      <trkpt lat="49.49132" lon="1.10978">
        <ele>157</ele>
        <time>2026-07-07T12:08:46.405Z</time>
      </trkpt>
      <trkpt lat="49.49136" lon="1.1098">
        <ele>157</ele>
        <time>2026-07-07T12:08:50.617Z</time>
      </trkpt>
      <trkpt lat="49.49141" lon="1.10982">
        <ele>157</ele>
        <time>2026-07-07T12:08:54.778Z</time>
      </trkpt>
      <trkpt lat="49.49146" lon="1.10982">
        <ele>157</ele>
        <time>2026-07-07T12:08:58.972Z</time>
      </trkpt>
      <trkpt lat="49.49151" lon="1.10984">
        <ele>157</ele>
        <time>2026-07-07T12:09:03.117Z</time>
      </trkpt>
      <trkpt lat="49.49155" lon="1.10986">
        <ele>159</ele>
        <time>2026-07-07T12:09:07.201Z</time>
      </trkpt>
      <trkpt lat="49.49161" lon="1.10989">
        <ele>160</ele>
        <time>2026-07-07T12:09:11.733Z</time>
      </trkpt>
      <trkpt lat="49.49167" lon="1.1099">
        <ele>160</ele>
        <time>2026-07-07T12:09:15.895Z</time>
      </trkpt>
      <trkpt lat="49.49173" lon="1.1099">
        <ele>160</ele>
        <time>2026-07-07T12:09:20.159Z</time>
      </trkpt>
      <trkpt lat="49.49178" lon="1.10991">
        <ele>160</ele>
        <time>2026-07-07T12:09:24.255Z</time>
      </trkpt>
      <trkpt lat="49.49183" lon="1.10992">
        <ele>161</ele>
        <time>2026-07-07T12:09:28.409Z</time>
      </trkpt>
      <trkpt lat="49.49188" lon="1.10994">
        <ele>161</ele>
        <time>2026-07-07T12:09:32.725Z</time>
      </trkpt>
      <trkpt lat="49.49194" lon="1.10996">
        <ele>161</ele>
        <time>2026-07-07T12:09:37.415Z</time>
      </trkpt>
      <trkpt lat="49.492" lon="1.10998">
        <ele>161</ele>
        <time>2026-07-07T12:09:42.051Z</time>
      </trkpt>
      <trkpt lat="49.49205" lon="1.10999">
        <ele>161</ele>
        <time>2026-07-07T12:09:46.406Z</time>
      </trkpt>
      <trkpt lat="49.49207" lon="1.11003">
        <ele>161</ele>
        <time>2026-07-07T12:09:50.712Z</time>
      </trkpt>
      <trkpt lat="49.49211" lon="1.10997">
        <ele>161</ele>
        <time>2026-07-07T12:09:55.343Z</time>
      </trkpt>
      <trkpt lat="49.49217" lon="1.11002">
        <ele>161</ele>
        <time>2026-07-07T12:09:59.402Z</time>
      </trkpt>
      <trkpt lat="49.49223" lon="1.11005">
        <ele>161</ele>
        <time>2026-07-07T12:10:03.626Z</time>
      </trkpt>
      <trkpt lat="49.49229" lon="1.11007">
        <ele>161</ele>
        <time>2026-07-07T12:10:07.788Z</time>
      </trkpt>
      <trkpt lat="49.49234" lon="1.11009">
        <ele>161</ele>
        <time>2026-07-07T12:10:11.877Z</time>
      </trkpt>
      <trkpt lat="49.49238" lon="1.11008">
        <ele>161</ele>
        <time>2026-07-07T12:10:15.927Z</time>
      </trkpt>
      <trkpt lat="49.49243" lon="1.1101">
        <ele>161</ele>
        <time>2026-07-07T12:10:20.073Z</time>
      </trkpt>
      <trkpt lat="49.49248" lon="1.11014">
        <ele>162</ele>
        <time>2026-07-07T12:10:24.211Z</time>
      </trkpt>
      <trkpt lat="49.49253" lon="1.11017">
        <ele>162</ele>
        <time>2026-07-07T12:10:28.405Z</time>
      </trkpt>
      <trkpt lat="49.49257" lon="1.1102">
        <ele>162</ele>
        <time>2026-07-07T12:10:32.679Z</time>
      </trkpt>
      <trkpt lat="49.4926" lon="1.11022">
        <ele>162</ele>
        <time>2026-07-07T12:10:36.920Z</time>
      </trkpt>
      <trkpt lat="49.49264" lon="1.11024">
        <ele>162</ele>
        <time>2026-07-07T12:10:41.081Z</time>
      </trkpt>
      <trkpt lat="49.49268" lon="1.11026">
        <ele>162</ele>
        <time>2026-07-07T12:10:45.401Z</time>
      </trkpt>
      <trkpt lat="49.49273" lon="1.11027">
        <ele>162</ele>
        <time>2026-07-07T12:10:49.594Z</time>
      </trkpt>
      <trkpt lat="49.49278" lon="1.11029">
        <ele>162</ele>
        <time>2026-07-07T12:10:53.855Z</time>
      </trkpt>
      <trkpt lat="49.49283" lon="1.11032">
        <ele>162</ele>
        <time>2026-07-07T12:10:58.405Z</time>
      </trkpt>
      <trkpt lat="49.49288" lon="1.11033">
        <ele>162</ele>
        <time>2026-07-07T12:11:02.410Z</time>
      </trkpt>
      <trkpt lat="49.49292" lon="1.11034">
        <ele>165</ele>
        <time>2026-07-07T12:11:06.833Z</time>
      </trkpt>
      <trkpt lat="49.49296" lon="1.11037">
        <ele>165</ele>
        <time>2026-07-07T12:11:11.177Z</time>
      </trkpt>
      <trkpt lat="49.49301" lon="1.11035">
        <ele>165</ele>
        <time>2026-07-07T12:12:07.742Z</time>
      </trkpt>
      <trkpt lat="49.49298" lon="1.1104">
        <ele>165</ele>
        <time>2026-07-07T12:12:11.955Z</time>
      </trkpt>
      <trkpt lat="49.49295" lon="1.11047">
        <ele>165</ele>
        <time>2026-07-07T12:12:16.406Z</time>
      </trkpt>
      <trkpt lat="49.49293" lon="1.11054">
        <ele>165</ele>
        <time>2026-07-07T12:12:20.693Z</time>
      </trkpt>
      <trkpt lat="49.49294" lon="1.11062">
        <ele>165</ele>
        <time>2026-07-07T12:12:24.959Z</time>
      </trkpt>
      <trkpt lat="49.49295" lon="1.11069">
        <ele>165</ele>
        <time>2026-07-07T12:12:29.160Z</time>
      </trkpt>
      <trkpt lat="49.49294" lon="1.11078">
        <ele>165</ele>
        <time>2026-07-07T12:12:33.403Z</time>
      </trkpt>
      <trkpt lat="49.49291" lon="1.11084">
        <ele>163</ele>
        <time>2026-07-07T12:12:37.537Z</time>
      </trkpt>
      <trkpt lat="49.49288" lon="1.11092">
        <ele>163</ele>
        <time>2026-07-07T12:12:41.833Z</time>
      </trkpt>
      <trkpt lat="49.49283" lon="1.111">
        <ele>163</ele>
        <time>2026-07-07T12:12:45.979Z</time>
      </trkpt>
      <trkpt lat="49.49281" lon="1.11107">
        <ele>163</ele>
        <time>2026-07-07T12:12:50.141Z</time>
      </trkpt>
      <trkpt lat="49.4928" lon="1.11114">
        <ele>163</ele>
        <time>2026-07-07T12:12:54.331Z</time>
      </trkpt>
      <trkpt lat="49.4928" lon="1.11121">
        <ele>163</ele>
        <time>2026-07-07T12:12:58.660Z</time>
      </trkpt>
      <trkpt lat="49.49279" lon="1.11127">
        <ele>163</ele>
        <time>2026-07-07T12:13:02.776Z</time>
      </trkpt>
      <trkpt lat="49.49279" lon="1.11133">
        <ele>163</ele>
        <time>2026-07-07T12:13:07.131Z</time>
      </trkpt>
      <trkpt lat="49.49278" lon="1.1114">
        <ele>163</ele>
        <time>2026-07-07T12:13:11.285Z</time>
      </trkpt>
      <trkpt lat="49.49275" lon="1.11146">
        <ele>163</ele>
        <time>2026-07-07T12:13:15.404Z</time>
      </trkpt>
      <trkpt lat="49.49274" lon="1.11153">
        <ele>164</ele>
        <time>2026-07-07T12:13:19.844Z</time>
      </trkpt>
      <trkpt lat="49.49273" lon="1.1116">
        <ele>164</ele>
        <time>2026-07-07T12:13:24.197Z</time>
      </trkpt>
      <trkpt lat="49.49271" lon="1.11167">
        <ele>164</ele>
        <time>2026-07-07T12:13:28.403Z</time>
      </trkpt>
      <trkpt lat="49.4927" lon="1.11174">
        <ele>164</ele>
        <time>2026-07-07T12:13:32.699Z</time>
      </trkpt>
      <trkpt lat="49.49268" lon="1.11181">
        <ele>165</ele>
        <time>2026-07-07T12:13:36.834Z</time>
      </trkpt>
      <trkpt lat="49.49266" lon="1.11189">
        <ele>165</ele>
        <time>2026-07-07T12:13:41.074Z</time>
      </trkpt>
      <trkpt lat="49.49264" lon="1.11198">
        <ele>165</ele>
        <time>2026-07-07T12:13:45.273Z</time>
      </trkpt>
      <trkpt lat="49.49262" lon="1.11206">
        <ele>162</ele>
        <time>2026-07-07T12:13:49.699Z</time>
      </trkpt>
      <trkpt lat="49.4926" lon="1.11214">
        <ele>162</ele>
        <time>2026-07-07T12:13:53.868Z</time>
      </trkpt>
      <trkpt lat="49.4926" lon="1.11222">
        <ele>162</ele>
        <time>2026-07-07T12:13:58.104Z</time>
      </trkpt>
      <trkpt lat="49.49261" lon="1.11229">
        <ele>162</ele>
        <time>2026-07-07T12:14:02.398Z</time>
      </trkpt>
      <trkpt lat="49.49262" lon="1.11237">
        <ele>163</ele>
        <time>2026-07-07T12:14:07.075Z</time>
      </trkpt>
      <trkpt lat="49.49261" lon="1.11243">
        <ele>163</ele>
        <time>2026-07-07T12:14:11.404Z</time>
      </trkpt>
      <trkpt lat="49.4926" lon="1.11249">
        <ele>163</ele>
        <time>2026-07-07T12:14:15.618Z</time>
      </trkpt>
      <trkpt lat="49.49259" lon="1.11255">
        <ele>163</ele>
        <time>2026-07-07T12:14:20.001Z</time>
      </trkpt>
      <trkpt lat="49.49258" lon="1.11261">
        <ele>163</ele>
        <time>2026-07-07T12:14:24.196Z</time>
      </trkpt>
      <trkpt lat="49.4926" lon="1.11267">
        <ele>164</ele>
        <time>2026-07-07T12:14:28.406Z</time>
      </trkpt>
      <trkpt lat="49.4926" lon="1.11274">
        <ele>164</ele>
        <time>2026-07-07T12:14:32.800Z</time>
      </trkpt>
      <trkpt lat="49.49258" lon="1.11281">
        <ele>164</ele>
        <time>2026-07-07T12:14:37.216Z</time>
      </trkpt>
      <trkpt lat="49.49257" lon="1.11288">
        <ele>164</ele>
        <time>2026-07-07T12:14:41.392Z</time>
      </trkpt>
      <trkpt lat="49.49254" lon="1.11295">
        <ele>165</ele>
        <time>2026-07-07T12:14:45.662Z</time>
      </trkpt>
      <trkpt lat="49.49252" lon="1.11303">
        <ele>165</ele>
        <time>2026-07-07T12:14:50.093Z</time>
      </trkpt>
      <trkpt lat="49.49251" lon="1.11311">
        <ele>165</ele>
        <time>2026-07-07T12:14:54.410Z</time>
      </trkpt>
      <trkpt lat="49.49249" lon="1.11319">
        <ele>165</ele>
        <time>2026-07-07T12:14:58.673Z</time>
      </trkpt>
      <trkpt lat="49.49247" lon="1.11327">
        <ele>166</ele>
        <time>2026-07-07T12:15:03.117Z</time>
      </trkpt>
      <trkpt lat="49.49247" lon="1.11334">
        <ele>166</ele>
        <time>2026-07-07T12:15:07.406Z</time>
      </trkpt>
      <trkpt lat="49.49246" lon="1.11342">
        <ele>166</ele>
        <time>2026-07-07T12:15:11.811Z</time>
      </trkpt>
      <trkpt lat="49.49246" lon="1.11348">
        <ele>167</ele>
        <time>2026-07-07T12:15:16.049Z</time>
      </trkpt>
      <trkpt lat="49.49246" lon="1.11354">
        <ele>167</ele>
        <time>2026-07-07T12:15:20.406Z</time>
      </trkpt>
      <trkpt lat="49.49245" lon="1.11361">
        <ele>167</ele>
        <time>2026-07-07T12:15:24.778Z</time>
      </trkpt>
      <trkpt lat="49.49243" lon="1.11369">
        <ele>167</ele>
        <time>2026-07-07T12:15:29.260Z</time>
      </trkpt>
      <trkpt lat="49.49242" lon="1.11377">
        <ele>168</ele>
        <time>2026-07-07T12:15:33.615Z</time>
      </trkpt>
      <trkpt lat="49.4924" lon="1.11383">
        <ele>168</ele>
        <time>2026-07-07T12:15:38.095Z</time>
      </trkpt>
      <trkpt lat="49.49239" lon="1.1139">
        <ele>168</ele>
        <time>2026-07-07T12:15:42.419Z</time>
      </trkpt>
      <trkpt lat="49.49238" lon="1.11398">
        <ele>168</ele>
        <time>2026-07-07T12:15:46.890Z</time>
      </trkpt>
      <trkpt lat="49.49235" lon="1.11403">
        <ele>166</ele>
        <time>2026-07-07T12:15:51.215Z</time>
      </trkpt>
      <trkpt lat="49.49237" lon="1.11411">
        <ele>170</ele>
        <time>2026-07-07T12:15:55.448Z</time>
      </trkpt>
      <trkpt lat="49.49238" lon="1.11417">
        <ele>170</ele>
        <time>2026-07-07T12:15:59.845Z</time>
      </trkpt>
      <trkpt lat="49.49239" lon="1.11423">
        <ele>170</ele>
        <time>2026-07-07T12:16:04.273Z</time>
      </trkpt>
      <trkpt lat="49.49239" lon="1.11429">
        <ele>170</ele>
        <time>2026-07-07T12:16:08.513Z</time>
      </trkpt>
      <trkpt lat="49.49241" lon="1.11437">
        <ele>171</ele>
        <time>2026-07-07T12:16:12.936Z</time>
      </trkpt>
      <trkpt lat="49.49244" lon="1.1144">
        <ele>171</ele>
        <time>2026-07-07T12:16:17.032Z</time>
      </trkpt>
      <trkpt lat="49.49248" lon="1.11442">
        <ele>171</ele>
        <time>2026-07-07T12:16:21.404Z</time>
      </trkpt>
      <trkpt lat="49.4925" lon="1.11445">
        <ele>171</ele>
        <time>2026-07-07T12:16:25.571Z</time>
      </trkpt>
      <trkpt lat="49.4925" lon="1.11452">
        <ele>171</ele>
        <time>2026-07-07T12:16:29.769Z</time>
      </trkpt>
      <trkpt lat="49.49251" lon="1.11458">
        <ele>171</ele>
        <time>2026-07-07T12:16:33.760Z</time>
      </trkpt>
      <trkpt lat="49.49256" lon="1.11461">
        <ele>173</ele>
        <time>2026-07-07T12:16:38.171Z</time>
      </trkpt>
      <trkpt lat="49.49261" lon="1.11458">
        <ele>173</ele>
        <time>2026-07-07T12:16:42.593Z</time>
      </trkpt>
      <trkpt lat="49.49261" lon="1.11458">
        <ele>173</ele>
        <time>2026-07-07T12:16:47.082Z</time>
      </trkpt>
      <trkpt lat="49.49267" lon="1.11461">
        <ele>173</ele>
        <time>2026-07-07T12:16:51.353Z</time>
      </trkpt>
      <trkpt lat="49.4927" lon="1.11464">
        <ele>173</ele>
        <time>2026-07-07T12:16:55.658Z</time>
      </trkpt>
      <trkpt lat="49.49276" lon="1.11467">
        <ele>173</ele>
        <time>2026-07-07T12:16:59.856Z</time>
      </trkpt>
      <trkpt lat="49.49284" lon="1.1147">
        <ele>173</ele>
        <time>2026-07-07T12:17:03.986Z</time>
      </trkpt>
      <trkpt lat="49.4929" lon="1.11472">
        <ele>173</ele>
        <time>2026-07-07T12:17:08.267Z</time>
      </trkpt>
      <trkpt lat="49.49296" lon="1.11474">
        <ele>172</ele>
        <time>2026-07-07T12:17:12.397Z</time>
      </trkpt>
      <trkpt lat="49.49302" lon="1.11475">
        <ele>172</ele>
        <time>2026-07-07T12:17:16.877Z</time>
      </trkpt>
      <trkpt lat="49.49307" lon="1.11478">
        <ele>172</ele>
        <time>2026-07-07T12:17:21.050Z</time>
      </trkpt>
      <trkpt lat="49.49311" lon="1.1148">
        <ele>172</ele>
        <time>2026-07-07T12:17:25.311Z</time>
      </trkpt>
      <trkpt lat="49.49318" lon="1.11481">
        <ele>172</ele>
        <time>2026-07-07T12:17:29.405Z</time>
      </trkpt>
      <trkpt lat="49.49323" lon="1.11483">
        <ele>172</ele>
        <time>2026-07-07T12:17:33.712Z</time>
      </trkpt>
      <trkpt lat="49.49328" lon="1.11484">
        <ele>172</ele>
        <time>2026-07-07T12:17:37.986Z</time>
      </trkpt>
      <trkpt lat="49.49334" lon="1.11487">
        <ele>173</ele>
        <time>2026-07-07T12:17:42.214Z</time>
      </trkpt>
      <trkpt lat="49.4934" lon="1.11491">
        <ele>173</ele>
        <time>2026-07-07T12:17:46.415Z</time>
      </trkpt>
      <trkpt lat="49.49345" lon="1.11494">
        <ele>173</ele>
        <time>2026-07-07T12:17:50.648Z</time>
      </trkpt>
      <trkpt lat="49.4935" lon="1.11494">
        <ele>173</ele>
        <time>2026-07-07T12:17:54.972Z</time>
      </trkpt>
      <trkpt lat="49.49355" lon="1.11496">
        <ele>173</ele>
        <time>2026-07-07T12:17:59.212Z</time>
      </trkpt>
      <trkpt lat="49.4936" lon="1.11498">
        <ele>173</ele>
        <time>2026-07-07T12:18:03.357Z</time>
      </trkpt>
      <trkpt lat="49.49365" lon="1.115">
        <ele>173</ele>
        <time>2026-07-07T12:18:07.833Z</time>
      </trkpt>
      <trkpt lat="49.49371" lon="1.11501">
        <ele>173</ele>
        <time>2026-07-07T12:18:21.404Z</time>
      </trkpt>
      <trkpt lat="49.49376" lon="1.11503">
        <ele>173</ele>
        <time>2026-07-07T12:18:25.815Z</time>
      </trkpt>
      <trkpt lat="49.4938" lon="1.11507">
        <ele>173</ele>
        <time>2026-07-07T12:18:30.403Z</time>
      </trkpt>
      <trkpt lat="49.49385" lon="1.11509">
        <ele>173</ele>
        <time>2026-07-07T12:18:34.667Z</time>
      </trkpt>
      <trkpt lat="49.49389" lon="1.11511">
        <ele>173</ele>
        <time>2026-07-07T12:18:38.928Z</time>
      </trkpt>
      <trkpt lat="49.49393" lon="1.11515">
        <ele>173</ele>
        <time>2026-07-07T12:18:43.168Z</time>
      </trkpt>
      <trkpt lat="49.49398" lon="1.11518">
        <ele>173</ele>
        <time>2026-07-07T12:18:47.758Z</time>
      </trkpt>
      <trkpt lat="49.49403" lon="1.11519">
        <ele>173</ele>
        <time>2026-07-07T12:18:51.972Z</time>
      </trkpt>
      <trkpt lat="49.49408" lon="1.11519">
        <ele>173</ele>
        <time>2026-07-07T12:18:56.138Z</time>
      </trkpt>
      <trkpt lat="49.49413" lon="1.1152">
        <ele>173</ele>
        <time>2026-07-07T12:19:00.397Z</time>
      </trkpt>
      <trkpt lat="49.49418" lon="1.11522">
        <ele>173</ele>
        <time>2026-07-07T12:19:04.372Z</time>
      </trkpt>
      <trkpt lat="49.49424" lon="1.11524">
        <ele>173</ele>
        <time>2026-07-07T12:19:08.744Z</time>
      </trkpt>
      <trkpt lat="49.49429" lon="1.11526">
        <ele>173</ele>
        <time>2026-07-07T12:19:13.071Z</time>
      </trkpt>
      <trkpt lat="49.49435" lon="1.11529">
        <ele>174</ele>
        <time>2026-07-07T12:19:17.877Z</time>
      </trkpt>
      <trkpt lat="49.4944" lon="1.11533">
        <ele>174</ele>
        <time>2026-07-07T12:19:22.381Z</time>
      </trkpt>
      <trkpt lat="49.49444" lon="1.11536">
        <ele>174</ele>
        <time>2026-07-07T12:19:26.907Z</time>
      </trkpt>
      <trkpt lat="49.49449" lon="1.11538">
        <ele>174</ele>
        <time>2026-07-07T12:19:31.381Z</time>
      </trkpt>
      <trkpt lat="49.49454" lon="1.1154">
        <ele>174</ele>
        <time>2026-07-07T12:19:48.398Z</time>
      </trkpt>
      <trkpt lat="49.49459" lon="1.11542">
        <ele>174</ele>
        <time>2026-07-07T12:19:53.400Z</time>
      </trkpt>
      <trkpt lat="49.49464" lon="1.11545">
        <ele>174</ele>
        <time>2026-07-07T12:19:58.309Z</time>
      </trkpt>
      <trkpt lat="49.49469" lon="1.11547">
        <ele>174</ele>
        <time>2026-07-07T12:20:02.895Z</time>
      </trkpt>
      <trkpt lat="49.49474" lon="1.11548">
        <ele>174</ele>
        <time>2026-07-07T12:20:07.333Z</time>
      </trkpt>
      <trkpt lat="49.49481" lon="1.11547">
        <ele>174</ele>
        <time>2026-07-07T12:20:11.735Z</time>
      </trkpt>
      <trkpt lat="49.49487" lon="1.11547">
        <ele>174</ele>
        <time>2026-07-07T12:20:15.951Z</time>
      </trkpt>
      <trkpt lat="49.49491" lon="1.11549">
        <ele>174</ele>
        <time>2026-07-07T12:20:20.310Z</time>
      </trkpt>
      <trkpt lat="49.49496" lon="1.11551">
        <ele>174</ele>
        <time>2026-07-07T12:20:24.412Z</time>
      </trkpt>
      <trkpt lat="49.49502" lon="1.11552">
        <ele>174</ele>
        <time>2026-07-07T12:20:29.167Z</time>
      </trkpt>
      <trkpt lat="49.49507" lon="1.11554">
        <ele>174</ele>
        <time>2026-07-07T12:20:33.332Z</time>
      </trkpt>
      <trkpt lat="49.49512" lon="1.11556">
        <ele>174</ele>
        <time>2026-07-07T12:20:37.854Z</time>
      </trkpt>
      <trkpt lat="49.49516" lon="1.11561">
        <ele>174</ele>
        <time>2026-07-07T12:20:42.256Z</time>
      </trkpt>
      <trkpt lat="49.49521" lon="1.11564">
        <ele>174</ele>
        <time>2026-07-07T12:20:46.745Z</time>
      </trkpt>
      <trkpt lat="49.49527" lon="1.11568">
        <ele>174</ele>
        <time>2026-07-07T12:20:50.834Z</time>
      </trkpt>
      <trkpt lat="49.49532" lon="1.11572">
        <ele>174</ele>
        <time>2026-07-07T12:20:55.188Z</time>
      </trkpt>
      <trkpt lat="49.49538" lon="1.11575">
        <ele>174</ele>
        <time>2026-07-07T12:20:59.399Z</time>
      </trkpt>
      <trkpt lat="49.49543" lon="1.11576">
        <ele>174</ele>
        <time>2026-07-07T12:21:04.310Z</time>
      </trkpt>
      <trkpt lat="49.49549" lon="1.11578">
        <ele>174</ele>
        <time>2026-07-07T12:21:08.735Z</time>
      </trkpt>
      <trkpt lat="49.49555" lon="1.11582">
        <ele>174</ele>
        <time>2026-07-07T12:21:12.877Z</time>
      </trkpt>
      <trkpt lat="49.4956" lon="1.11583">
        <ele>174</ele>
        <time>2026-07-07T12:21:17.309Z</time>
      </trkpt>
      <trkpt lat="49.49565" lon="1.11583">
        <ele>174</ele>
        <time>2026-07-07T12:21:21.789Z</time>
      </trkpt>
      <trkpt lat="49.49571" lon="1.1158">
        <ele>175</ele>
        <time>2026-07-07T12:21:26.049Z</time>
      </trkpt>
      <trkpt lat="49.49577" lon="1.11579">
        <ele>175</ele>
        <time>2026-07-07T12:21:30.495Z</time>
      </trkpt>
      <trkpt lat="49.49579" lon="1.11576">
        <ele>175</ele>
        <time>2026-07-07T12:21:34.988Z</time>
      </trkpt>
      <trkpt lat="49.4958" lon="1.11568">
        <ele>175</ele>
        <time>2026-07-07T12:21:39.249Z</time>
      </trkpt>
      <trkpt lat="49.49582" lon="1.11563">
        <ele>175</ele>
        <time>2026-07-07T12:21:43.403Z</time>
      </trkpt>
      <trkpt lat="49.49582" lon="1.11556">
        <ele>175</ele>
        <time>2026-07-07T12:21:48.095Z</time>
      </trkpt>
      <trkpt lat="49.49582" lon="1.11548">
        <ele>175</ele>
        <time>2026-07-07T12:21:52.517Z</time>
      </trkpt>
      <trkpt lat="49.49584" lon="1.11541">
        <ele>176</ele>
        <time>2026-07-07T12:21:57.008Z</time>
      </trkpt>
      <trkpt lat="49.49586" lon="1.11536">
        <ele>176</ele>
        <time>2026-07-07T12:22:01.336Z</time>
      </trkpt>
      <trkpt lat="49.49588" lon="1.11529">
        <ele>176</ele>
        <time>2026-07-07T12:22:05.671Z</time>
      </trkpt>
      <trkpt lat="49.49588" lon="1.11521">
        <ele>176</ele>
        <time>2026-07-07T12:22:09.956Z</time>
      </trkpt>
      <trkpt lat="49.49587" lon="1.11515">
        <ele>176</ele>
        <time>2026-07-07T12:22:14.366Z</time>
      </trkpt>
      <trkpt lat="49.49588" lon="1.11508">
        <ele>175</ele>
        <time>2026-07-07T12:22:18.609Z</time>
      </trkpt>
      <trkpt lat="49.49593" lon="1.11501">
        <ele>175</ele>
        <time>2026-07-07T12:22:23.103Z</time>
      </trkpt>
      <trkpt lat="49.49595" lon="1.11494">
        <ele>175</ele>
        <time>2026-07-07T12:22:27.398Z</time>
      </trkpt>
      <trkpt lat="49.49599" lon="1.11484">
        <ele>178</ele>
        <time>2026-07-07T12:22:31.834Z</time>
      </trkpt>
      <trkpt lat="49.49602" lon="1.11477">
        <ele>178</ele>
        <time>2026-07-07T12:22:36.119Z</time>
      </trkpt>
      <trkpt lat="49.49606" lon="1.11469">
        <ele>178</ele>
        <time>2026-07-07T12:22:40.377Z</time>
      </trkpt>
      <trkpt lat="49.4961" lon="1.11463">
        <ele>178</ele>
        <time>2026-07-07T12:22:44.856Z</time>
      </trkpt>
      <trkpt lat="49.49612" lon="1.11456">
        <ele>178</ele>
        <time>2026-07-07T12:22:48.821Z</time>
      </trkpt>
      <trkpt lat="49.49614" lon="1.11447">
        <ele>178</ele>
        <time>2026-07-07T12:22:53.216Z</time>
      </trkpt>
      <trkpt lat="49.49615" lon="1.11438">
        <ele>178</ele>
        <time>2026-07-07T12:22:57.395Z</time>
      </trkpt>
      <trkpt lat="49.49616" lon="1.11428">
        <ele>178</ele>
        <time>2026-07-07T12:23:01.404Z</time>
      </trkpt>
      <trkpt lat="49.49619" lon="1.11418">
        <ele>178</ele>
        <time>2026-07-07T12:23:06.401Z</time>
      </trkpt>
      <trkpt lat="49.49621" lon="1.1141">
        <ele>178</ele>
        <time>2026-07-07T12:23:56.410Z</time>
      </trkpt>
      <trkpt lat="49.49622" lon="1.11403">
        <ele>177</ele>
        <time>2026-07-07T12:24:02.412Z</time>
      </trkpt>
      <trkpt lat="49.49622" lon="1.11396">
        <ele>177</ele>
        <time>2026-07-07T12:24:07.421Z</time>
      </trkpt>
      <trkpt lat="49.49622" lon="1.11388">
        <ele>177</ele>
        <time>2026-07-07T12:24:17.403Z</time>
      </trkpt>
      <trkpt lat="49.49623" lon="1.11381">
        <ele>177</ele>
        <time>2026-07-07T12:24:21.405Z</time>
      </trkpt>
      <trkpt lat="49.49624" lon="1.11373">
        <ele>176</ele>
        <time>2026-07-07T12:26:08.401Z</time>
      </trkpt>
      <trkpt lat="49.49624" lon="1.11365">
        <ele>176</ele>
        <time>2026-07-07T12:26:12.407Z</time>
      </trkpt>
      <trkpt lat="49.49625" lon="1.11357">
        <ele>176</ele>
        <time>2026-07-07T12:26:17.402Z</time>
      </trkpt>
      <trkpt lat="49.49625" lon="1.11351">
        <ele>176</ele>
        <time>2026-07-07T12:26:22.405Z</time>
      </trkpt>
      <trkpt lat="49.49625" lon="1.11344">
        <ele>175</ele>
        <time>2026-07-07T12:26:27.399Z</time>
      </trkpt>
      <trkpt lat="49.49625" lon="1.11337">
        <ele>175</ele>
        <time>2026-07-07T12:26:31.411Z</time>
      </trkpt>
      <trkpt lat="49.49627" lon="1.11332">
        <ele>178</ele>
        <time>2026-07-07T12:26:36.403Z</time>
      </trkpt>
      <trkpt lat="49.49629" lon="1.11326">
        <ele>178</ele>
        <time>2026-07-07T12:26:41.400Z</time>
      </trkpt>
      <trkpt lat="49.49632" lon="1.11318">
        <ele>175</ele>
        <time>2026-07-07T12:26:45.778Z</time>
      </trkpt>
      <trkpt lat="49.49636" lon="1.11312">
        <ele>175</ele>
        <time>2026-07-07T12:26:49.856Z</time>
      </trkpt>
      <trkpt lat="49.49638" lon="1.11305">
        <ele>175</ele>
        <time>2026-07-07T12:26:53.928Z</time>
      </trkpt>
      <trkpt lat="49.49639" lon="1.11298">
        <ele>175</ele>
        <time>2026-07-07T12:26:57.930Z</time>
      </trkpt>
      <trkpt lat="49.49639" lon="1.1129">
        <ele>173</ele>
        <time>2026-07-07T12:27:02.052Z</time>
      </trkpt>
      <trkpt lat="49.49638" lon="1.11281">
        <ele>173</ele>
        <time>2026-07-07T12:27:06.697Z</time>
      </trkpt>
      <trkpt lat="49.49635" lon="1.11273">
        <ele>173</ele>
        <time>2026-07-07T12:27:11.265Z</time>
      </trkpt>
      <trkpt lat="49.49634" lon="1.11265">
        <ele>173</ele>
        <time>2026-07-07T12:27:15.256Z</time>
      </trkpt>
      <trkpt lat="49.49634" lon="1.11257">
        <ele>173</ele>
        <time>2026-07-07T12:27:19.376Z</time>
      </trkpt>
      <trkpt lat="49.49635" lon="1.11249">
        <ele>173</ele>
        <time>2026-07-07T12:27:23.912Z</time>
      </trkpt>
      <trkpt lat="49.49638" lon="1.11243">
        <ele>173</ele>
        <time>2026-07-07T12:27:28.395Z</time>
      </trkpt>
      <trkpt lat="49.49639" lon="1.11236">
        <ele>174</ele>
        <time>2026-07-07T12:27:32.662Z</time>
      </trkpt>
      <trkpt lat="49.49641" lon="1.11228">
        <ele>174</ele>
        <time>2026-07-07T12:27:36.755Z</time>
      </trkpt>
      <trkpt lat="49.49642" lon="1.1122">
        <ele>174</ele>
        <time>2026-07-07T12:27:41.361Z</time>
      </trkpt>
      <trkpt lat="49.49644" lon="1.11213">
        <ele>174</ele>
        <time>2026-07-07T12:27:45.970Z</time>
      </trkpt>
      <trkpt lat="49.49645" lon="1.11205">
        <ele>175</ele>
        <time>2026-07-07T12:27:50.626Z</time>
      </trkpt>
      <trkpt lat="49.49645" lon="1.11198">
        <ele>175</ele>
        <time>2026-07-07T12:27:55.256Z</time>
      </trkpt>
      <trkpt lat="49.49644" lon="1.11191">
        <ele>175</ele>
        <time>2026-07-07T12:27:59.855Z</time>
      </trkpt>
      <trkpt lat="49.49645" lon="1.11184">
        <ele>175</ele>
        <time>2026-07-07T12:28:04.400Z</time>
      </trkpt>
      <trkpt lat="49.49646" lon="1.11177">
        <ele>175</ele>
        <time>2026-07-07T12:28:08.537Z</time>
      </trkpt>
      <trkpt lat="49.49647" lon="1.1117">
        <ele>175</ele>
        <time>2026-07-07T12:28:13.058Z</time>
      </trkpt>
      <trkpt lat="49.49646" lon="1.11163">
        <ele>175</ele>
        <time>2026-07-07T12:28:17.113Z</time>
      </trkpt>
      <trkpt lat="49.49646" lon="1.11161">
        <ele>175</ele>
        <time>2026-07-07T12:28:21.172Z</time>
      </trkpt>
      <trkpt lat="49.49644" lon="1.1116">
        <ele>175</ele>
        <time>2026-07-07T12:28:25.255Z</time>
      </trkpt>
      <trkpt lat="49.49643" lon="1.11157">
        <ele>175</ele>
        <time>2026-07-07T12:28:29.796Z</time>
      </trkpt>
      <trkpt lat="49.49646" lon="1.11148">
        <ele>175</ele>
        <time>2026-07-07T12:28:34.306Z</time>
      </trkpt>
      <trkpt lat="49.49645" lon="1.11137">
        <ele>175</ele>
        <time>2026-07-07T12:28:38.371Z</time>
      </trkpt>
      <trkpt lat="49.49643" lon="1.11128">
        <ele>175</ele>
        <time>2026-07-07T12:28:42.409Z</time>
      </trkpt>
      <trkpt lat="49.49645" lon="1.11121">
        <ele>175</ele>
        <time>2026-07-07T12:28:47.087Z</time>
      </trkpt>
      <trkpt lat="49.49647" lon="1.11114">
        <ele>175</ele>
        <time>2026-07-07T12:28:51.698Z</time>
      </trkpt>
      <trkpt lat="49.4965" lon="1.11107">
        <ele>175</ele>
        <time>2026-07-07T12:28:55.808Z</time>
      </trkpt>
      <trkpt lat="49.4965" lon="1.11101">
        <ele>175</ele>
        <time>2026-07-07T12:28:59.897Z</time>
      </trkpt>
      <trkpt lat="49.49649" lon="1.11095">
        <ele>174</ele>
        <time>2026-07-07T12:29:03.976Z</time>
      </trkpt>
      <trkpt lat="49.4965" lon="1.11089">
        <ele>174</ele>
        <time>2026-07-07T12:29:08.036Z</time>
      </trkpt>
      <trkpt lat="49.49651" lon="1.11084">
        <ele>174</ele>
        <time>2026-07-07T12:29:12.056Z</time>
      </trkpt>
      <trkpt lat="49.49652" lon="1.11078">
        <ele>174</ele>
        <time>2026-07-07T12:29:16.112Z</time>
      </trkpt>
      <trkpt lat="49.49653" lon="1.11071">
        <ele>177</ele>
        <time>2026-07-07T12:29:20.671Z</time>
      </trkpt>
      <trkpt lat="49.49653" lon="1.11064">
        <ele>175</ele>
        <time>2026-07-07T12:29:25.274Z</time>
      </trkpt>
      <trkpt lat="49.49653" lon="1.11056">
        <ele>175</ele>
        <time>2026-07-07T12:29:29.947Z</time>
      </trkpt>
      <trkpt lat="49.49655" lon="1.1105">
        <ele>175</ele>
        <time>2026-07-07T12:29:34.408Z</time>
      </trkpt>
      <trkpt lat="49.49656" lon="1.11043">
        <ele>175</ele>
        <time>2026-07-07T12:29:38.526Z</time>
      </trkpt>
      <trkpt lat="49.49657" lon="1.11037">
        <ele>173</ele>
        <time>2026-07-07T12:29:43.057Z</time>
      </trkpt>
      <trkpt lat="49.49657" lon="1.11029">
        <ele>173</ele>
        <time>2026-07-07T12:29:47.181Z</time>
      </trkpt>
      <trkpt lat="49.49657" lon="1.11021">
        <ele>173</ele>
        <time>2026-07-07T12:29:51.814Z</time>
      </trkpt>
      <trkpt lat="49.49659" lon="1.11015">
        <ele>173</ele>
        <time>2026-07-07T12:29:56.397Z</time>
      </trkpt>
      <trkpt lat="49.49662" lon="1.11008">
        <ele>171</ele>
        <time>2026-07-07T12:30:00.400Z</time>
      </trkpt>
      <trkpt lat="49.49664" lon="1.11001">
        <ele>171</ele>
        <time>2026-07-07T12:30:05.035Z</time>
      </trkpt>
      <trkpt lat="49.49666" lon="1.10994">
        <ele>171</ele>
        <time>2026-07-07T12:30:09.157Z</time>
      </trkpt>
      <trkpt lat="49.49666" lon="1.10985">
        <ele>171</ele>
        <time>2026-07-07T12:30:13.217Z</time>
      </trkpt>
      <trkpt lat="49.49669" lon="1.10976">
        <ele>171</ele>
        <time>2026-07-07T12:30:17.330Z</time>
      </trkpt>
      <trkpt lat="49.49674" lon="1.10968">
        <ele>171</ele>
        <time>2026-07-07T12:30:21.907Z</time>
      </trkpt>
      <trkpt lat="49.49676" lon="1.10961">
        <ele>171</ele>
        <time>2026-07-07T12:30:26.408Z</time>
      </trkpt>
      <trkpt lat="49.49679" lon="1.10955">
        <ele>171</ele>
        <time>2026-07-07T12:30:30.636Z</time>
      </trkpt>
      <trkpt lat="49.49681" lon="1.10948">
        <ele>173</ele>
        <time>2026-07-07T12:30:34.705Z</time>
      </trkpt>
      <trkpt lat="49.49685" lon="1.10942">
        <ele>173</ele>
        <time>2026-07-07T12:30:39.337Z</time>
      </trkpt>
      <trkpt lat="49.49687" lon="1.10934">
        <ele>173</ele>
        <time>2026-07-07T12:30:44.392Z</time>
      </trkpt>
      <trkpt lat="49.49689" lon="1.10926">
        <ele>173</ele>
        <time>2026-07-07T12:30:48.404Z</time>
      </trkpt>
      <trkpt lat="49.4969" lon="1.10919">
        <ele>173</ele>
        <time>2026-07-07T12:30:52.731Z</time>
      </trkpt>
      <trkpt lat="49.4969" lon="1.10912">
        <ele>173</ele>
        <time>2026-07-07T12:30:57.032Z</time>
      </trkpt>
      <trkpt lat="49.4969" lon="1.10906">
        <ele>173</ele>
        <time>2026-07-07T12:31:01.402Z</time>
      </trkpt>
      <trkpt lat="49.4969" lon="1.10901">
        <ele>173</ele>
        <time>2026-07-07T12:31:06.006Z</time>
      </trkpt>
      <trkpt lat="49.49689" lon="1.10894">
        <ele>173</ele>
        <time>2026-07-07T12:31:10.495Z</time>
      </trkpt>
      <trkpt lat="49.49689" lon="1.10884">
        <ele>173</ele>
        <time>2026-07-07T12:31:14.780Z</time>
      </trkpt>
      <trkpt lat="49.49691" lon="1.10875">
        <ele>173</ele>
        <time>2026-07-07T12:31:18.869Z</time>
      </trkpt>
      <trkpt lat="49.49693" lon="1.10868">
        <ele>172</ele>
        <time>2026-07-07T12:31:23.397Z</time>
      </trkpt>
      <trkpt lat="49.49697" lon="1.10864">
        <ele>172</ele>
        <time>2026-07-07T12:31:27.402Z</time>
      </trkpt>
      <trkpt lat="49.49698" lon="1.10856">
        <ele>172</ele>
        <time>2026-07-07T12:31:31.860Z</time>
      </trkpt>
      <trkpt lat="49.49698" lon="1.10848">
        <ele>172</ele>
        <time>2026-07-07T12:31:36.055Z</time>
      </trkpt>
      <trkpt lat="49.49699" lon="1.10841">
        <ele>173</ele>
        <time>2026-07-07T12:31:40.241Z</time>
      </trkpt>
      <trkpt lat="49.49701" lon="1.10835">
        <ele>173</ele>
        <time>2026-07-07T12:31:44.397Z</time>
      </trkpt>
      <trkpt lat="49.49703" lon="1.10827">
        <ele>173</ele>
        <time>2026-07-07T12:31:48.688Z</time>
      </trkpt>
      <trkpt lat="49.49704" lon="1.10819">
        <ele>174</ele>
        <time>2026-07-07T12:31:52.923Z</time>
      </trkpt>
      <trkpt lat="49.49702" lon="1.10812">
        <ele>174</ele>
        <time>2026-07-07T12:31:57.185Z</time>
      </trkpt>
      <trkpt lat="49.49703" lon="1.10805">
        <ele>174</ele>
        <time>2026-07-07T12:32:01.370Z</time>
      </trkpt>
      <trkpt lat="49.49704" lon="1.10799">
        <ele>174</ele>
        <time>2026-07-07T12:32:05.980Z</time>
      </trkpt>
      <trkpt lat="49.49707" lon="1.10791">
        <ele>174</ele>
        <time>2026-07-07T12:32:10.396Z</time>
      </trkpt>
      <trkpt lat="49.49709" lon="1.10784">
        <ele>175</ele>
        <time>2026-07-07T12:32:14.860Z</time>
      </trkpt>
      <trkpt lat="49.4971" lon="1.10778">
        <ele>175</ele>
        <time>2026-07-07T12:32:19.219Z</time>
      </trkpt>
      <trkpt lat="49.49713" lon="1.10773">
        <ele>175</ele>
        <time>2026-07-07T12:32:23.609Z</time>
      </trkpt>
      <trkpt lat="49.49715" lon="1.10767">
        <ele>175</ele>
        <time>2026-07-07T12:32:27.993Z</time>
      </trkpt>
      <trkpt lat="49.49718" lon="1.10762">
        <ele>175</ele>
        <time>2026-07-07T12:32:32.157Z</time>
      </trkpt>
      <trkpt lat="49.49721" lon="1.10758">
        <ele>175</ele>
        <time>2026-07-07T12:32:36.400Z</time>
      </trkpt>
      <trkpt lat="49.49721" lon="1.10752">
        <ele>175</ele>
        <time>2026-07-07T12:32:40.611Z</time>
      </trkpt>
      <trkpt lat="49.49718" lon="1.10745">
        <ele>175</ele>
        <time>2026-07-07T12:32:44.728Z</time>
      </trkpt>
      <trkpt lat="49.49718" lon="1.10742">
        <ele>175</ele>
        <time>2026-07-07T12:32:48.774Z</time>
      </trkpt>
      <trkpt lat="49.49717" lon="1.10735">
        <ele>175</ele>
        <time>2026-07-07T12:32:52.979Z</time>
      </trkpt>
      <trkpt lat="49.49716" lon="1.1073">
        <ele>175</ele>
        <time>2026-07-07T12:32:57.013Z</time>
      </trkpt>
      <trkpt lat="49.49714" lon="1.10723">
        <ele>175</ele>
        <time>2026-07-07T12:33:01.360Z</time>
      </trkpt>
      <trkpt lat="49.49713" lon="1.10717">
        <ele>175</ele>
        <time>2026-07-07T12:33:06.197Z</time>
      </trkpt>
      <trkpt lat="49.49712" lon="1.10713">
        <ele>175</ele>
        <time>2026-07-07T12:33:10.317Z</time>
      </trkpt>
      <trkpt lat="49.49711" lon="1.10708">
        <ele>175</ele>
        <time>2026-07-07T12:33:14.599Z</time>
      </trkpt>
      <trkpt lat="49.49711" lon="1.10702">
        <ele>175</ele>
        <time>2026-07-07T12:33:19.265Z</time>
      </trkpt>
      <trkpt lat="49.49712" lon="1.10697">
        <ele>175</ele>
        <time>2026-07-07T12:33:23.513Z</time>
      </trkpt>
      <trkpt lat="49.49712" lon="1.10693">
        <ele>175</ele>
        <time>2026-07-07T12:33:27.751Z</time>
      </trkpt>
      <trkpt lat="49.49712" lon="1.10688">
        <ele>175</ele>
        <time>2026-07-07T12:33:31.937Z</time>
      </trkpt>
      <trkpt lat="49.4971" lon="1.10684">
        <ele>175</ele>
        <time>2026-07-07T12:33:36.274Z</time>
      </trkpt>
      <trkpt lat="49.49708" lon="1.10678">
        <ele>176</ele>
        <time>2026-07-07T12:33:41.117Z</time>
      </trkpt>
      <trkpt lat="49.49704" lon="1.10673">
        <ele>176</ele>
        <time>2026-07-07T12:33:45.395Z</time>
      </trkpt>
      <trkpt lat="49.49701" lon="1.10668">
        <ele>176</ele>
        <time>2026-07-07T12:33:49.751Z</time>
      </trkpt>
      <trkpt lat="49.49699" lon="1.10666">
        <ele>176</ele>
        <time>2026-07-07T12:33:54.035Z</time>
      </trkpt>
      <trkpt lat="49.49702" lon="1.10666">
        <ele>176</ele>
        <time>2026-07-07T12:33:58.152Z</time>
      </trkpt>
      <trkpt lat="49.497" lon="1.10661">
        <ele>176</ele>
        <time>2026-07-07T12:34:02.402Z</time>
      </trkpt>
      <trkpt lat="49.49696" lon="1.10658">
        <ele>176</ele>
        <time>2026-07-07T12:34:06.871Z</time>
      </trkpt>
      <trkpt lat="49.49693" lon="1.10657">
        <ele>176</ele>
        <time>2026-07-07T12:34:11.077Z</time>
      </trkpt>
      <trkpt lat="49.49689" lon="1.10659">
        <ele>176</ele>
        <time>2026-07-07T12:34:15.404Z</time>
      </trkpt>
      <trkpt lat="49.49686" lon="1.10658">
        <ele>176</ele>
        <time>2026-07-07T12:34:19.598Z</time>
      </trkpt>
      <trkpt lat="49.49682" lon="1.10657">
        <ele>176</ele>
        <time>2026-07-07T12:34:23.818Z</time>
      </trkpt>
      <trkpt lat="49.49677" lon="1.10655">
        <ele>174</ele>
        <time>2026-07-07T12:34:27.990Z</time>
      </trkpt>
      <trkpt lat="49.49674" lon="1.10653">
        <ele>174</ele>
        <time>2026-07-07T12:34:32.276Z</time>
      </trkpt>
      <trkpt lat="49.4967" lon="1.10651">
        <ele>174</ele>
        <time>2026-07-07T12:34:36.393Z</time>
      </trkpt>
      <trkpt lat="49.49665" lon="1.10648">
        <ele>174</ele>
        <time>2026-07-07T12:34:40.723Z</time>
      </trkpt>
      <trkpt lat="49.4966" lon="1.10648">
        <ele>174</ele>
        <time>2026-07-07T12:34:45.033Z</time>
      </trkpt>
      <trkpt lat="49.49655" lon="1.10647">
        <ele>174</ele>
        <time>2026-07-07T12:34:49.316Z</time>
      </trkpt>
      <trkpt lat="49.49649" lon="1.10643">
        <ele>172</ele>
        <time>2026-07-07T12:34:58.400Z</time>
      </trkpt>
      <trkpt lat="49.49644" lon="1.10639">
        <ele>172</ele>
        <time>2026-07-07T12:35:03.175Z</time>
      </trkpt>
      <trkpt lat="49.49638" lon="1.10632">
        <ele>172</ele>
        <time>2026-07-07T12:35:07.637Z</time>
      </trkpt>
      <trkpt lat="49.49632" lon="1.10625">
        <ele>172</ele>
        <time>2026-07-07T12:35:12.056Z</time>
      </trkpt>
      <trkpt lat="49.49627" lon="1.10617">
        <ele>172</ele>
        <time>2026-07-07T12:35:16.273Z</time>
      </trkpt>
      <trkpt lat="49.49625" lon="1.10608">
        <ele>172</ele>
        <time>2026-07-07T12:35:20.392Z</time>
      </trkpt>
      <trkpt lat="49.49626" lon="1.10601">
        <ele>172</ele>
        <time>2026-07-07T12:35:24.513Z</time>
      </trkpt>
      <trkpt lat="49.49627" lon="1.10595">
        <ele>172</ele>
        <time>2026-07-07T12:35:28.816Z</time>
      </trkpt>
      <trkpt lat="49.49625" lon="1.10596">
        <ele>174</ele>
        <time>2026-07-07T12:35:33.124Z</time>
      </trkpt>
      <trkpt lat="49.49622" lon="1.10596">
        <ele>174</ele>
        <time>2026-07-07T12:35:37.398Z</time>
      </trkpt>
      <trkpt lat="49.49622" lon="1.10587">
        <ele>174</ele>
        <time>2026-07-07T12:35:41.403Z</time>
      </trkpt>
      <trkpt lat="49.49623" lon="1.10579">
        <ele>174</ele>
        <time>2026-07-07T12:35:45.818Z</time>
      </trkpt>
      <trkpt lat="49.49625" lon="1.1057">
        <ele>174</ele>
        <time>2026-07-07T12:35:49.915Z</time>
      </trkpt>
      <trkpt lat="49.49624" lon="1.10562">
        <ele>174</ele>
        <time>2026-07-07T12:35:54.130Z</time>
      </trkpt>
      <trkpt lat="49.49622" lon="1.10553">
        <ele>174</ele>
        <time>2026-07-07T12:35:58.392Z</time>
      </trkpt>
      <trkpt lat="49.49621" lon="1.10546">
        <ele>174</ele>
        <time>2026-07-07T12:36:02.653Z</time>
      </trkpt>
      <trkpt lat="49.4962" lon="1.10542">
        <ele>175</ele>
        <time>2026-07-07T12:36:06.848Z</time>
      </trkpt>
      <trkpt lat="49.49621" lon="1.10535">
        <ele>175</ele>
        <time>2026-07-07T12:36:10.972Z</time>
      </trkpt>
      <trkpt lat="49.49622" lon="1.10528">
        <ele>175</ele>
        <time>2026-07-07T12:36:15.185Z</time>
      </trkpt>
      <trkpt lat="49.49624" lon="1.10519">
        <ele>175</ele>
        <time>2026-07-07T12:36:19.398Z</time>
      </trkpt>
      <trkpt lat="49.49624" lon="1.10511">
        <ele>177</ele>
        <time>2026-07-07T12:36:24.121Z</time>
      </trkpt>
      <trkpt lat="49.49622" lon="1.10504">
        <ele>177</ele>
        <time>2026-07-07T12:36:28.251Z</time>
      </trkpt>
      <trkpt lat="49.4962" lon="1.10499">
        <ele>177</ele>
        <time>2026-07-07T12:36:32.370Z</time>
      </trkpt>
      <trkpt lat="49.49618" lon="1.10493">
        <ele>177</ele>
        <time>2026-07-07T12:36:36.609Z</time>
      </trkpt>
      <trkpt lat="49.49618" lon="1.10484">
        <ele>177</ele>
        <time>2026-07-07T12:36:40.755Z</time>
      </trkpt>
      <trkpt lat="49.49617" lon="1.10475">
        <ele>177</ele>
        <time>2026-07-07T12:36:45.396Z</time>
      </trkpt>
      <trkpt lat="49.49617" lon="1.10465">
        <ele>177</ele>
        <time>2026-07-07T12:36:50.079Z</time>
      </trkpt>
      <trkpt lat="49.49617" lon="1.10457">
        <ele>177</ele>
        <time>2026-07-07T12:36:54.273Z</time>
      </trkpt>
      <trkpt lat="49.49617" lon="1.1045">
        <ele>177</ele>
        <time>2026-07-07T12:36:58.395Z</time>
      </trkpt>
      <trkpt lat="49.49617" lon="1.10443">
        <ele>177</ele>
        <time>2026-07-07T12:37:02.773Z</time>
      </trkpt>
      <trkpt lat="49.49617" lon="1.10435">
        <ele>177</ele>
        <time>2026-07-07T12:37:07.058Z</time>
      </trkpt>
      <trkpt lat="49.49616" lon="1.10428">
        <ele>176</ele>
        <time>2026-07-07T12:37:11.402Z</time>
      </trkpt>
      <trkpt lat="49.49616" lon="1.1042">
        <ele>176</ele>
        <time>2026-07-07T12:37:15.716Z</time>
      </trkpt>
      <trkpt lat="49.49615" lon="1.10413">
        <ele>176</ele>
        <time>2026-07-07T12:37:20.402Z</time>
      </trkpt>
      <trkpt lat="49.49616" lon="1.10405">
        <ele>176</ele>
        <time>2026-07-07T12:37:24.610Z</time>
      </trkpt>
      <trkpt lat="49.49615" lon="1.10396">
        <ele>176</ele>
        <time>2026-07-07T12:37:28.896Z</time>
      </trkpt>
      <trkpt lat="49.49613" lon="1.10388">
        <ele>176</ele>
        <time>2026-07-07T12:37:33.169Z</time>
      </trkpt>
      <trkpt lat="49.49613" lon="1.10382">
        <ele>176</ele>
        <time>2026-07-07T12:37:37.397Z</time>
      </trkpt>
      <trkpt lat="49.49613" lon="1.10375">
        <ele>176</ele>
        <time>2026-07-07T12:37:41.727Z</time>
      </trkpt>
      <trkpt lat="49.49614" lon="1.10367">
        <ele>176</ele>
        <time>2026-07-07T12:37:45.907Z</time>
      </trkpt>
      <trkpt lat="49.49612" lon="1.10359">
        <ele>176</ele>
        <time>2026-07-07T12:37:50.331Z</time>
      </trkpt>
      <trkpt lat="49.49611" lon="1.10353">
        <ele>176</ele>
        <time>2026-07-07T12:37:54.668Z</time>
      </trkpt>
      <trkpt lat="49.4961" lon="1.10346">
        <ele>175</ele>
        <time>2026-07-07T12:37:59.021Z</time>
      </trkpt>
      <trkpt lat="49.4961" lon="1.1034">
        <ele>175</ele>
        <time>2026-07-07T12:38:03.303Z</time>
      </trkpt>
      <trkpt lat="49.49609" lon="1.10331">
        <ele>175</ele>
        <time>2026-07-07T12:38:07.680Z</time>
      </trkpt>
      <trkpt lat="49.49609" lon="1.10323">
        <ele>175</ele>
        <time>2026-07-07T12:38:12.330Z</time>
      </trkpt>
      <trkpt lat="49.49608" lon="1.10316">
        <ele>175</ele>
        <time>2026-07-07T12:38:16.399Z</time>
      </trkpt>
      <trkpt lat="49.49607" lon="1.10309">
        <ele>175</ele>
        <time>2026-07-07T12:38:20.931Z</time>
      </trkpt>
      <trkpt lat="49.49605" lon="1.10303">
        <ele>175</ele>
        <time>2026-07-07T12:38:25.088Z</time>
      </trkpt>
      <trkpt lat="49.49604" lon="1.10296">
        <ele>175</ele>
        <time>2026-07-07T12:38:29.396Z</time>
      </trkpt>
      <trkpt lat="49.49603" lon="1.10289">
        <ele>175</ele>
        <time>2026-07-07T12:38:33.752Z</time>
      </trkpt>
      <trkpt lat="49.49602" lon="1.10282">
        <ele>175</ele>
        <time>2026-07-07T12:38:38.406Z</time>
      </trkpt>
      <trkpt lat="49.49603" lon="1.10273">
        <ele>175</ele>
        <time>2026-07-07T12:38:42.796Z</time>
      </trkpt>
      <trkpt lat="49.49605" lon="1.10265">
        <ele>175</ele>
        <time>2026-07-07T12:38:47.319Z</time>
      </trkpt>
      <trkpt lat="49.49603" lon="1.10257">
        <ele>176</ele>
        <time>2026-07-07T12:38:51.398Z</time>
      </trkpt>
      <trkpt lat="49.49601" lon="1.10249">
        <ele>176</ele>
        <time>2026-07-07T12:38:55.896Z</time>
      </trkpt>
      <trkpt lat="49.49599" lon="1.10243">
        <ele>176</ele>
        <time>2026-07-07T12:39:00.250Z</time>
      </trkpt>
      <trkpt lat="49.49598" lon="1.10234">
        <ele>177</ele>
        <time>2026-07-07T12:39:04.692Z</time>
      </trkpt>
      <trkpt lat="49.49599" lon="1.10225">
        <ele>177</ele>
        <time>2026-07-07T12:39:09.254Z</time>
      </trkpt>
      <trkpt lat="49.496" lon="1.10217">
        <ele>177</ele>
        <time>2026-07-07T12:39:13.393Z</time>
      </trkpt>
      <trkpt lat="49.49599" lon="1.10209">
        <ele>177</ele>
        <time>2026-07-07T12:39:18.238Z</time>
      </trkpt>
      <trkpt lat="49.49598" lon="1.10202">
        <ele>178</ele>
        <time>2026-07-07T12:39:22.407Z</time>
      </trkpt>
      <trkpt lat="49.49597" lon="1.10195">
        <ele>179</ele>
        <time>2026-07-07T12:39:26.620Z</time>
      </trkpt>
      <trkpt lat="49.49596" lon="1.10188">
        <ele>179</ele>
        <time>2026-07-07T12:39:31.175Z</time>
      </trkpt>
      <trkpt lat="49.49594" lon="1.1018">
        <ele>179</ele>
        <time>2026-07-07T12:39:35.404Z</time>
      </trkpt>
      <trkpt lat="49.49593" lon="1.10172">
        <ele>179</ele>
        <time>2026-07-07T12:39:40.327Z</time>
      </trkpt>
      <trkpt lat="49.49593" lon="1.10166">
        <ele>179</ele>
        <time>2026-07-07T12:39:44.400Z</time>
      </trkpt>
      <trkpt lat="49.49593" lon="1.10159">
        <ele>179</ele>
        <time>2026-07-07T12:39:48.989Z</time>
      </trkpt>
      <trkpt lat="49.49591" lon="1.10152">
        <ele>179</ele>
        <time>2026-07-07T12:39:53.178Z</time>
      </trkpt>
      <trkpt lat="49.4959" lon="1.10143">
        <ele>179</ele>
        <time>2026-07-07T12:39:57.370Z</time>
      </trkpt>
      <trkpt lat="49.4959" lon="1.10135">
        <ele>179</ele>
        <time>2026-07-07T12:40:01.399Z</time>
      </trkpt>
      <trkpt lat="49.4959" lon="1.10125">
        <ele>179</ele>
        <time>2026-07-07T12:40:05.597Z</time>
      </trkpt>
      <trkpt lat="49.4959" lon="1.10118">
        <ele>178</ele>
        <time>2026-07-07T12:40:10.186Z</time>
      </trkpt>
      <trkpt lat="49.49589" lon="1.10111">
        <ele>178</ele>
        <time>2026-07-07T12:40:14.130Z</time>
      </trkpt>
      <trkpt lat="49.49587" lon="1.10104">
        <ele>178</ele>
        <time>2026-07-07T12:40:18.610Z</time>
      </trkpt>
      <trkpt lat="49.49584" lon="1.10097">
        <ele>177</ele>
        <time>2026-07-07T12:40:23.256Z</time>
      </trkpt>
      <trkpt lat="49.49584" lon="1.10089">
        <ele>177</ele>
        <time>2026-07-07T12:40:27.349Z</time>
      </trkpt>
      <trkpt lat="49.49584" lon="1.10079">
        <ele>177</ele>
        <time>2026-07-07T12:40:31.402Z</time>
      </trkpt>
      <trkpt lat="49.49583" lon="1.10073">
        <ele>177</ele>
        <time>2026-07-07T12:41:10.174Z</time>
      </trkpt>
      <trkpt lat="49.49582" lon="1.10068">
        <ele>176</ele>
        <time>2026-07-07T12:41:14.557Z</time>
      </trkpt>
      <trkpt lat="49.49581" lon="1.10061">
        <ele>176</ele>
        <time>2026-07-07T12:41:19.176Z</time>
      </trkpt>
      <trkpt lat="49.49582" lon="1.10055">
        <ele>176</ele>
        <time>2026-07-07T12:41:23.657Z</time>
      </trkpt>
      <trkpt lat="49.49579" lon="1.10048">
        <ele>176</ele>
        <time>2026-07-07T12:41:27.935Z</time>
      </trkpt>
      <trkpt lat="49.49573" lon="1.10044">
        <ele>176</ele>
        <time>2026-07-07T12:41:32.079Z</time>
      </trkpt>
      <trkpt lat="49.4957" lon="1.10041">
        <ele>175</ele>
        <time>2026-07-07T12:41:36.175Z</time>
      </trkpt>
      <trkpt lat="49.4957" lon="1.10035">
        <ele>175</ele>
        <time>2026-07-07T12:41:40.493Z</time>
      </trkpt>
      <trkpt lat="49.49569" lon="1.10029">
        <ele>175</ele>
        <time>2026-07-07T12:41:44.712Z</time>
      </trkpt>
      <trkpt lat="49.49568" lon="1.10021">
        <ele>175</ele>
        <time>2026-07-07T12:41:48.913Z</time>
      </trkpt>
      <trkpt lat="49.49568" lon="1.10013">
        <ele>175</ele>
        <time>2026-07-07T12:41:53.056Z</time>
      </trkpt>
      <trkpt lat="49.49569" lon="1.10006">
        <ele>175</ele>
        <time>2026-07-07T12:41:57.196Z</time>
      </trkpt>
      <trkpt lat="49.49569" lon="1.10001">
        <ele>175</ele>
        <time>2026-07-07T12:42:01.370Z</time>
      </trkpt>
      <trkpt lat="49.49572" lon="1.09994">
        <ele>174</ele>
        <time>2026-07-07T12:42:05.399Z</time>
      </trkpt>
      <trkpt lat="49.49575" lon="1.09987">
        <ele>174</ele>
        <time>2026-07-07T12:42:09.653Z</time>
      </trkpt>
      <trkpt lat="49.49576" lon="1.09978">
        <ele>173</ele>
        <time>2026-07-07T12:42:14.347Z</time>
      </trkpt>
      <trkpt lat="49.49575" lon="1.0997">
        <ele>173</ele>
        <time>2026-07-07T12:42:18.535Z</time>
      </trkpt>
      <trkpt lat="49.49573" lon="1.09962">
        <ele>173</ele>
        <time>2026-07-07T12:42:23.109Z</time>
      </trkpt>
      <trkpt lat="49.49572" lon="1.09953">
        <ele>172</ele>
        <time>2026-07-07T12:42:27.328Z</time>
      </trkpt>
      <trkpt lat="49.49572" lon="1.09944">
        <ele>172</ele>
        <time>2026-07-07T12:42:31.400Z</time>
      </trkpt>
      <trkpt lat="49.49572" lon="1.09935">
        <ele>172</ele>
        <time>2026-07-07T12:42:35.674Z</time>
      </trkpt>
      <trkpt lat="49.49571" lon="1.09927">
        <ele>171</ele>
        <time>2026-07-07T12:42:39.987Z</time>
      </trkpt>
      <trkpt lat="49.4957" lon="1.09918">
        <ele>171</ele>
        <time>2026-07-07T12:42:44.209Z</time>
      </trkpt>
      <trkpt lat="49.49565" lon="1.09914">
        <ele>174</ele>
        <time>2026-07-07T12:42:48.389Z</time>
      </trkpt>
      <trkpt lat="49.49565" lon="1.09905">
        <ele>174</ele>
        <time>2026-07-07T12:42:53.086Z</time>
      </trkpt>
      <trkpt lat="49.49566" lon="1.09897">
        <ele>174</ele>
        <time>2026-07-07T12:42:57.395Z</time>
      </trkpt>
      <trkpt lat="49.49565" lon="1.0989">
        <ele>174</ele>
        <time>2026-07-07T12:43:01.706Z</time>
      </trkpt>
      <trkpt lat="49.49564" lon="1.09883">
        <ele>174</ele>
        <time>2026-07-07T12:43:06.024Z</time>
      </trkpt>
      <trkpt lat="49.49563" lon="1.09876">
        <ele>174</ele>
        <time>2026-07-07T12:43:10.269Z</time>
      </trkpt>
      <trkpt lat="49.49562" lon="1.09869">
        <ele>174</ele>
        <time>2026-07-07T12:43:14.391Z</time>
      </trkpt>
      <trkpt lat="49.49561" lon="1.09861">
        <ele>174</ele>
        <time>2026-07-07T12:43:18.707Z</time>
      </trkpt>
      <trkpt lat="49.49561" lon="1.09854">
        <ele>174</ele>
        <time>2026-07-07T12:43:22.927Z</time>
      </trkpt>
      <trkpt lat="49.4956" lon="1.09844">
        <ele>174</ele>
        <time>2026-07-07T12:43:27.108Z</time>
      </trkpt>
      <trkpt lat="49.49559" lon="1.09835">
        <ele>174</ele>
        <time>2026-07-07T12:43:31.249Z</time>
      </trkpt>
      <trkpt lat="49.49559" lon="1.09828">
        <ele>174</ele>
        <time>2026-07-07T12:43:35.394Z</time>
      </trkpt>
      <trkpt lat="49.49557" lon="1.09822">
        <ele>174</ele>
        <time>2026-07-07T12:43:39.587Z</time>
      </trkpt>
      <trkpt lat="49.49556" lon="1.09815">
        <ele>175</ele>
        <time>2026-07-07T12:43:43.807Z</time>
      </trkpt>
      <trkpt lat="49.49556" lon="1.09806">
        <ele>175</ele>
        <time>2026-07-07T12:43:48.068Z</time>
      </trkpt>
      <trkpt lat="49.49556" lon="1.09797">
        <ele>175</ele>
        <time>2026-07-07T12:43:52.196Z</time>
      </trkpt>
      <trkpt lat="49.49556" lon="1.09789">
        <ele>174</ele>
        <time>2026-07-07T12:43:56.397Z</time>
      </trkpt>
      <trkpt lat="49.49555" lon="1.0978">
        <ele>174</ele>
        <time>2026-07-07T12:44:00.687Z</time>
      </trkpt>
      <trkpt lat="49.49555" lon="1.0977">
        <ele>174</ele>
        <time>2026-07-07T12:44:04.970Z</time>
      </trkpt>
      <trkpt lat="49.49554" lon="1.09761">
        <ele>173</ele>
        <time>2026-07-07T12:44:09.110Z</time>
      </trkpt>
      <trkpt lat="49.49553" lon="1.09753">
        <ele>173</ele>
        <time>2026-07-07T12:44:13.316Z</time>
      </trkpt>
      <trkpt lat="49.49552" lon="1.09746">
        <ele>173</ele>
        <time>2026-07-07T12:44:17.402Z</time>
      </trkpt>
      <trkpt lat="49.49552" lon="1.09738">
        <ele>173</ele>
        <time>2026-07-07T12:44:21.676Z</time>
      </trkpt>
      <trkpt lat="49.49551" lon="1.09729">
        <ele>173</ele>
        <time>2026-07-07T12:44:25.731Z</time>
      </trkpt>
      <trkpt lat="49.4955" lon="1.09722">
        <ele>173</ele>
        <time>2026-07-07T12:44:29.957Z</time>
      </trkpt>
      <trkpt lat="49.49549" lon="1.09716">
        <ele>173</ele>
        <time>2026-07-07T12:44:34.033Z</time>
      </trkpt>
      <trkpt lat="49.49549" lon="1.09709">
        <ele>173</ele>
        <time>2026-07-07T12:44:38.276Z</time>
      </trkpt>
      <trkpt lat="49.49548" lon="1.09702">
        <ele>173</ele>
        <time>2026-07-07T12:44:42.348Z</time>
      </trkpt>
      <trkpt lat="49.49547" lon="1.09695">
        <ele>173</ele>
        <time>2026-07-07T12:44:46.401Z</time>
      </trkpt>
      <trkpt lat="49.49546" lon="1.09688">
        <ele>173</ele>
        <time>2026-07-07T12:44:50.675Z</time>
      </trkpt>
      <trkpt lat="49.49546" lon="1.09682">
        <ele>173</ele>
        <time>2026-07-07T12:44:54.786Z</time>
      </trkpt>
      <trkpt lat="49.49544" lon="1.09675">
        <ele>175</ele>
        <time>2026-07-07T12:44:58.900Z</time>
      </trkpt>
      <trkpt lat="49.49544" lon="1.09668">
        <ele>175</ele>
        <time>2026-07-07T12:45:03.174Z</time>
      </trkpt>
      <trkpt lat="49.49542" lon="1.09658">
        <ele>175</ele>
        <time>2026-07-07T12:45:07.318Z</time>
      </trkpt>
      <trkpt lat="49.49541" lon="1.0965">
        <ele>177</ele>
        <time>2026-07-07T12:45:11.391Z</time>
      </trkpt>
      <trkpt lat="49.49541" lon="1.09643">
        <ele>177</ele>
        <time>2026-07-07T12:45:15.458Z</time>
      </trkpt>
      <trkpt lat="49.4954" lon="1.09635">
        <ele>177</ele>
        <time>2026-07-07T12:45:20.077Z</time>
      </trkpt>
      <trkpt lat="49.4954" lon="1.09629">
        <ele>177</ele>
        <time>2026-07-07T12:45:24.251Z</time>
      </trkpt>
      <trkpt lat="49.49539" lon="1.09622">
        <ele>178</ele>
        <time>2026-07-07T12:45:28.295Z</time>
      </trkpt>
      <trkpt lat="49.49539" lon="1.09615">
        <ele>178</ele>
        <time>2026-07-07T12:45:32.402Z</time>
      </trkpt>
      <trkpt lat="49.4954" lon="1.09609">
        <ele>178</ele>
        <time>2026-07-07T12:45:37.068Z</time>
      </trkpt>
      <trkpt lat="49.4954" lon="1.09602">
        <ele>178</ele>
        <time>2026-07-07T12:45:41.131Z</time>
      </trkpt>
      <trkpt lat="49.4954" lon="1.09594">
        <ele>177</ele>
        <time>2026-07-07T12:45:45.196Z</time>
      </trkpt>
      <trkpt lat="49.49538" lon="1.09586">
        <ele>177</ele>
        <time>2026-07-07T12:45:49.297Z</time>
      </trkpt>
      <trkpt lat="49.49537" lon="1.09578">
        <ele>177</ele>
        <time>2026-07-07T12:45:53.397Z</time>
      </trkpt>
      <trkpt lat="49.49535" lon="1.09572">
        <ele>177</ele>
        <time>2026-07-07T12:45:57.654Z</time>
      </trkpt>
      <trkpt lat="49.49534" lon="1.09565">
        <ele>177</ele>
        <time>2026-07-07T12:46:01.796Z</time>
      </trkpt>
      <trkpt lat="49.49533" lon="1.09559">
        <ele>177</ele>
        <time>2026-07-07T12:46:05.925Z</time>
      </trkpt>
      <trkpt lat="49.49532" lon="1.09552">
        <ele>177</ele>
        <time>2026-07-07T12:46:10.132Z</time>
      </trkpt>
      <trkpt lat="49.49532" lon="1.09542">
        <ele>177</ele>
        <time>2026-07-07T12:46:14.274Z</time>
      </trkpt>
      <trkpt lat="49.49533" lon="1.09532">
        <ele>176</ele>
        <time>2026-07-07T12:46:18.392Z</time>
      </trkpt>
      <trkpt lat="49.49534" lon="1.09523">
        <ele>176</ele>
        <time>2026-07-07T12:46:22.608Z</time>
      </trkpt>
      <trkpt lat="49.49534" lon="1.09516">
        <ele>176</ele>
        <time>2026-07-07T12:46:26.871Z</time>
      </trkpt>
      <trkpt lat="49.49534" lon="1.09507">
        <ele>175</ele>
        <time>2026-07-07T12:46:31.013Z</time>
      </trkpt>
      <trkpt lat="49.49533" lon="1.09497">
        <ele>175</ele>
        <time>2026-07-07T12:46:35.152Z</time>
      </trkpt>
      <trkpt lat="49.49532" lon="1.09487">
        <ele>175</ele>
        <time>2026-07-07T12:46:39.295Z</time>
      </trkpt>
      <trkpt lat="49.49529" lon="1.09479">
        <ele>174</ele>
        <time>2026-07-07T12:46:43.401Z</time>
      </trkpt>
      <trkpt lat="49.49528" lon="1.0947">
        <ele>174</ele>
        <time>2026-07-07T12:46:47.719Z</time>
      </trkpt>
      <trkpt lat="49.49527" lon="1.09462">
        <ele>174</ele>
        <time>2026-07-07T12:46:51.935Z</time>
      </trkpt>
      <trkpt lat="49.49526" lon="1.09455">
        <ele>173</ele>
        <time>2026-07-07T12:46:56.056Z</time>
      </trkpt>
      <trkpt lat="49.49526" lon="1.09447">
        <ele>173</ele>
        <time>2026-07-07T12:47:00.322Z</time>
      </trkpt>
      <trkpt lat="49.49524" lon="1.09438">
        <ele>173</ele>
        <time>2026-07-07T12:47:05.055Z</time>
      </trkpt>
      <trkpt lat="49.49523" lon="1.09431">
        <ele>173</ele>
        <time>2026-07-07T12:47:09.251Z</time>
      </trkpt>
      <trkpt lat="49.49522" lon="1.09424">
        <ele>173</ele>
        <time>2026-07-07T12:47:13.609Z</time>
      </trkpt>
      <trkpt lat="49.49521" lon="1.09416">
        <ele>173</ele>
        <time>2026-07-07T12:47:17.817Z</time>
      </trkpt>
      <trkpt lat="49.49522" lon="1.09408">
        <ele>173</ele>
        <time>2026-07-07T12:47:22.011Z</time>
      </trkpt>
      <trkpt lat="49.49523" lon="1.09401">
        <ele>173</ele>
        <time>2026-07-07T12:47:26.130Z</time>
      </trkpt>
      <trkpt lat="49.49524" lon="1.09396">
        <ele>173</ele>
        <time>2026-07-07T12:47:30.337Z</time>
      </trkpt>
      <trkpt lat="49.49522" lon="1.0939">
        <ele>173</ele>
        <time>2026-07-07T12:47:34.407Z</time>
      </trkpt>
      <trkpt lat="49.4952" lon="1.0938">
        <ele>173</ele>
        <time>2026-07-07T12:47:38.775Z</time>
      </trkpt>
      <trkpt lat="49.49518" lon="1.09372">
        <ele>173</ele>
        <time>2026-07-07T12:47:42.913Z</time>
      </trkpt>
      <trkpt lat="49.49518" lon="1.09364">
        <ele>173</ele>
        <time>2026-07-07T12:47:47.155Z</time>
      </trkpt>
      <trkpt lat="49.49517" lon="1.09356">
        <ele>173</ele>
        <time>2026-07-07T12:47:51.172Z</time>
      </trkpt>
      <trkpt lat="49.49517" lon="1.09349">
        <ele>173</ele>
        <time>2026-07-07T12:47:55.396Z</time>
      </trkpt>
      <trkpt lat="49.49516" lon="1.09342">
        <ele>172</ele>
        <time>2026-07-07T12:47:59.491Z</time>
      </trkpt>
      <trkpt lat="49.49514" lon="1.09336">
        <ele>172</ele>
        <time>2026-07-07T12:48:03.860Z</time>
      </trkpt>
      <trkpt lat="49.49514" lon="1.0933">
        <ele>172</ele>
        <time>2026-07-07T12:48:08.337Z</time>
      </trkpt>
      <trkpt lat="49.49514" lon="1.09323">
        <ele>172</ele>
        <time>2026-07-07T12:48:12.818Z</time>
      </trkpt>
      <trkpt lat="49.49512" lon="1.09318">
        <ele>170</ele>
        <time>2026-07-07T12:48:16.996Z</time>
      </trkpt>
      <trkpt lat="49.49511" lon="1.0932">
        <ele>172</ele>
        <time>2026-07-07T12:48:21.303Z</time>
      </trkpt>
      <trkpt lat="49.49511" lon="1.09321">
        <ele>172</ele>
        <time>2026-07-07T12:48:25.936Z</time>
      </trkpt>
      <trkpt lat="49.49512" lon="1.09314">
        <ele>170</ele>
        <time>2026-07-07T12:48:30.013Z</time>
      </trkpt>
      <trkpt lat="49.49511" lon="1.09308">
        <ele>170</ele>
        <time>2026-07-07T12:48:34.086Z</time>
      </trkpt>
      <trkpt lat="49.4951" lon="1.09302">
        <ele>170</ele>
        <time>2026-07-07T12:48:38.751Z</time>
      </trkpt>
      <trkpt lat="49.49509" lon="1.09295">
        <ele>170</ele>
        <time>2026-07-07T12:48:42.850Z</time>
      </trkpt>
      <trkpt lat="49.4951" lon="1.09288">
        <ele>168</ele>
        <time>2026-07-07T12:48:47.331Z</time>
      </trkpt>
      <trkpt lat="49.49508" lon="1.09282">
        <ele>168</ele>
        <time>2026-07-07T12:48:51.331Z</time>
      </trkpt>
      <trkpt lat="49.49507" lon="1.09277">
        <ele>168</ele>
        <time>2026-07-07T12:48:55.401Z</time>
      </trkpt>
      <trkpt lat="49.49507" lon="1.09269">
        <ele>168</ele>
        <time>2026-07-07T12:48:59.680Z</time>
      </trkpt>
      <trkpt lat="49.49506" lon="1.09261">
        <ele>168</ele>
        <time>2026-07-07T12:49:03.714Z</time>
      </trkpt>
      <trkpt lat="49.49506" lon="1.09254">
        <ele>168</ele>
        <time>2026-07-07T12:49:07.996Z</time>
      </trkpt>
      <trkpt lat="49.49506" lon="1.09246">
        <ele>168</ele>
        <time>2026-07-07T12:49:12.394Z</time>
      </trkpt>
      <trkpt lat="49.49505" lon="1.09239">
        <ele>168</ele>
        <time>2026-07-07T12:49:16.399Z</time>
      </trkpt>
      <trkpt lat="49.49503" lon="1.0923">
        <ele>168</ele>
        <time>2026-07-07T12:49:20.702Z</time>
      </trkpt>
      <trkpt lat="49.49501" lon="1.09223">
        <ele>168</ele>
        <time>2026-07-07T12:49:24.751Z</time>
      </trkpt>
      <trkpt lat="49.49499" lon="1.09215">
        <ele>168</ele>
        <time>2026-07-07T12:49:28.956Z</time>
      </trkpt>
      <trkpt lat="49.49498" lon="1.09207">
        <ele>167</ele>
        <time>2026-07-07T12:49:33.088Z</time>
      </trkpt>
      <trkpt lat="49.49497" lon="1.092">
        <ele>167</ele>
        <time>2026-07-07T12:49:37.216Z</time>
      </trkpt>
      <trkpt lat="49.49497" lon="1.09194">
        <ele>167</ele>
        <time>2026-07-07T12:49:41.337Z</time>
      </trkpt>
      <trkpt lat="49.49497" lon="1.09188">
        <ele>167</ele>
        <time>2026-07-07T12:49:45.396Z</time>
      </trkpt>
      <trkpt lat="49.49496" lon="1.0918">
        <ele>166</ele>
        <time>2026-07-07T12:49:49.455Z</time>
      </trkpt>
      <trkpt lat="49.49495" lon="1.09174">
        <ele>166</ele>
        <time>2026-07-07T12:49:53.694Z</time>
      </trkpt>
      <trkpt lat="49.49493" lon="1.09167">
        <ele>166</ele>
        <time>2026-07-07T12:49:57.862Z</time>
      </trkpt>
      <trkpt lat="49.49495" lon="1.09161">
        <ele>166</ele>
        <time>2026-07-07T12:50:01.977Z</time>
      </trkpt>
      <trkpt lat="49.49495" lon="1.09161">
        <ele>166</ele>
        <time>2026-07-07T12:50:06.057Z</time>
      </trkpt>
      <trkpt lat="49.49495" lon="1.09158">
        <ele>166</ele>
        <time>2026-07-07T12:50:10.659Z</time>
      </trkpt>
      <trkpt lat="49.49496" lon="1.09149">
        <ele>164</ele>
        <time>2026-07-07T12:50:14.820Z</time>
      </trkpt>
      <trkpt lat="49.49495" lon="1.09142">
        <ele>164</ele>
        <time>2026-07-07T12:50:18.862Z</time>
      </trkpt>
      <trkpt lat="49.49494" lon="1.09135">
        <ele>164</ele>
        <time>2026-07-07T12:50:23.112Z</time>
      </trkpt>
      <trkpt lat="49.49494" lon="1.09128">
        <ele>164</ele>
        <time>2026-07-07T12:50:27.192Z</time>
      </trkpt>
      <trkpt lat="49.49494" lon="1.09121">
        <ele>164</ele>
        <time>2026-07-07T12:50:31.375Z</time>
      </trkpt>
      <trkpt lat="49.49492" lon="1.09115">
        <ele>164</ele>
        <time>2026-07-07T12:50:35.571Z</time>
      </trkpt>
      <trkpt lat="49.49492" lon="1.09116">
        <ele>164</ele>
        <time>2026-07-07T12:50:39.772Z</time>
      </trkpt>
      <trkpt lat="49.49491" lon="1.09113">
        <ele>164</ele>
        <time>2026-07-07T12:50:43.817Z</time>
      </trkpt>
      <trkpt lat="49.49492" lon="1.09106">
        <ele>164</ele>
        <time>2026-07-07T12:50:47.989Z</time>
      </trkpt>
      <trkpt lat="49.49491" lon="1.09098">
        <ele>164</ele>
        <time>2026-07-07T12:50:52.068Z</time>
      </trkpt>
      <trkpt lat="49.49495" lon="1.09081">
        <ele>165</ele>
        <time>2026-07-07T12:50:56.295Z</time>
      </trkpt>
      <trkpt lat="49.49495" lon="1.09081">
        <ele>165</ele>
        <time>2026-07-07T12:51:00.321Z</time>
      </trkpt>
      <trkpt lat="49.49495" lon="1.09081">
        <ele>165</ele>
        <time>2026-07-07T12:51:04.399Z</time>
      </trkpt>
      <trkpt lat="49.49496" lon="1.0908">
        <ele>165</ele>
        <time>2026-07-07T12:51:08.580Z</time>
      </trkpt>
      <trkpt lat="49.49496" lon="1.0908">
        <ele>165</ele>
        <time>2026-07-07T12:51:12.823Z</time>
      </trkpt>
      <trkpt lat="49.49498" lon="1.09068">
        <ele>166</ele>
        <time>2026-07-07T12:51:16.895Z</time>
      </trkpt>
      <trkpt lat="49.49498" lon="1.09067">
        <ele>166</ele>
        <time>2026-07-07T12:51:21.070Z</time>
      </trkpt>
      <trkpt lat="49.49499" lon="1.09061">
        <ele>166</ele>
        <time>2026-07-07T12:51:25.147Z</time>
      </trkpt>
      <trkpt lat="49.49502" lon="1.0906">
        <ele>166</ele>
        <time>2026-07-07T12:51:29.409Z</time>
      </trkpt>
      <trkpt lat="49.49502" lon="1.09061">
        <ele>166</ele>
        <time>2026-07-07T12:51:33.467Z</time>
      </trkpt>
      <trkpt lat="49.49503" lon="1.09061">
        <ele>166</ele>
        <time>2026-07-07T12:51:37.716Z</time>
      </trkpt>
      <trkpt lat="49.49508" lon="1.09063">
        <ele>166</ele>
        <time>2026-07-07T12:51:41.850Z</time>
      </trkpt>
      <trkpt lat="49.49513" lon="1.09066">
        <ele>166</ele>
        <time>2026-07-07T12:51:46.070Z</time>
      </trkpt>
      <trkpt lat="49.49519" lon="1.09066">
        <ele>166</ele>
        <time>2026-07-07T12:51:50.170Z</time>
      </trkpt>
      <trkpt lat="49.49528" lon="1.09065">
        <ele>166</ele>
        <time>2026-07-07T12:51:54.372Z</time>
      </trkpt>
      <trkpt lat="49.49534" lon="1.09064">
        <ele>166</ele>
        <time>2026-07-07T12:51:58.397Z</time>
      </trkpt>
      <trkpt lat="49.49539" lon="1.09062">
        <ele>166</ele>
        <time>2026-07-07T12:52:02.679Z</time>
      </trkpt>
      <trkpt lat="49.49543" lon="1.09058">
        <ele>166</ele>
        <time>2026-07-07T12:52:06.839Z</time>
      </trkpt>
      <trkpt lat="49.49547" lon="1.09056">
        <ele>166</ele>
        <time>2026-07-07T12:52:10.976Z</time>
      </trkpt>
      <trkpt lat="49.49551" lon="1.09058">
        <ele>166</ele>
        <time>2026-07-07T12:52:15.193Z</time>
      </trkpt>
      <trkpt lat="49.49555" lon="1.09061">
        <ele>166</ele>
        <time>2026-07-07T12:52:19.375Z</time>
      </trkpt>
      <trkpt lat="49.49559" lon="1.09064">
        <ele>166</ele>
        <time>2026-07-07T12:52:23.526Z</time>
      </trkpt>
      <trkpt lat="49.49564" lon="1.09066">
        <ele>166</ele>
        <time>2026-07-07T12:52:27.693Z</time>
      </trkpt>
      <trkpt lat="49.49569" lon="1.09068">
        <ele>166</ele>
        <time>2026-07-07T12:52:31.776Z</time>
      </trkpt>
      <trkpt lat="49.49573" lon="1.0907">
        <ele>164</ele>
        <time>2026-07-07T12:52:36.011Z</time>
      </trkpt>
      <trkpt lat="49.49576" lon="1.09069">
        <ele>164</ele>
        <time>2026-07-07T12:52:40.057Z</time>
      </trkpt>
      <trkpt lat="49.49578" lon="1.09067">
        <ele>164</ele>
        <time>2026-07-07T12:52:44.251Z</time>
      </trkpt>
      <trkpt lat="49.49582" lon="1.09063">
        <ele>164</ele>
        <time>2026-07-07T12:52:48.320Z</time>
      </trkpt>
      <trkpt lat="49.49585" lon="1.09065">
        <ele>164</ele>
        <time>2026-07-07T12:52:52.405Z</time>
      </trkpt>
      <trkpt lat="49.49589" lon="1.09068">
        <ele>164</ele>
        <time>2026-07-07T12:52:56.634Z</time>
      </trkpt>
      <trkpt lat="49.49594" lon="1.09068">
        <ele>164</ele>
        <time>2026-07-07T12:53:00.811Z</time>
      </trkpt>
      <trkpt lat="49.49599" lon="1.0907">
        <ele>161</ele>
        <time>2026-07-07T12:53:04.976Z</time>
      </trkpt>
      <trkpt lat="49.49604" lon="1.09072">
        <ele>161</ele>
        <time>2026-07-07T12:53:09.158Z</time>
      </trkpt>
      <trkpt lat="49.49609" lon="1.09075">
        <ele>161</ele>
        <time>2026-07-07T12:53:13.295Z</time>
      </trkpt>
      <trkpt lat="49.49615" lon="1.09077">
        <ele>161</ele>
        <time>2026-07-07T12:53:17.352Z</time>
      </trkpt>
      <trkpt lat="49.49622" lon="1.09078">
        <ele>161</ele>
        <time>2026-07-07T12:53:21.398Z</time>
      </trkpt>
      <trkpt lat="49.49628" lon="1.09077">
        <ele>159</ele>
        <time>2026-07-07T12:53:25.635Z</time>
      </trkpt>
      <trkpt lat="49.49634" lon="1.09076">
        <ele>159</ele>
        <time>2026-07-07T12:53:29.717Z</time>
      </trkpt>
      <trkpt lat="49.49639" lon="1.09074">
        <ele>159</ele>
        <time>2026-07-07T12:53:33.988Z</time>
      </trkpt>
      <trkpt lat="49.49644" lon="1.09071">
        <ele>159</ele>
        <time>2026-07-07T12:53:38.170Z</time>
      </trkpt>
      <trkpt lat="49.49648" lon="1.09069">
        <ele>158</ele>
        <time>2026-07-07T12:53:42.399Z</time>
      </trkpt>
      <trkpt lat="49.49652" lon="1.09068">
        <ele>158</ele>
        <time>2026-07-07T12:53:46.588Z</time>
      </trkpt>
      <trkpt lat="49.49656" lon="1.09064">
        <ele>157</ele>
        <time>2026-07-07T12:53:50.737Z</time>
      </trkpt>
      <trkpt lat="49.49661" lon="1.09061">
        <ele>157</ele>
        <time>2026-07-07T12:53:54.849Z</time>
      </trkpt>
      <trkpt lat="49.49667" lon="1.0906">
        <ele>157</ele>
        <time>2026-07-07T12:53:59.079Z</time>
      </trkpt>
      <trkpt lat="49.49672" lon="1.09058">
        <ele>157</ele>
        <time>2026-07-07T12:54:03.100Z</time>
      </trkpt>
      <trkpt lat="49.49677" lon="1.09056">
        <ele>157</ele>
        <time>2026-07-07T12:54:07.295Z</time>
      </trkpt>
      <trkpt lat="49.49679" lon="1.09054">
        <ele>157</ele>
        <time>2026-07-07T12:54:11.391Z</time>
      </trkpt>
      <trkpt lat="49.49681" lon="1.09046">
        <ele>156</ele>
        <time>2026-07-07T12:54:15.669Z</time>
      </trkpt>
      <trkpt lat="49.49683" lon="1.0904">
        <ele>156</ele>
        <time>2026-07-07T12:54:19.877Z</time>
      </trkpt>
      <trkpt lat="49.49683" lon="1.09033">
        <ele>156</ele>
        <time>2026-07-07T12:54:24.048Z</time>
      </trkpt>
      <trkpt lat="49.49683" lon="1.09028">
        <ele>156</ele>
        <time>2026-07-07T12:54:28.257Z</time>
      </trkpt>
      <trkpt lat="49.4969" lon="1.09025">
        <ele>156</ele>
        <time>2026-07-07T12:54:33.114Z</time>
      </trkpt>
      <trkpt lat="49.49695" lon="1.09026">
        <ele>156</ele>
        <time>2026-07-07T12:54:37.293Z</time>
      </trkpt>
      <trkpt lat="49.49701" lon="1.09025">
        <ele>156</ele>
        <time>2026-07-07T12:54:45.385Z</time>
      </trkpt>
      <trkpt lat="49.49708" lon="1.09025">
        <ele>156</ele>
        <time>2026-07-07T12:54:49.393Z</time>
      </trkpt>
      <trkpt lat="49.49715" lon="1.09025">
        <ele>152</ele>
        <time>2026-07-07T12:54:53.993Z</time>
      </trkpt>
      <trkpt lat="49.49721" lon="1.09026">
        <ele>152</ele>
        <time>2026-07-07T12:54:58.329Z</time>
      </trkpt>
      <trkpt lat="49.49728" lon="1.09025">
        <ele>152</ele>
        <time>2026-07-07T12:55:02.394Z</time>
      </trkpt>
      <trkpt lat="49.49733" lon="1.09023">
        <ele>152</ele>
        <time>2026-07-07T12:55:06.885Z</time>
      </trkpt>
      <trkpt lat="49.49738" lon="1.09021">
        <ele>149</ele>
        <time>2026-07-07T12:55:11.338Z</time>
      </trkpt>
      <trkpt lat="49.49743" lon="1.09019">
        <ele>149</ele>
        <time>2026-07-07T12:55:15.387Z</time>
      </trkpt>
      <trkpt lat="49.49746" lon="1.09014">
        <ele>149</ele>
        <time>2026-07-07T12:55:19.712Z</time>
      </trkpt>
      <trkpt lat="49.4975" lon="1.0901">
        <ele>149</ele>
        <time>2026-07-07T12:55:23.972Z</time>
      </trkpt>
      <trkpt lat="49.49755" lon="1.09008">
        <ele>149</ele>
        <time>2026-07-07T12:55:28.400Z</time>
      </trkpt>
      <trkpt lat="49.49757" lon="1.09004">
        <ele>149</ele>
        <time>2026-07-07T12:55:32.599Z</time>
      </trkpt>
      <trkpt lat="49.49761" lon="1.09">
        <ele>149</ele>
        <time>2026-07-07T12:55:37.013Z</time>
      </trkpt>
      <trkpt lat="49.49765" lon="1.08997">
        <ele>146</ele>
        <time>2026-07-07T12:55:41.317Z</time>
      </trkpt>
      <trkpt lat="49.49769" lon="1.08994">
        <ele>146</ele>
        <time>2026-07-07T12:55:45.398Z</time>
      </trkpt>
      <trkpt lat="49.49774" lon="1.08992">
        <ele>146</ele>
        <time>2026-07-07T12:55:49.371Z</time>
      </trkpt>
      <trkpt lat="49.49778" lon="1.08989">
        <ele>146</ele>
        <time>2026-07-07T12:55:53.714Z</time>
      </trkpt>
      <trkpt lat="49.49782" lon="1.08985">
        <ele>146</ele>
        <time>2026-07-07T12:55:58.114Z</time>
      </trkpt>
      <trkpt lat="49.49787" lon="1.08981">
        <ele>146</ele>
        <time>2026-07-07T12:56:02.256Z</time>
      </trkpt>
      <trkpt lat="49.4979" lon="1.08976">
        <ele>146</ele>
        <time>2026-07-07T12:56:06.686Z</time>
      </trkpt>
      <trkpt lat="49.49793" lon="1.08971">
        <ele>144</ele>
        <time>2026-07-07T12:56:10.947Z</time>
      </trkpt>
      <trkpt lat="49.49797" lon="1.08968">
        <ele>144</ele>
        <time>2026-07-07T12:56:15.385Z</time>
      </trkpt>
      <trkpt lat="49.498" lon="1.08966">
        <ele>144</ele>
        <time>2026-07-07T12:56:19.513Z</time>
      </trkpt>
      <trkpt lat="49.49803" lon="1.08962">
        <ele>144</ele>
        <time>2026-07-07T12:56:23.754Z</time>
      </trkpt>
      <trkpt lat="49.49808" lon="1.08959">
        <ele>144</ele>
        <time>2026-07-07T12:56:27.831Z</time>
      </trkpt>
      <trkpt lat="49.49813" lon="1.08956">
        <ele>144</ele>
        <time>2026-07-07T12:56:32.397Z</time>
      </trkpt>
      <trkpt lat="49.49818" lon="1.08953">
        <ele>144</ele>
        <time>2026-07-07T12:56:36.774Z</time>
      </trkpt>
      <trkpt lat="49.49823" lon="1.0895">
        <ele>140</ele>
        <time>2026-07-07T12:56:40.934Z</time>
      </trkpt>
      <trkpt lat="49.49827" lon="1.08947">
        <ele>140</ele>
        <time>2026-07-07T12:56:45.158Z</time>
      </trkpt>
      <trkpt lat="49.49831" lon="1.08943">
        <ele>140</ele>
        <time>2026-07-07T12:56:49.307Z</time>
      </trkpt>
      <trkpt lat="49.49836" lon="1.08941">
        <ele>140</ele>
        <time>2026-07-07T12:56:53.389Z</time>
      </trkpt>
      <trkpt lat="49.49841" lon="1.08939">
        <ele>140</ele>
        <time>2026-07-07T12:56:57.401Z</time>
      </trkpt>
      <trkpt lat="49.49845" lon="1.08934">
        <ele>140</ele>
        <time>2026-07-07T12:57:02.173Z</time>
      </trkpt>
      <trkpt lat="49.49848" lon="1.08927">
        <ele>136</ele>
        <time>2026-07-07T12:57:06.392Z</time>
      </trkpt>
      <trkpt lat="49.49849" lon="1.0892">
        <ele>136</ele>
        <time>2026-07-07T12:57:10.745Z</time>
      </trkpt>
      <trkpt lat="49.49852" lon="1.08915">
        <ele>136</ele>
        <time>2026-07-07T12:57:14.770Z</time>
      </trkpt>
      <trkpt lat="49.49854" lon="1.08911">
        <ele>136</ele>
        <time>2026-07-07T12:57:19.206Z</time>
      </trkpt>
      <trkpt lat="49.49858" lon="1.08907">
        <ele>136</ele>
        <time>2026-07-07T12:58:30.392Z</time>
      </trkpt>
      <trkpt lat="49.49861" lon="1.08906">
        <ele>136</ele>
        <time>2026-07-07T12:58:35.391Z</time>
      </trkpt>
      <trkpt lat="49.49863" lon="1.08899">
        <ele>136</ele>
        <time>2026-07-07T12:58:42.391Z</time>
      </trkpt>
      <trkpt lat="49.4986" lon="1.08888">
        <ele>136</ele>
        <time>2026-07-07T12:58:46.395Z</time>
      </trkpt>
      <trkpt lat="49.49862" lon="1.08885">
        <ele>136</ele>
        <time>2026-07-07T12:58:51.397Z</time>
      </trkpt>
      <trkpt lat="49.49868" lon="1.08887">
        <ele>136</ele>
        <time>2026-07-07T12:59:14.388Z</time>
      </trkpt>
      <trkpt lat="49.49873" lon="1.0889">
        <ele>136</ele>
        <time>2026-07-07T12:59:18.385Z</time>
      </trkpt>
      <trkpt lat="49.49879" lon="1.08888">
        <ele>134</ele>
        <time>2026-07-07T12:59:23.386Z</time>
      </trkpt>
      <trkpt lat="49.49884" lon="1.08886">
        <ele>134</ele>
        <time>2026-07-07T12:59:28.396Z</time>
      </trkpt>
      <trkpt lat="49.49888" lon="1.0888">
        <ele>134</ele>
        <time>2026-07-07T12:59:33.395Z</time>
      </trkpt>
      <trkpt lat="49.49892" lon="1.08874">
        <ele>132</ele>
        <time>2026-07-07T12:59:37.976Z</time>
      </trkpt>
      <trkpt lat="49.49895" lon="1.08868">
        <ele>132</ele>
        <time>2026-07-07T12:59:42.395Z</time>
      </trkpt>
      <trkpt lat="49.49898" lon="1.08863">
        <ele>132</ele>
        <time>2026-07-07T12:59:46.545Z</time>
      </trkpt>
      <trkpt lat="49.49901" lon="1.08858">
        <ele>132</ele>
        <time>2026-07-07T12:59:50.676Z</time>
      </trkpt>
      <trkpt lat="49.49906" lon="1.08854">
        <ele>128</ele>
        <time>2026-07-07T12:59:55.318Z</time>
      </trkpt>
      <trkpt lat="49.49912" lon="1.08853">
        <ele>128</ele>
        <time>2026-07-07T13:00:00.100Z</time>
      </trkpt>
      <trkpt lat="49.49917" lon="1.08853">
        <ele>128</ele>
        <time>2026-07-07T13:00:04.261Z</time>
      </trkpt>
      <trkpt lat="49.49921" lon="1.08851">
        <ele>128</ele>
        <time>2026-07-07T13:00:08.394Z</time>
      </trkpt>
      <trkpt lat="49.49923" lon="1.08853">
        <ele>128</ele>
        <time>2026-07-07T13:00:13.035Z</time>
      </trkpt>
      <trkpt lat="49.4992" lon="1.08858">
        <ele>128</ele>
        <time>2026-07-07T13:00:17.331Z</time>
      </trkpt>
      <trkpt lat="49.49917" lon="1.08853">
        <ele>128</ele>
        <time>2026-07-07T13:00:21.815Z</time>
      </trkpt>
      <trkpt lat="49.49913" lon="1.08849">
        <ele>128</ele>
        <time>2026-07-07T13:00:26.149Z</time>
      </trkpt>
      <trkpt lat="49.49913" lon="1.08847">
        <ele>127</ele>
        <time>2026-07-07T13:00:30.388Z</time>
      </trkpt>
      <trkpt lat="49.49913" lon="1.08847">
        <ele>127</ele>
        <time>2026-07-07T13:00:34.912Z</time>
      </trkpt>
      <trkpt lat="49.4991" lon="1.08836">
        <ele>127</ele>
        <time>2026-07-07T13:00:39.256Z</time>
      </trkpt>
      <trkpt lat="49.49908" lon="1.08832">
        <ele>127</ele>
        <time>2026-07-07T13:00:43.673Z</time>
      </trkpt>
      <trkpt lat="49.49906" lon="1.0883">
        <ele>127</ele>
        <time>2026-07-07T13:00:48.036Z</time>
      </trkpt>
      <trkpt lat="49.49907" lon="1.08822">
        <ele>127</ele>
        <time>2026-07-07T13:00:52.340Z</time>
      </trkpt>
      <trkpt lat="49.49908" lon="1.08816">
        <ele>126</ele>
        <time>2026-07-07T13:00:56.612Z</time>
      </trkpt>
      <trkpt lat="49.49911" lon="1.08808">
        <ele>126</ele>
        <time>2026-07-07T13:01:00.937Z</time>
      </trkpt>
      <trkpt lat="49.49913" lon="1.08804">
        <ele>126</ele>
        <time>2026-07-07T13:01:05.198Z</time>
      </trkpt>
      <trkpt lat="49.49915" lon="1.08798">
        <ele>126</ele>
        <time>2026-07-07T13:01:09.390Z</time>
      </trkpt>
      <trkpt lat="49.49915" lon="1.08795">
        <ele>126</ele>
        <time>2026-07-07T13:01:13.793Z</time>
      </trkpt>
      <trkpt lat="49.49914" lon="1.08793">
        <ele>126</ele>
        <time>2026-07-07T13:01:17.913Z</time>
      </trkpt>
      <trkpt lat="49.49913" lon="1.0879">
        <ele>127</ele>
        <time>2026-07-07T13:01:22.175Z</time>
      </trkpt>
      <trkpt lat="49.49912" lon="1.08787">
        <ele>127</ele>
        <time>2026-07-07T13:01:26.379Z</time>
      </trkpt>
      <trkpt lat="49.49908" lon="1.08785">
        <ele>127</ele>
        <time>2026-07-07T13:01:30.393Z</time>
      </trkpt>
      <trkpt lat="49.49904" lon="1.08781">
        <ele>127</ele>
        <time>2026-07-07T13:01:34.755Z</time>
      </trkpt>
      <trkpt lat="49.49904" lon="1.08776">
        <ele>127</ele>
        <time>2026-07-07T13:01:38.958Z</time>
      </trkpt>
      <trkpt lat="49.49904" lon="1.08772">
        <ele>127</ele>
        <time>2026-07-07T13:01:43.137Z</time>
      </trkpt>
      <trkpt lat="49.49904" lon="1.08767">
        <ele>127</ele>
        <time>2026-07-07T13:01:47.400Z</time>
      </trkpt>
      <trkpt lat="49.49903" lon="1.08762">
        <ele>128</ele>
        <time>2026-07-07T13:01:51.723Z</time>
      </trkpt>
      <trkpt lat="49.49903" lon="1.08756">
        <ele>128</ele>
        <time>2026-07-07T13:01:56.018Z</time>
      </trkpt>
      <trkpt lat="49.49902" lon="1.08752">
        <ele>132</ele>
        <time>2026-07-07T13:02:00.354Z</time>
      </trkpt>
      <trkpt lat="49.49902" lon="1.08748">
        <ele>132</ele>
        <time>2026-07-07T13:02:04.576Z</time>
      </trkpt>
      <trkpt lat="49.49902" lon="1.08743">
        <ele>132</ele>
        <time>2026-07-07T13:02:08.782Z</time>
      </trkpt>
      <trkpt lat="49.49901" lon="1.08741">
        <ele>132</ele>
        <time>2026-07-07T13:02:13.386Z</time>
      </trkpt>
      <trkpt lat="49.49897" lon="1.08731">
        <ele>134</ele>
        <time>2026-07-07T13:02:17.690Z</time>
      </trkpt>
      <trkpt lat="49.49898" lon="1.08729">
        <ele>134</ele>
        <time>2026-07-07T13:02:21.830Z</time>
      </trkpt>
      <trkpt lat="49.499" lon="1.08722">
        <ele>134</ele>
        <time>2026-07-07T13:02:25.914Z</time>
      </trkpt>
      <trkpt lat="49.49901" lon="1.08717">
        <ele>134</ele>
        <time>2026-07-07T13:02:30.033Z</time>
      </trkpt>
      <trkpt lat="49.499" lon="1.08712">
        <ele>134</ele>
        <time>2026-07-07T13:02:34.001Z</time>
      </trkpt>
      <trkpt lat="49.49893" lon="1.08715">
        <ele>134</ele>
        <time>2026-07-07T13:02:38.159Z</time>
      </trkpt>
      <trkpt lat="49.49892" lon="1.08715">
        <ele>134</ele>
        <time>2026-07-07T13:02:42.399Z</time>
      </trkpt>
      <trkpt lat="49.49892" lon="1.08717">
        <ele>134</ele>
        <time>2026-07-07T13:02:46.636Z</time>
      </trkpt>
      <trkpt lat="49.49892" lon="1.08717">
        <ele>134</ele>
        <time>2026-07-07T13:02:50.785Z</time>
      </trkpt>
      <trkpt lat="49.4989" lon="1.08716">
        <ele>134</ele>
        <time>2026-07-07T13:02:54.808Z</time>
      </trkpt>
      <trkpt lat="49.4989" lon="1.08717">
        <ele>134</ele>
        <time>2026-07-07T13:02:59.035Z</time>
      </trkpt>
      <trkpt lat="49.4989" lon="1.08717">
        <ele>134</ele>
        <time>2026-07-07T13:03:03.258Z</time>
      </trkpt>
      <trkpt lat="49.49891" lon="1.08706">
        <ele>136</ele>
        <time>2026-07-07T13:03:07.398Z</time>
      </trkpt>
      <trkpt lat="49.49893" lon="1.08699">
        <ele>136</ele>
        <time>2026-07-07T13:03:11.911Z</time>
      </trkpt>
      <trkpt lat="49.49896" lon="1.08695">
        <ele>136</ele>
        <time>2026-07-07T13:03:15.931Z</time>
      </trkpt>
      <trkpt lat="49.49896" lon="1.08688">
        <ele>136</ele>
        <time>2026-07-07T13:03:20.011Z</time>
      </trkpt>
      <trkpt lat="49.49894" lon="1.08679">
        <ele>138</ele>
        <time>2026-07-07T13:03:24.057Z</time>
      </trkpt>
      <trkpt lat="49.49892" lon="1.08671">
        <ele>138</ele>
        <time>2026-07-07T13:03:28.157Z</time>
      </trkpt>
      <trkpt lat="49.4989" lon="1.0866">
        <ele>138</ele>
        <time>2026-07-07T13:03:32.396Z</time>
      </trkpt>
      <trkpt lat="49.49891" lon="1.08653">
        <ele>138</ele>
        <time>2026-07-07T13:03:36.718Z</time>
      </trkpt>
      <trkpt lat="49.4989" lon="1.08647">
        <ele>139</ele>
        <time>2026-07-07T13:03:41.057Z</time>
      </trkpt>
      <trkpt lat="49.49887" lon="1.08642">
        <ele>139</ele>
        <time>2026-07-07T13:03:45.320Z</time>
      </trkpt>
      <trkpt lat="49.49884" lon="1.08636">
        <ele>139</ele>
        <time>2026-07-07T13:03:49.606Z</time>
      </trkpt>
      <trkpt lat="49.49883" lon="1.08629">
        <ele>139</ele>
        <time>2026-07-07T13:03:53.820Z</time>
      </trkpt>
      <trkpt lat="49.49883" lon="1.0862">
        <ele>140</ele>
        <time>2026-07-07T13:03:58.057Z</time>
      </trkpt>
      <trkpt lat="49.4988" lon="1.08612">
        <ele>140</ele>
        <time>2026-07-07T13:04:02.321Z</time>
      </trkpt>
      <trkpt lat="49.4988" lon="1.08604">
        <ele>140</ele>
        <time>2026-07-07T13:04:06.396Z</time>
      </trkpt>
      <trkpt lat="49.4988" lon="1.08596">
        <ele>139</ele>
        <time>2026-07-07T13:04:10.796Z</time>
      </trkpt>
      <trkpt lat="49.49879" lon="1.0859">
        <ele>139</ele>
        <time>2026-07-07T13:04:15.100Z</time>
      </trkpt>
      <trkpt lat="49.49878" lon="1.08582">
        <ele>139</ele>
        <time>2026-07-07T13:04:19.319Z</time>
      </trkpt>
      <trkpt lat="49.49876" lon="1.08577">
        <ele>139</ele>
        <time>2026-07-07T13:04:23.392Z</time>
      </trkpt>
      <trkpt lat="49.49875" lon="1.08573">
        <ele>139</ele>
        <time>2026-07-07T13:04:27.746Z</time>
      </trkpt>
      <trkpt lat="49.49875" lon="1.08566">
        <ele>139</ele>
        <time>2026-07-07T13:04:31.873Z</time>
      </trkpt>
      <trkpt lat="49.49875" lon="1.08559">
        <ele>143</ele>
        <time>2026-07-07T13:04:36.057Z</time>
      </trkpt>
      <trkpt lat="49.49874" lon="1.08553">
        <ele>143</ele>
        <time>2026-07-07T13:04:40.295Z</time>
      </trkpt>
      <trkpt lat="49.49873" lon="1.08546">
        <ele>143</ele>
        <time>2026-07-07T13:04:44.397Z</time>
      </trkpt>
      <trkpt lat="49.4987" lon="1.08538">
        <ele>143</ele>
        <time>2026-07-07T13:04:48.637Z</time>
      </trkpt>
      <trkpt lat="49.4987" lon="1.0853">
        <ele>143</ele>
        <time>2026-07-07T13:04:52.769Z</time>
      </trkpt>
      <trkpt lat="49.4987" lon="1.08521">
        <ele>143</ele>
        <time>2026-07-07T13:04:57.033Z</time>
      </trkpt>
      <trkpt lat="49.4987" lon="1.08513">
        <ele>143</ele>
        <time>2026-07-07T13:05:01.171Z</time>
      </trkpt>
      <trkpt lat="49.49868" lon="1.08507">
        <ele>143</ele>
        <time>2026-07-07T13:05:05.372Z</time>
      </trkpt>
      <trkpt lat="49.49867" lon="1.08502">
        <ele>143</ele>
        <time>2026-07-07T13:05:09.549Z</time>
      </trkpt>
      <trkpt lat="49.49865" lon="1.08497">
        <ele>143</ele>
        <time>2026-07-07T13:05:13.718Z</time>
      </trkpt>
      <trkpt lat="49.49865" lon="1.08491">
        <ele>143</ele>
        <time>2026-07-07T13:05:17.931Z</time>
      </trkpt>
      <trkpt lat="49.49864" lon="1.08484">
        <ele>143</ele>
        <time>2026-07-07T13:05:22.252Z</time>
      </trkpt>
      <trkpt lat="49.49863" lon="1.08478">
        <ele>143</ele>
        <time>2026-07-07T13:05:26.236Z</time>
      </trkpt>
      <trkpt lat="49.49861" lon="1.08471">
        <ele>143</ele>
        <time>2026-07-07T13:05:30.372Z</time>
      </trkpt>
      <trkpt lat="49.4986" lon="1.08464">
        <ele>143</ele>
        <time>2026-07-07T13:05:34.408Z</time>
      </trkpt>
      <trkpt lat="49.4986" lon="1.08455">
        <ele>142</ele>
        <time>2026-07-07T13:05:38.387Z</time>
      </trkpt>
      <trkpt lat="49.49858" lon="1.08446">
        <ele>142</ele>
        <time>2026-07-07T13:05:42.597Z</time>
      </trkpt>
      <trkpt lat="49.49856" lon="1.0844">
        <ele>142</ele>
        <time>2026-07-07T13:05:46.896Z</time>
      </trkpt>
      <trkpt lat="49.49855" lon="1.08434">
        <ele>142</ele>
        <time>2026-07-07T13:05:51.100Z</time>
      </trkpt>
      <trkpt lat="49.49854" lon="1.08428">
        <ele>142</ele>
        <time>2026-07-07T13:05:55.261Z</time>
      </trkpt>
      <trkpt lat="49.49852" lon="1.08419">
        <ele>142</ele>
        <time>2026-07-07T13:05:59.390Z</time>
      </trkpt>
      <trkpt lat="49.4985" lon="1.0841">
        <ele>142</ele>
        <time>2026-07-07T13:06:03.715Z</time>
      </trkpt>
      <trkpt lat="49.49851" lon="1.08402">
        <ele>142</ele>
        <time>2026-07-07T13:06:07.920Z</time>
      </trkpt>
      <trkpt lat="49.49851" lon="1.08396">
        <ele>142</ele>
        <time>2026-07-07T13:06:12.264Z</time>
      </trkpt>
      <trkpt lat="49.49849" lon="1.08388">
        <ele>142</ele>
        <time>2026-07-07T13:06:16.391Z</time>
      </trkpt>
      <trkpt lat="49.49846" lon="1.08381">
        <ele>144</ele>
        <time>2026-07-07T13:06:20.775Z</time>
      </trkpt>
      <trkpt lat="49.49846" lon="1.08374">
        <ele>144</ele>
        <time>2026-07-07T13:06:25.351Z</time>
      </trkpt>
      <trkpt lat="49.49845" lon="1.08367">
        <ele>144</ele>
        <time>2026-07-07T13:06:29.557Z</time>
      </trkpt>
      <trkpt lat="49.49845" lon="1.08359">
        <ele>144</ele>
        <time>2026-07-07T13:06:33.796Z</time>
      </trkpt>
      <trkpt lat="49.49844" lon="1.08351">
        <ele>144</ele>
        <time>2026-07-07T13:06:38.305Z</time>
      </trkpt>
      <trkpt lat="49.49842" lon="1.08344">
        <ele>143</ele>
        <time>2026-07-07T13:08:03.402Z</time>
      </trkpt>
      <trkpt lat="49.49841" lon="1.08338">
        <ele>143</ele>
        <time>2026-07-07T13:08:07.394Z</time>
      </trkpt>
      <trkpt lat="49.49838" lon="1.08333">
        <ele>143</ele>
        <time>2026-07-07T13:08:12.389Z</time>
      </trkpt>
      <trkpt lat="49.49835" lon="1.08328">
        <ele>143</ele>
        <time>2026-07-07T13:08:17.388Z</time>
      </trkpt>
      <trkpt lat="49.49834" lon="1.0832">
        <ele>143</ele>
        <time>2026-07-07T13:08:24.356Z</time>
      </trkpt>
      <trkpt lat="49.49834" lon="1.08309">
        <ele>141</ele>
        <time>2026-07-07T13:09:26.935Z</time>
      </trkpt>
      <trkpt lat="49.49834" lon="1.08303">
        <ele>141</ele>
        <time>2026-07-07T13:09:31.390Z</time>
      </trkpt>
      <trkpt lat="49.49834" lon="1.08294">
        <ele>141</ele>
        <time>2026-07-07T13:09:36.145Z</time>
      </trkpt>
      <trkpt lat="49.49833" lon="1.08284">
        <ele>140</ele>
        <time>2026-07-07T13:09:40.391Z</time>
      </trkpt>
      <trkpt lat="49.49832" lon="1.08278">
        <ele>140</ele>
        <time>2026-07-07T13:09:44.312Z</time>
      </trkpt>
      <trkpt lat="49.4983" lon="1.08271">
        <ele>140</ele>
        <time>2026-07-07T13:09:49.178Z</time>
      </trkpt>
      <trkpt lat="49.49827" lon="1.08265">
        <ele>140</ele>
        <time>2026-07-07T13:09:53.396Z</time>
      </trkpt>
      <trkpt lat="49.49825" lon="1.08259">
        <ele>140</ele>
        <time>2026-07-07T13:09:58.118Z</time>
      </trkpt>
      <trkpt lat="49.49823" lon="1.08253">
        <ele>140</ele>
        <time>2026-07-07T13:10:02.396Z</time>
      </trkpt>
      <trkpt lat="49.49822" lon="1.08248">
        <ele>140</ele>
        <time>2026-07-07T13:10:07.029Z</time>
      </trkpt>
      <trkpt lat="49.49823" lon="1.0824">
        <ele>140</ele>
        <time>2026-07-07T13:10:11.392Z</time>
      </trkpt>
      <trkpt lat="49.49823" lon="1.08233">
        <ele>140</ele>
        <time>2026-07-07T13:10:16.073Z</time>
      </trkpt>
      <trkpt lat="49.49824" lon="1.08226">
        <ele>140</ele>
        <time>2026-07-07T13:10:20.386Z</time>
      </trkpt>
      <trkpt lat="49.49825" lon="1.08219">
        <ele>140</ele>
        <time>2026-07-07T13:10:24.998Z</time>
      </trkpt>
      <trkpt lat="49.49824" lon="1.08214">
        <ele>140</ele>
        <time>2026-07-07T13:10:29.389Z</time>
      </trkpt>
      <trkpt lat="49.49822" lon="1.08209">
        <ele>140</ele>
        <time>2026-07-07T13:10:33.390Z</time>
      </trkpt>
      <trkpt lat="49.4982" lon="1.08204">
        <ele>139</ele>
        <time>2026-07-07T13:10:37.393Z</time>
      </trkpt>
      <trkpt lat="49.49819" lon="1.08195">
        <ele>142</ele>
        <time>2026-07-07T13:10:42.271Z</time>
      </trkpt>
      <trkpt lat="49.4982" lon="1.08188">
        <ele>139</ele>
        <time>2026-07-07T13:10:46.398Z</time>
      </trkpt>
      <trkpt lat="49.49818" lon="1.08181">
        <ele>142</ele>
        <time>2026-07-07T13:10:51.397Z</time>
      </trkpt>
      <trkpt lat="49.49817" lon="1.08171">
        <ele>140</ele>
        <time>2026-07-07T13:10:56.253Z</time>
      </trkpt>
      <trkpt lat="49.49815" lon="1.08162">
        <ele>140</ele>
        <time>2026-07-07T13:11:00.391Z</time>
      </trkpt>
      <trkpt lat="49.49813" lon="1.08156">
        <ele>140</ele>
        <time>2026-07-07T13:11:05.383Z</time>
      </trkpt>
      <trkpt lat="49.4981" lon="1.08149">
        <ele>138</ele>
        <time>2026-07-07T13:12:01.395Z</time>
      </trkpt>
      <trkpt lat="49.49808" lon="1.08143">
        <ele>138</ele>
        <time>2026-07-07T13:12:05.390Z</time>
      </trkpt>
      <trkpt lat="49.49808" lon="1.08136">
        <ele>138</ele>
        <time>2026-07-07T13:12:09.878Z</time>
      </trkpt>
      <trkpt lat="49.49808" lon="1.0813">
        <ele>138</ele>
        <time>2026-07-07T13:12:14.134Z</time>
      </trkpt>
      <trkpt lat="49.49807" lon="1.08123">
        <ele>135</ele>
        <time>2026-07-07T13:12:18.311Z</time>
      </trkpt>
      <trkpt lat="49.49805" lon="1.08118">
        <ele>135</ele>
        <time>2026-07-07T13:13:26.391Z</time>
      </trkpt>
      <trkpt lat="49.49804" lon="1.08114">
        <ele>135</ele>
        <time>2026-07-07T13:13:30.390Z</time>
      </trkpt>
      <trkpt lat="49.49807" lon="1.08113">
        <ele>135</ele>
        <time>2026-07-07T13:13:38.395Z</time>
      </trkpt>
      <trkpt lat="49.49808" lon="1.08107">
        <ele>135</ele>
        <time>2026-07-07T13:13:43.390Z</time>
      </trkpt>
      <trkpt lat="49.49808" lon="1.08099">
        <ele>135</ele>
        <time>2026-07-07T13:13:47.396Z</time>
      </trkpt>
      <trkpt lat="49.49807" lon="1.08091">
        <ele>132</ele>
        <time>2026-07-07T13:13:52.390Z</time>
      </trkpt>
      <trkpt lat="49.49808" lon="1.08083">
        <ele>132</ele>
        <time>2026-07-07T13:13:56.390Z</time>
      </trkpt>
      <trkpt lat="49.49809" lon="1.08079">
        <ele>132</ele>
        <time>2026-07-07T13:14:01.396Z</time>
      </trkpt>
      <trkpt lat="49.49809" lon="1.08072">
        <ele>132</ele>
        <time>2026-07-07T13:14:06.399Z</time>
      </trkpt>
      <trkpt lat="49.49803" lon="1.08066">
        <ele>129</ele>
        <time>2026-07-07T13:14:11.128Z</time>
      </trkpt>
      <trkpt lat="49.49793" lon="1.08066">
        <ele>129</ele>
        <time>2026-07-07T13:14:15.391Z</time>
      </trkpt>
      <trkpt lat="49.4979" lon="1.08058">
        <ele>133</ele>
        <time>2026-07-07T13:14:19.728Z</time>
      </trkpt>
      <trkpt lat="49.49788" lon="1.08055">
        <ele>133</ele>
        <time>2026-07-07T13:14:24.006Z</time>
      </trkpt>
      <trkpt lat="49.49786" lon="1.08054">
        <ele>133</ele>
        <time>2026-07-07T13:14:28.779Z</time>
      </trkpt>
      <trkpt lat="49.49781" lon="1.08052">
        <ele>133</ele>
        <time>2026-07-07T13:14:33.276Z</time>
      </trkpt>
      <trkpt lat="49.49777" lon="1.08049">
        <ele>133</ele>
        <time>2026-07-07T13:14:37.278Z</time>
      </trkpt>
      <trkpt lat="49.49775" lon="1.08046">
        <ele>133</ele>
        <time>2026-07-07T13:14:41.771Z</time>
      </trkpt>
      <trkpt lat="49.49772" lon="1.08042">
        <ele>133</ele>
        <time>2026-07-07T13:14:46.330Z</time>
      </trkpt>
      <trkpt lat="49.49771" lon="1.08037">
        <ele>133</ele>
        <time>2026-07-07T13:14:50.992Z</time>
      </trkpt>
      <trkpt lat="49.49771" lon="1.08035">
        <ele>133</ele>
        <time>2026-07-07T13:14:55.391Z</time>
      </trkpt>
      <trkpt lat="49.4977" lon="1.08033">
        <ele>133</ele>
        <time>2026-07-07T13:14:59.898Z</time>
      </trkpt>
      <trkpt lat="49.49767" lon="1.08029">
        <ele>133</ele>
        <time>2026-07-07T13:15:04.277Z</time>
      </trkpt>
      <trkpt lat="49.49763" lon="1.08027">
        <ele>140</ele>
        <time>2026-07-07T13:15:08.875Z</time>
      </trkpt>
      <trkpt lat="49.4976" lon="1.08026">
        <ele>140</ele>
        <time>2026-07-07T13:15:13.189Z</time>
      </trkpt>
      <trkpt lat="49.49756" lon="1.08025">
        <ele>140</ele>
        <time>2026-07-07T13:15:17.768Z</time>
      </trkpt>
      <trkpt lat="49.49753" lon="1.08023">
        <ele>140</ele>
        <time>2026-07-07T13:15:22.387Z</time>
      </trkpt>
      <trkpt lat="49.49751" lon="1.0802">
        <ele>140</ele>
        <time>2026-07-07T13:15:26.873Z</time>
      </trkpt>
      <trkpt lat="49.49747" lon="1.0802">
        <ele>140</ele>
        <time>2026-07-07T13:15:31.113Z</time>
      </trkpt>
      <trkpt lat="49.49745" lon="1.08017">
        <ele>140</ele>
        <time>2026-07-07T13:15:35.768Z</time>
      </trkpt>
      <trkpt lat="49.49743" lon="1.08013">
        <ele>141</ele>
        <time>2026-07-07T13:15:39.931Z</time>
      </trkpt>
      <trkpt lat="49.49741" lon="1.08008">
        <ele>141</ele>
        <time>2026-07-07T13:15:44.389Z</time>
      </trkpt>
      <trkpt lat="49.49738" lon="1.08006">
        <ele>141</ele>
        <time>2026-07-07T13:15:48.769Z</time>
      </trkpt>
      <trkpt lat="49.49735" lon="1.08002">
        <ele>146</ele>
        <time>2026-07-07T13:15:53.212Z</time>
      </trkpt>
      <trkpt lat="49.49732" lon="1.08">
        <ele>146</ele>
        <time>2026-07-07T13:15:57.506Z</time>
      </trkpt>
      <trkpt lat="49.49728" lon="1.07997">
        <ele>146</ele>
        <time>2026-07-07T13:16:01.885Z</time>
      </trkpt>
      <trkpt lat="49.49725" lon="1.07994">
        <ele>146</ele>
        <time>2026-07-07T13:16:06.395Z</time>
      </trkpt>
      <trkpt lat="49.49721" lon="1.07993">
        <ele>146</ele>
        <time>2026-07-07T13:16:10.676Z</time>
      </trkpt>
      <trkpt lat="49.49717" lon="1.07992">
        <ele>146</ele>
        <time>2026-07-07T13:16:15.096Z</time>
      </trkpt>
      <trkpt lat="49.49714" lon="1.0799">
        <ele>146</ele>
        <time>2026-07-07T13:16:19.388Z</time>
      </trkpt>
      <trkpt lat="49.49712" lon="1.07986">
        <ele>146</ele>
        <time>2026-07-07T13:16:23.401Z</time>
      </trkpt>
      <trkpt lat="49.49709" lon="1.07979">
        <ele>146</ele>
        <time>2026-07-07T13:16:27.800Z</time>
      </trkpt>
      <trkpt lat="49.49706" lon="1.07974">
        <ele>148</ele>
        <time>2026-07-07T13:16:32.376Z</time>
      </trkpt>
      <trkpt lat="49.49703" lon="1.07971">
        <ele>148</ele>
        <time>2026-07-07T13:16:36.735Z</time>
      </trkpt>
      <trkpt lat="49.49701" lon="1.0797">
        <ele>148</ele>
        <time>2026-07-07T13:16:41.112Z</time>
      </trkpt>
      <trkpt lat="49.49698" lon="1.07966">
        <ele>148</ele>
        <time>2026-07-07T13:16:45.385Z</time>
      </trkpt>
      <trkpt lat="49.49694" lon="1.07965">
        <ele>148</ele>
        <time>2026-07-07T13:16:50.007Z</time>
      </trkpt>
      <trkpt lat="49.49689" lon="1.07962">
        <ele>148</ele>
        <time>2026-07-07T13:16:54.330Z</time>
      </trkpt>
      <trkpt lat="49.49685" lon="1.07959">
        <ele>148</ele>
        <time>2026-07-07T13:16:58.789Z</time>
      </trkpt>
      <trkpt lat="49.49682" lon="1.07956">
        <ele>146</ele>
        <time>2026-07-07T13:17:03.031Z</time>
      </trkpt>
      <trkpt lat="49.49679" lon="1.07953">
        <ele>148</ele>
        <time>2026-07-07T13:17:07.389Z</time>
      </trkpt>
      <trkpt lat="49.49676" lon="1.0795">
        <ele>148</ele>
        <time>2026-07-07T13:17:11.995Z</time>
      </trkpt>
      <trkpt lat="49.49673" lon="1.07945">
        <ele>148</ele>
        <time>2026-07-07T13:17:16.386Z</time>
      </trkpt>
      <trkpt lat="49.4967" lon="1.0794">
        <ele>148</ele>
        <time>2026-07-07T13:17:20.972Z</time>
      </trkpt>
      <trkpt lat="49.49667" lon="1.07935">
        <ele>148</ele>
        <time>2026-07-07T13:17:25.289Z</time>
      </trkpt>
      <trkpt lat="49.49663" lon="1.07932">
        <ele>148</ele>
        <time>2026-07-07T13:17:29.637Z</time>
      </trkpt>
      <trkpt lat="49.49659" lon="1.07929">
        <ele>147</ele>
        <time>2026-07-07T13:17:33.952Z</time>
      </trkpt>
      <trkpt lat="49.49656" lon="1.07925">
        <ele>147</ele>
        <time>2026-07-07T13:17:38.146Z</time>
      </trkpt>
      <trkpt lat="49.49652" lon="1.07922">
        <ele>149</ele>
        <time>2026-07-07T13:17:42.613Z</time>
      </trkpt>
      <trkpt lat="49.49648" lon="1.0792">
        <ele>149</ele>
        <time>2026-07-07T13:17:47.115Z</time>
      </trkpt>
      <trkpt lat="49.49644" lon="1.07919">
        <ele>149</ele>
        <time>2026-07-07T13:17:51.390Z</time>
      </trkpt>
      <trkpt lat="49.4964" lon="1.07919">
        <ele>149</ele>
        <time>2026-07-07T13:17:55.800Z</time>
      </trkpt>
      <trkpt lat="49.49636" lon="1.07917">
        <ele>149</ele>
        <time>2026-07-07T13:18:00.180Z</time>
      </trkpt>
      <trkpt lat="49.49632" lon="1.07914">
        <ele>149</ele>
        <time>2026-07-07T13:18:04.572Z</time>
      </trkpt>
      <trkpt lat="49.49629" lon="1.07909">
        <ele>149</ele>
        <time>2026-07-07T13:18:09.073Z</time>
      </trkpt>
      <trkpt lat="49.49625" lon="1.07902">
        <ele>148</ele>
        <time>2026-07-07T13:18:13.393Z</time>
      </trkpt>
      <trkpt lat="49.49622" lon="1.07899">
        <ele>149</ele>
        <time>2026-07-07T13:18:17.694Z</time>
      </trkpt>
      <trkpt lat="49.49616" lon="1.07895">
        <ele>149</ele>
        <time>2026-07-07T13:18:21.997Z</time>
      </trkpt>
      <trkpt lat="49.49612" lon="1.07889">
        <ele>149</ele>
        <time>2026-07-07T13:18:26.374Z</time>
      </trkpt>
      <trkpt lat="49.4961" lon="1.07883">
        <ele>149</ele>
        <time>2026-07-07T13:18:30.689Z</time>
      </trkpt>
      <trkpt lat="49.49606" lon="1.07878">
        <ele>149</ele>
        <time>2026-07-07T13:18:35.133Z</time>
      </trkpt>
      <trkpt lat="49.49604" lon="1.07872">
        <ele>148</ele>
        <time>2026-07-07T13:18:39.505Z</time>
      </trkpt>
      <trkpt lat="49.496" lon="1.0787">
        <ele>148</ele>
        <time>2026-07-07T13:18:43.950Z</time>
      </trkpt>
      <trkpt lat="49.49595" lon="1.0787">
        <ele>148</ele>
        <time>2026-07-07T13:18:48.250Z</time>
      </trkpt>
      <trkpt lat="49.49591" lon="1.07869">
        <ele>148</ele>
        <time>2026-07-07T13:18:52.396Z</time>
      </trkpt>
      <trkpt lat="49.49587" lon="1.07868">
        <ele>148</ele>
        <time>2026-07-07T13:18:56.863Z</time>
      </trkpt>
      <trkpt lat="49.49582" lon="1.07866">
        <ele>148</ele>
        <time>2026-07-07T13:19:01.222Z</time>
      </trkpt>
      <trkpt lat="49.49577" lon="1.07865">
        <ele>148</ele>
        <time>2026-07-07T13:19:05.660Z</time>
      </trkpt>
      <trkpt lat="49.49572" lon="1.07866">
        <ele>148</ele>
        <time>2026-07-07T13:19:10.060Z</time>
      </trkpt>
      <trkpt lat="49.49567" lon="1.07867">
        <ele>150</ele>
        <time>2026-07-07T13:19:14.400Z</time>
      </trkpt>
      <trkpt lat="49.49563" lon="1.0787">
        <ele>150</ele>
        <time>2026-07-07T13:19:18.670Z</time>
      </trkpt>
      <trkpt lat="49.49559" lon="1.07873">
        <ele>150</ele>
        <time>2026-07-07T13:19:22.896Z</time>
      </trkpt>
      <trkpt lat="49.49554" lon="1.07876">
        <ele>152</ele>
        <time>2026-07-07T13:19:27.133Z</time>
      </trkpt>
      <trkpt lat="49.49548" lon="1.07877">
        <ele>152</ele>
        <time>2026-07-07T13:19:31.384Z</time>
      </trkpt>
      <trkpt lat="49.49542" lon="1.07878">
        <ele>152</ele>
        <time>2026-07-07T13:19:35.672Z</time>
      </trkpt>
      <trkpt lat="49.49538" lon="1.07881">
        <ele>153</ele>
        <time>2026-07-07T13:19:40.017Z</time>
      </trkpt>
      <trkpt lat="49.49535" lon="1.07884">
        <ele>153</ele>
        <time>2026-07-07T13:19:44.397Z</time>
      </trkpt>
      <trkpt lat="49.49532" lon="1.07888">
        <ele>153</ele>
        <time>2026-07-07T13:19:48.768Z</time>
      </trkpt>
      <trkpt lat="49.49531" lon="1.07894">
        <ele>153</ele>
        <time>2026-07-07T13:19:53.137Z</time>
      </trkpt>
      <trkpt lat="49.49525" lon="1.07896">
        <ele>153</ele>
        <time>2026-07-07T13:19:57.384Z</time>
      </trkpt>
      <trkpt lat="49.49519" lon="1.07894">
        <ele>153</ele>
        <time>2026-07-07T13:20:01.719Z</time>
      </trkpt>
      <trkpt lat="49.49514" lon="1.07897">
        <ele>153</ele>
        <time>2026-07-07T13:20:05.874Z</time>
      </trkpt>
      <trkpt lat="49.49507" lon="1.07899">
        <ele>153</ele>
        <time>2026-07-07T13:20:10.176Z</time>
      </trkpt>
      <trkpt lat="49.49501" lon="1.07901">
        <ele>153</ele>
        <time>2026-07-07T13:20:14.299Z</time>
      </trkpt>
      <trkpt lat="49.49495" lon="1.07902">
        <ele>153</ele>
        <time>2026-07-07T13:20:18.388Z</time>
      </trkpt>
      <trkpt lat="49.4949" lon="1.07901">
        <ele>153</ele>
        <time>2026-07-07T13:20:22.713Z</time>
      </trkpt>
      <trkpt lat="49.49486" lon="1.07901">
        <ele>151</ele>
        <time>2026-07-07T13:20:27.074Z</time>
      </trkpt>
      <trkpt lat="49.49482" lon="1.07904">
        <ele>152</ele>
        <time>2026-07-07T13:20:31.397Z</time>
      </trkpt>
      <trkpt lat="49.49478" lon="1.07905">
        <ele>152</ele>
        <time>2026-07-07T13:20:35.799Z</time>
      </trkpt>
      <trkpt lat="49.49476" lon="1.07907">
        <ele>152</ele>
        <time>2026-07-07T13:20:40.266Z</time>
      </trkpt>
      <trkpt lat="49.49484" lon="1.07913">
        <ele>152</ele>
        <time>2026-07-07T13:20:45.385Z</time>
      </trkpt>
      <trkpt lat="49.49485" lon="1.07912">
        <ele>152</ele>
        <time>2026-07-07T13:20:49.812Z</time>
      </trkpt>
      <trkpt lat="49.49486" lon="1.07905">
        <ele>154</ele>
        <time>2026-07-07T13:23:04.390Z</time>
      </trkpt>
      <trkpt lat="49.49488" lon="1.07898">
        <ele>153</ele>
        <time>2026-07-07T13:23:09.322Z</time>
      </trkpt>
      <trkpt lat="49.49488" lon="1.07887">
        <ele>153</ele>
        <time>2026-07-07T13:23:13.395Z</time>
      </trkpt>
      <trkpt lat="49.49488" lon="1.07876">
        <ele>153</ele>
        <time>2026-07-07T13:23:17.389Z</time>
      </trkpt>
      <trkpt lat="49.49489" lon="1.07862">
        <ele>151</ele>
        <time>2026-07-07T13:23:22.181Z</time>
      </trkpt>
      <trkpt lat="49.49488" lon="1.07856">
        <ele>151</ele>
        <time>2026-07-07T13:23:27.037Z</time>
      </trkpt>
      <trkpt lat="49.49488" lon="1.07851">
        <ele>151</ele>
        <time>2026-07-07T13:23:31.396Z</time>
      </trkpt>
      <trkpt lat="49.49488" lon="1.07844">
        <ele>150</ele>
        <time>2026-07-07T13:23:35.386Z</time>
      </trkpt>
      <trkpt lat="49.49487" lon="1.07835">
        <ele>150</ele>
        <time>2026-07-07T13:23:40.219Z</time>
      </trkpt>
      <trkpt lat="49.49486" lon="1.0783">
        <ele>150</ele>
        <time>2026-07-07T13:23:44.953Z</time>
      </trkpt>
      <trkpt lat="49.49487" lon="1.07822">
        <ele>150</ele>
        <time>2026-07-07T13:23:49.398Z</time>
      </trkpt>
      <trkpt lat="49.49487" lon="1.07814">
        <ele>149</ele>
        <time>2026-07-07T13:23:54.388Z</time>
      </trkpt>
      <trkpt lat="49.49488" lon="1.07806">
        <ele>149</ele>
        <time>2026-07-07T13:23:59.076Z</time>
      </trkpt>
      <trkpt lat="49.49489" lon="1.07798">
        <ele>149</ele>
        <time>2026-07-07T13:24:03.398Z</time>
      </trkpt>
      <trkpt lat="49.4949" lon="1.07791">
        <ele>148</ele>
        <time>2026-07-07T13:24:07.890Z</time>
      </trkpt>
      <trkpt lat="49.49489" lon="1.07782">
        <ele>148</ele>
        <time>2026-07-07T13:24:12.262Z</time>
      </trkpt>
      <trkpt lat="49.49488" lon="1.07775">
        <ele>148</ele>
        <time>2026-07-07T13:24:16.385Z</time>
      </trkpt>
      <trkpt lat="49.49489" lon="1.07768">
        <ele>148</ele>
        <time>2026-07-07T13:24:20.870Z</time>
      </trkpt>
      <trkpt lat="49.49488" lon="1.07761">
        <ele>147</ele>
        <time>2026-07-07T13:24:25.169Z</time>
      </trkpt>
      <trkpt lat="49.49487" lon="1.07753">
        <ele>147</ele>
        <time>2026-07-07T13:24:29.253Z</time>
      </trkpt>
      <trkpt lat="49.49486" lon="1.07747">
        <ele>147</ele>
        <time>2026-07-07T13:24:33.785Z</time>
      </trkpt>
      <trkpt lat="49.49486" lon="1.07741">
        <ele>147</ele>
        <time>2026-07-07T13:24:38.250Z</time>
      </trkpt>
      <trkpt lat="49.49487" lon="1.07734">
        <ele>146</ele>
        <time>2026-07-07T13:24:42.954Z</time>
      </trkpt>
      <trkpt lat="49.49486" lon="1.07725">
        <ele>146</ele>
        <time>2026-07-07T13:24:47.386Z</time>
      </trkpt>
      <trkpt lat="49.49486" lon="1.07716">
        <ele>146</ele>
        <time>2026-07-07T13:24:51.903Z</time>
      </trkpt>
      <trkpt lat="49.49486" lon="1.07709">
        <ele>146</ele>
        <time>2026-07-07T13:24:56.350Z</time>
      </trkpt>
      <trkpt lat="49.49486" lon="1.07702">
        <ele>145</ele>
        <time>2026-07-07T13:25:00.681Z</time>
      </trkpt>
      <trkpt lat="49.49485" lon="1.07694">
        <ele>145</ele>
        <time>2026-07-07T13:25:04.889Z</time>
      </trkpt>
      <trkpt lat="49.49485" lon="1.07687">
        <ele>145</ele>
        <time>2026-07-07T13:25:09.154Z</time>
      </trkpt>
      <trkpt lat="49.49485" lon="1.0768">
        <ele>144</ele>
        <time>2026-07-07T13:25:13.396Z</time>
      </trkpt>
      <trkpt lat="49.49486" lon="1.07673">
        <ele>144</ele>
        <time>2026-07-07T13:25:17.659Z</time>
      </trkpt>
      <trkpt lat="49.49486" lon="1.07666">
        <ele>144</ele>
        <time>2026-07-07T13:25:22.089Z</time>
      </trkpt>
      <trkpt lat="49.49486" lon="1.07658">
        <ele>144</ele>
        <time>2026-07-07T13:25:26.377Z</time>
      </trkpt>
      <trkpt lat="49.49486" lon="1.07651">
        <ele>143</ele>
        <time>2026-07-07T13:25:30.712Z</time>
      </trkpt>
      <trkpt lat="49.49486" lon="1.07644">
        <ele>143</ele>
        <time>2026-07-07T13:25:35.167Z</time>
      </trkpt>
      <trkpt lat="49.49486" lon="1.07638">
        <ele>143</ele>
        <time>2026-07-07T13:25:39.391Z</time>
      </trkpt>
      <trkpt lat="49.49486" lon="1.07629">
        <ele>143</ele>
        <time>2026-07-07T13:25:43.627Z</time>
      </trkpt>
      <trkpt lat="49.49486" lon="1.07623">
        <ele>142</ele>
        <time>2026-07-07T13:25:47.951Z</time>
      </trkpt>
      <trkpt lat="49.49487" lon="1.07617">
        <ele>142</ele>
        <time>2026-07-07T13:25:52.113Z</time>
      </trkpt>
      <trkpt lat="49.49486" lon="1.0761">
        <ele>142</ele>
        <time>2026-07-07T13:25:56.270Z</time>
      </trkpt>
      <trkpt lat="49.49485" lon="1.07604">
        <ele>142</ele>
        <time>2026-07-07T13:26:00.387Z</time>
      </trkpt>
      <trkpt lat="49.49486" lon="1.07596">
        <ele>141</ele>
        <time>2026-07-07T13:26:04.391Z</time>
      </trkpt>
      <trkpt lat="49.49486" lon="1.07587">
        <ele>141</ele>
        <time>2026-07-07T13:26:08.673Z</time>
      </trkpt>
      <trkpt lat="49.49482" lon="1.0758">
        <ele>141</ele>
        <time>2026-07-07T13:26:12.703Z</time>
      </trkpt>
      <trkpt lat="49.4948" lon="1.07575">
        <ele>141</ele>
        <time>2026-07-07T13:26:16.865Z</time>
      </trkpt>
      <trkpt lat="49.49478" lon="1.07569">
        <ele>141</ele>
        <time>2026-07-07T13:26:21.076Z</time>
      </trkpt>
      <trkpt lat="49.49475" lon="1.07567">
        <ele>141</ele>
        <time>2026-07-07T13:26:25.197Z</time>
      </trkpt>
      <trkpt lat="49.49474" lon="1.07561">
        <ele>141</ele>
        <time>2026-07-07T13:26:29.389Z</time>
      </trkpt>
      <trkpt lat="49.49472" lon="1.07555">
        <ele>141</ele>
        <time>2026-07-07T13:26:34.245Z</time>
      </trkpt>
      <trkpt lat="49.49469" lon="1.0755">
        <ele>141</ele>
        <time>2026-07-07T13:26:38.382Z</time>
      </trkpt>
      <trkpt lat="49.49468" lon="1.07542">
        <ele>141</ele>
        <time>2026-07-07T13:26:42.384Z</time>
      </trkpt>
      <trkpt lat="49.49477" lon="1.07527">
        <ele>141</ele>
        <time>2026-07-07T13:26:47.050Z</time>
      </trkpt>
      <trkpt lat="49.49481" lon="1.07517">
        <ele>141</ele>
        <time>2026-07-07T13:26:51.197Z</time>
      </trkpt>
      <trkpt lat="49.49485" lon="1.07508">
        <ele>140</ele>
        <time>2026-07-07T13:26:55.391Z</time>
      </trkpt>
      <trkpt lat="49.49485" lon="1.07499">
        <ele>140</ele>
        <time>2026-07-07T13:27:00.185Z</time>
      </trkpt>
      <trkpt lat="49.49483" lon="1.07489">
        <ele>140</ele>
        <time>2026-07-07T13:27:04.219Z</time>
      </trkpt>
      <trkpt lat="49.49481" lon="1.07481">
        <ele>139</ele>
        <time>2026-07-07T13:27:08.769Z</time>
      </trkpt>
      <trkpt lat="49.4948" lon="1.07474">
        <ele>139</ele>
        <time>2026-07-07T13:27:13.028Z</time>
      </trkpt>
      <trkpt lat="49.49478" lon="1.07467">
        <ele>139</ele>
        <time>2026-07-07T13:27:17.168Z</time>
      </trkpt>
      <trkpt lat="49.49476" lon="1.07458">
        <ele>138</ele>
        <time>2026-07-07T13:27:21.837Z</time>
      </trkpt>
      <trkpt lat="49.49473" lon="1.07451">
        <ele>138</ele>
        <time>2026-07-07T13:27:26.387Z</time>
      </trkpt>
      <trkpt lat="49.4947" lon="1.07444">
        <ele>138</ele>
        <time>2026-07-07T13:27:31.070Z</time>
      </trkpt>
      <trkpt lat="49.49466" lon="1.07438">
        <ele>138</ele>
        <time>2026-07-07T13:27:35.572Z</time>
      </trkpt>
      <trkpt lat="49.49462" lon="1.07433">
        <ele>138</ele>
        <time>2026-07-07T13:27:40.153Z</time>
      </trkpt>
      <trkpt lat="49.49458" lon="1.07428">
        <ele>140</ele>
        <time>2026-07-07T13:27:44.698Z</time>
      </trkpt>
      <trkpt lat="49.49454" lon="1.07423">
        <ele>140</ele>
        <time>2026-07-07T13:27:48.648Z</time>
      </trkpt>
      <trkpt lat="49.49449" lon="1.0742">
        <ele>140</ele>
        <time>2026-07-07T13:27:53.393Z</time>
      </trkpt>
      <trkpt lat="49.49446" lon="1.07416">
        <ele>140</ele>
        <time>2026-07-07T13:27:57.557Z</time>
      </trkpt>
      <trkpt lat="49.49442" lon="1.07413">
        <ele>140</ele>
        <time>2026-07-07T13:28:02.073Z</time>
      </trkpt>
      <trkpt lat="49.49438" lon="1.07408">
        <ele>140</ele>
        <time>2026-07-07T13:28:06.034Z</time>
      </trkpt>
      <trkpt lat="49.49434" lon="1.07406">
        <ele>140</ele>
        <time>2026-07-07T13:28:10.045Z</time>
      </trkpt>
      <trkpt lat="49.49427" lon="1.07401">
        <ele>142</ele>
        <time>2026-07-07T13:28:14.168Z</time>
      </trkpt>
      <trkpt lat="49.49427" lon="1.074">
        <ele>142</ele>
        <time>2026-07-07T13:28:18.793Z</time>
      </trkpt>
      <trkpt lat="49.49421" lon="1.07398">
        <ele>142</ele>
        <time>2026-07-07T13:28:23.358Z</time>
      </trkpt>
      <trkpt lat="49.49415" lon="1.07396">
        <ele>142</ele>
        <time>2026-07-07T13:28:27.877Z</time>
      </trkpt>
      <trkpt lat="49.4941" lon="1.07396">
        <ele>142</ele>
        <time>2026-07-07T13:28:32.389Z</time>
      </trkpt>
      <trkpt lat="49.49406" lon="1.07394">
        <ele>142</ele>
        <time>2026-07-07T13:28:36.915Z</time>
      </trkpt>
      <trkpt lat="49.49401" lon="1.07392">
        <ele>143</ele>
        <time>2026-07-07T13:28:41.382Z</time>
      </trkpt>
      <trkpt lat="49.49397" lon="1.07392">
        <ele>143</ele>
        <time>2026-07-07T13:28:45.892Z</time>
      </trkpt>
      <trkpt lat="49.49393" lon="1.07393">
        <ele>143</ele>
        <time>2026-07-07T13:28:50.387Z</time>
      </trkpt>
      <trkpt lat="49.49388" lon="1.07393">
        <ele>143</ele>
        <time>2026-07-07T13:28:54.553Z</time>
      </trkpt>
      <trkpt lat="49.49383" lon="1.07392">
        <ele>143</ele>
        <time>2026-07-07T13:28:59.133Z</time>
      </trkpt>
      <trkpt lat="49.49379" lon="1.0739">
        <ele>143</ele>
        <time>2026-07-07T13:29:03.193Z</time>
      </trkpt>
      <trkpt lat="49.49373" lon="1.07383">
        <ele>143</ele>
        <time>2026-07-07T13:29:07.890Z</time>
      </trkpt>
      <trkpt lat="49.49367" lon="1.07379">
        <ele>143</ele>
        <time>2026-07-07T13:29:11.969Z</time>
      </trkpt>
      <trkpt lat="49.49361" lon="1.07378">
        <ele>143</ele>
        <time>2026-07-07T13:29:16.141Z</time>
      </trkpt>
      <trkpt lat="49.49357" lon="1.0738">
        <ele>143</ele>
        <time>2026-07-07T13:29:20.270Z</time>
      </trkpt>
      <trkpt lat="49.49352" lon="1.07382">
        <ele>143</ele>
        <time>2026-07-07T13:29:24.695Z</time>
      </trkpt>
      <trkpt lat="49.49348" lon="1.07382">
        <ele>143</ele>
        <time>2026-07-07T13:29:29.386Z</time>
      </trkpt>
      <trkpt lat="49.49343" lon="1.0738">
        <ele>144</ele>
        <time>2026-07-07T13:32:48.385Z</time>
      </trkpt>
      <trkpt lat="49.4934" lon="1.07379">
        <ele>144</ele>
        <time>2026-07-07T13:32:53.400Z</time>
      </trkpt>
      <trkpt lat="49.49336" lon="1.07379">
        <ele>144</ele>
        <time>2026-07-07T13:32:58.386Z</time>
      </trkpt>
      <trkpt lat="49.49331" lon="1.07374">
        <ele>145</ele>
        <time>2026-07-07T13:33:03.387Z</time>
      </trkpt>
      <trkpt lat="49.49326" lon="1.07368">
        <ele>145</ele>
        <time>2026-07-07T13:33:08.386Z</time>
      </trkpt>
      <trkpt lat="49.49322" lon="1.07363">
        <ele>145</ele>
        <time>2026-07-07T13:33:13.380Z</time>
      </trkpt>
      <trkpt lat="49.49318" lon="1.07359">
        <ele>145</ele>
        <time>2026-07-07T13:33:17.388Z</time>
      </trkpt>
      <trkpt lat="49.49313" lon="1.07355">
        <ele>145</ele>
        <time>2026-07-07T13:33:22.386Z</time>
      </trkpt>
      <trkpt lat="49.49308" lon="1.07355">
        <ele>145</ele>
        <time>2026-07-07T13:33:26.388Z</time>
      </trkpt>
      <trkpt lat="49.49303" lon="1.07356">
        <ele>145</ele>
        <time>2026-07-07T13:33:30.388Z</time>
      </trkpt>
      <trkpt lat="49.49299" lon="1.07358">
        <ele>145</ele>
        <time>2026-07-07T13:33:35.387Z</time>
      </trkpt>
      <trkpt lat="49.49295" lon="1.07359">
        <ele>145</ele>
        <time>2026-07-07T13:33:39.382Z</time>
      </trkpt>
      <trkpt lat="49.49291" lon="1.07359">
        <ele>144</ele>
        <time>2026-07-07T13:33:43.382Z</time>
      </trkpt>
      <trkpt lat="49.49286" lon="1.07359">
        <ele>144</ele>
        <time>2026-07-07T13:33:48.388Z</time>
      </trkpt>
      <trkpt lat="49.49281" lon="1.07353">
        <ele>144</ele>
        <time>2026-07-07T13:33:53.015Z</time>
      </trkpt>
      <trkpt lat="49.49277" lon="1.07349">
        <ele>144</ele>
        <time>2026-07-07T13:33:57.254Z</time>
      </trkpt>
      <trkpt lat="49.49272" lon="1.07345">
        <ele>145</ele>
        <time>2026-07-07T13:34:01.383Z</time>
      </trkpt>
      <trkpt lat="49.49268" lon="1.07344">
        <ele>145</ele>
        <time>2026-07-07T13:34:05.633Z</time>
      </trkpt>
      <trkpt lat="49.49264" lon="1.07345">
        <ele>145</ele>
        <time>2026-07-07T13:34:09.851Z</time>
      </trkpt>
      <trkpt lat="49.4926" lon="1.07344">
        <ele>145</ele>
        <time>2026-07-07T13:34:14.149Z</time>
      </trkpt>
      <trkpt lat="49.49256" lon="1.07342">
        <ele>145</ele>
        <time>2026-07-07T13:34:18.271Z</time>
      </trkpt>
      <trkpt lat="49.4925" lon="1.07341">
        <ele>145</ele>
        <time>2026-07-07T13:34:22.389Z</time>
      </trkpt>
      <trkpt lat="49.49245" lon="1.07336">
        <ele>145</ele>
        <time>2026-07-07T13:34:26.656Z</time>
      </trkpt>
      <trkpt lat="49.49239" lon="1.07331">
        <ele>145</ele>
        <time>2026-07-07T13:34:30.817Z</time>
      </trkpt>
      <trkpt lat="49.49234" lon="1.07328">
        <ele>145</ele>
        <time>2026-07-07T13:34:34.976Z</time>
      </trkpt>
      <trkpt lat="49.4923" lon="1.07325">
        <ele>145</ele>
        <time>2026-07-07T13:34:39.355Z</time>
      </trkpt>
      <trkpt lat="49.49225" lon="1.07322">
        <ele>145</ele>
        <time>2026-07-07T13:34:43.608Z</time>
      </trkpt>
      <trkpt lat="49.49218" lon="1.07312">
        <ele>145</ele>
        <time>2026-07-07T13:34:47.873Z</time>
      </trkpt>
      <trkpt lat="49.49217" lon="1.07312">
        <ele>145</ele>
        <time>2026-07-07T13:34:52.074Z</time>
      </trkpt>
      <trkpt lat="49.49214" lon="1.07316">
        <ele>145</ele>
        <time>2026-07-07T13:34:56.399Z</time>
      </trkpt>
      <trkpt lat="49.49212" lon="1.07326">
        <ele>145</ele>
        <time>2026-07-07T13:35:00.680Z</time>
      </trkpt>
      <trkpt lat="49.49208" lon="1.07332">
        <ele>144</ele>
        <time>2026-07-07T13:35:04.957Z</time>
      </trkpt>
      <trkpt lat="49.49205" lon="1.0734">
        <ele>144</ele>
        <time>2026-07-07T13:35:09.132Z</time>
      </trkpt>
      <trkpt lat="49.49203" lon="1.07348">
        <ele>144</ele>
        <time>2026-07-07T13:35:13.387Z</time>
      </trkpt>
      <trkpt lat="49.49202" lon="1.07355">
        <ele>144</ele>
        <time>2026-07-07T13:35:17.655Z</time>
      </trkpt>
      <trkpt lat="49.49201" lon="1.07362">
        <ele>144</ele>
        <time>2026-07-07T13:35:22Z</time>
      </trkpt>
      <trkpt lat="49.492" lon="1.0737">
        <ele>144</ele>
        <time>2026-07-07T13:35:26.181Z</time>
      </trkpt>
      <trkpt lat="49.49198" lon="1.07378">
        <ele>144</ele>
        <time>2026-07-07T13:35:30.395Z</time>
      </trkpt>
      <trkpt lat="49.49198" lon="1.07385">
        <ele>144</ele>
        <time>2026-07-07T13:35:34.636Z</time>
      </trkpt>
      <trkpt lat="49.49195" lon="1.07392">
        <ele>144</ele>
        <time>2026-07-07T13:35:38.836Z</time>
      </trkpt>
      <trkpt lat="49.49194" lon="1.074">
        <ele>144</ele>
        <time>2026-07-07T13:35:43.074Z</time>
      </trkpt>
      <trkpt lat="49.49193" lon="1.07409">
        <ele>143</ele>
        <time>2026-07-07T13:35:47.427Z</time>
      </trkpt>
      <trkpt lat="49.49193" lon="1.07416">
        <ele>143</ele>
        <time>2026-07-07T13:35:51.654Z</time>
      </trkpt>
      <trkpt lat="49.49191" lon="1.07422">
        <ele>143</ele>
        <time>2026-07-07T13:35:56.385Z</time>
      </trkpt>
      <trkpt lat="49.49189" lon="1.0743">
        <ele>143</ele>
        <time>2026-07-07T13:36:01.051Z</time>
      </trkpt>
      <trkpt lat="49.49188" lon="1.07438">
        <ele>143</ele>
        <time>2026-07-07T13:36:05.393Z</time>
      </trkpt>
      <trkpt lat="49.49186" lon="1.07447">
        <ele>143</ele>
        <time>2026-07-07T13:36:09.611Z</time>
      </trkpt>
      <trkpt lat="49.49185" lon="1.07454">
        <ele>143</ele>
        <time>2026-07-07T13:36:13.848Z</time>
      </trkpt>
      <trkpt lat="49.49183" lon="1.07462">
        <ele>142</ele>
        <time>2026-07-07T13:36:17.934Z</time>
      </trkpt>
      <trkpt lat="49.49181" lon="1.07469">
        <ele>142</ele>
        <time>2026-07-07T13:36:22.150Z</time>
      </trkpt>
      <trkpt lat="49.49181" lon="1.07476">
        <ele>142</ele>
        <time>2026-07-07T13:36:26.335Z</time>
      </trkpt>
      <trkpt lat="49.49181" lon="1.07484">
        <ele>142</ele>
        <time>2026-07-07T13:36:30.596Z</time>
      </trkpt>
      <trkpt lat="49.4918" lon="1.07492">
        <ele>139</ele>
        <time>2026-07-07T13:36:34.837Z</time>
      </trkpt>
      <trkpt lat="49.49177" lon="1.07499">
        <ele>139</ele>
        <time>2026-07-07T13:36:39.035Z</time>
      </trkpt>
      <trkpt lat="49.49174" lon="1.07506">
        <ele>139</ele>
        <time>2026-07-07T13:36:43.095Z</time>
      </trkpt>
      <trkpt lat="49.49174" lon="1.07513">
        <ele>139</ele>
        <time>2026-07-07T13:36:47.269Z</time>
      </trkpt>
      <trkpt lat="49.49175" lon="1.07519">
        <ele>140</ele>
        <time>2026-07-07T13:36:51.848Z</time>
      </trkpt>
      <trkpt lat="49.49173" lon="1.07527">
        <ele>140</ele>
        <time>2026-07-07T13:36:55.979Z</time>
      </trkpt>
      <trkpt lat="49.49172" lon="1.07533">
        <ele>140</ele>
        <time>2026-07-07T13:37:00.117Z</time>
      </trkpt>
      <trkpt lat="49.4917" lon="1.07541">
        <ele>140</ele>
        <time>2026-07-07T13:37:04.317Z</time>
      </trkpt>
      <trkpt lat="49.4917" lon="1.07551">
        <ele>140</ele>
        <time>2026-07-07T13:37:08.357Z</time>
      </trkpt>
      <trkpt lat="49.49171" lon="1.07561">
        <ele>140</ele>
        <time>2026-07-07T13:37:13.149Z</time>
      </trkpt>
      <trkpt lat="49.49172" lon="1.07568">
        <ele>140</ele>
        <time>2026-07-07T13:37:17.383Z</time>
      </trkpt>
      <trkpt lat="49.49172" lon="1.07575">
        <ele>141</ele>
        <time>2026-07-07T13:37:21.740Z</time>
      </trkpt>
      <trkpt lat="49.49172" lon="1.07582">
        <ele>141</ele>
        <time>2026-07-07T13:37:26.171Z</time>
      </trkpt>
      <trkpt lat="49.49168" lon="1.0759">
        <ele>141</ele>
        <time>2026-07-07T13:37:30.382Z</time>
      </trkpt>
      <trkpt lat="49.49166" lon="1.07597">
        <ele>141</ele>
        <time>2026-07-07T13:37:34.852Z</time>
      </trkpt>
      <trkpt lat="49.49164" lon="1.07603">
        <ele>140</ele>
        <time>2026-07-07T13:37:39.055Z</time>
      </trkpt>
      <trkpt lat="49.49163" lon="1.07611">
        <ele>140</ele>
        <time>2026-07-07T13:37:43.379Z</time>
      </trkpt>
      <trkpt lat="49.49163" lon="1.07618">
        <ele>140</ele>
        <time>2026-07-07T13:37:47.706Z</time>
      </trkpt>
      <trkpt lat="49.49163" lon="1.07626">
        <ele>141</ele>
        <time>2026-07-07T13:37:52.207Z</time>
      </trkpt>
      <trkpt lat="49.49162" lon="1.07634">
        <ele>141</ele>
        <time>2026-07-07T13:37:56.385Z</time>
      </trkpt>
      <trkpt lat="49.49159" lon="1.07642">
        <ele>141</ele>
        <time>2026-07-07T13:38:00.888Z</time>
      </trkpt>
      <trkpt lat="49.49157" lon="1.07651">
        <ele>141</ele>
        <time>2026-07-07T13:38:14.287Z</time>
      </trkpt>
      <trkpt lat="49.49157" lon="1.07658">
        <ele>141</ele>
        <time>2026-07-07T13:38:18.977Z</time>
      </trkpt>
      <trkpt lat="49.49156" lon="1.07663">
        <ele>141</ele>
        <time>2026-07-07T13:38:23.380Z</time>
      </trkpt>
      <trkpt lat="49.49161" lon="1.07676">
        <ele>141</ele>
        <time>2026-07-07T13:38:27.847Z</time>
      </trkpt>
      <trkpt lat="49.49162" lon="1.07675">
        <ele>141</ele>
        <time>2026-07-07T13:38:32.396Z</time>
      </trkpt>
      <trkpt lat="49.49162" lon="1.07675">
        <ele>141</ele>
        <time>2026-07-07T13:38:36.607Z</time>
      </trkpt>
      <trkpt lat="49.49162" lon="1.07675">
        <ele>141</ele>
        <time>2026-07-07T13:38:40.925Z</time>
      </trkpt>
      <trkpt lat="49.49162" lon="1.07677">
        <ele>141</ele>
        <time>2026-07-07T13:38:45.066Z</time>
      </trkpt>
      <trkpt lat="49.49159" lon="1.07683">
        <ele>142</ele>
        <time>2026-07-07T13:38:49.387Z</time>
      </trkpt>
      <trkpt lat="49.49154" lon="1.0769">
        <ele>142</ele>
        <time>2026-07-07T13:38:53.608Z</time>
      </trkpt>
      <trkpt lat="49.49152" lon="1.07695">
        <ele>137</ele>
        <time>2026-07-07T13:38:57.849Z</time>
      </trkpt>
      <trkpt lat="49.49152" lon="1.07702">
        <ele>137</ele>
        <time>2026-07-07T13:39:01.990Z</time>
      </trkpt>
      <trkpt lat="49.49151" lon="1.07708">
        <ele>139</ele>
        <time>2026-07-07T13:39:06.254Z</time>
      </trkpt>
      <trkpt lat="49.4915" lon="1.07713">
        <ele>139</ele>
        <time>2026-07-07T13:39:10.390Z</time>
      </trkpt>
      <trkpt lat="49.49149" lon="1.07719">
        <ele>139</ele>
        <time>2026-07-07T13:39:14.837Z</time>
      </trkpt>
      <trkpt lat="49.49147" lon="1.07727">
        <ele>139</ele>
        <time>2026-07-07T13:39:19.151Z</time>
      </trkpt>
      <trkpt lat="49.49145" lon="1.07735">
        <ele>139</ele>
        <time>2026-07-07T13:39:23.383Z</time>
      </trkpt>
      <trkpt lat="49.49142" lon="1.07741">
        <ele>139</ele>
        <time>2026-07-07T13:39:27.794Z</time>
      </trkpt>
      <trkpt lat="49.4914" lon="1.07748">
        <ele>139</ele>
        <time>2026-07-07T13:39:32.086Z</time>
      </trkpt>
      <trkpt lat="49.4914" lon="1.07757">
        <ele>139</ele>
        <time>2026-07-07T13:39:36.292Z</time>
      </trkpt>
      <trkpt lat="49.49139" lon="1.07765">
        <ele>140</ele>
        <time>2026-07-07T13:39:40.709Z</time>
      </trkpt>
      <trkpt lat="49.49138" lon="1.07772">
        <ele>140</ele>
        <time>2026-07-07T13:39:45.066Z</time>
      </trkpt>
      <trkpt lat="49.49137" lon="1.07779">
        <ele>140</ele>
        <time>2026-07-07T13:39:49.763Z</time>
      </trkpt>
      <trkpt lat="49.49137" lon="1.07784">
        <ele>140</ele>
        <time>2026-07-07T13:39:54.117Z</time>
      </trkpt>
      <trkpt lat="49.49136" lon="1.0779">
        <ele>140</ele>
        <time>2026-07-07T13:39:58.140Z</time>
      </trkpt>
      <trkpt lat="49.49135" lon="1.07797">
        <ele>140</ele>
        <time>2026-07-07T13:40:02.378Z</time>
      </trkpt>
      <trkpt lat="49.49133" lon="1.07805">
        <ele>140</ele>
        <time>2026-07-07T13:40:06.835Z</time>
      </trkpt>
      <trkpt lat="49.49133" lon="1.07811">
        <ele>140</ele>
        <time>2026-07-07T13:40:11.262Z</time>
      </trkpt>
      <trkpt lat="49.49132" lon="1.07818">
        <ele>140</ele>
        <time>2026-07-07T13:40:15.524Z</time>
      </trkpt>
      <trkpt lat="49.49132" lon="1.07825">
        <ele>141</ele>
        <time>2026-07-07T13:40:19.792Z</time>
      </trkpt>
      <trkpt lat="49.49132" lon="1.07832">
        <ele>141</ele>
        <time>2026-07-07T13:40:23.879Z</time>
      </trkpt>
      <trkpt lat="49.49133" lon="1.07838">
        <ele>141</ele>
        <time>2026-07-07T13:40:28.161Z</time>
      </trkpt>
      <trkpt lat="49.49131" lon="1.07843">
        <ele>141</ele>
        <time>2026-07-07T13:40:32.385Z</time>
      </trkpt>
      <trkpt lat="49.4913" lon="1.07849">
        <ele>142</ele>
        <time>2026-07-07T13:40:36.760Z</time>
      </trkpt>
      <trkpt lat="49.49129" lon="1.07857">
        <ele>142</ele>
        <time>2026-07-07T13:40:40.933Z</time>
      </trkpt>
      <trkpt lat="49.49129" lon="1.07866">
        <ele>142</ele>
        <time>2026-07-07T13:40:45.261Z</time>
      </trkpt>
      <trkpt lat="49.49126" lon="1.07873">
        <ele>142</ele>
        <time>2026-07-07T13:40:49.618Z</time>
      </trkpt>
      <trkpt lat="49.49124" lon="1.0788">
        <ele>143</ele>
        <time>2026-07-07T13:40:54.020Z</time>
      </trkpt>
      <trkpt lat="49.49123" lon="1.07887">
        <ele>143</ele>
        <time>2026-07-07T13:40:58.292Z</time>
      </trkpt>
      <trkpt lat="49.49122" lon="1.07894">
        <ele>143</ele>
        <time>2026-07-07T13:41:02.716Z</time>
      </trkpt>
      <trkpt lat="49.49122" lon="1.07901">
        <ele>143</ele>
        <time>2026-07-07T13:41:06.835Z</time>
      </trkpt>
      <trkpt lat="49.49121" lon="1.07907">
        <ele>146</ele>
        <time>2026-07-07T13:41:11.172Z</time>
      </trkpt>
      <trkpt lat="49.49119" lon="1.0791">
        <ele>146</ele>
        <time>2026-07-07T13:41:15.521Z</time>
      </trkpt>
      <trkpt lat="49.4912" lon="1.07916">
        <ele>146</ele>
        <time>2026-07-07T13:41:20.100Z</time>
      </trkpt>
      <trkpt lat="49.4912" lon="1.07923">
        <ele>146</ele>
        <time>2026-07-07T13:41:24.607Z</time>
      </trkpt>
      <trkpt lat="49.49123" lon="1.07926">
        <ele>146</ele>
        <time>2026-07-07T13:42:59.762Z</time>
      </trkpt>
      <trkpt lat="49.49121" lon="1.07936">
        <ele>147</ele>
        <time>2026-07-07T13:43:05.718Z</time>
      </trkpt>
      <trkpt lat="49.49118" lon="1.07944">
        <ele>147</ele>
        <time>2026-07-07T13:43:09.872Z</time>
      </trkpt>
      <trkpt lat="49.49113" lon="1.07949">
        <ele>147</ele>
        <time>2026-07-07T13:43:14.133Z</time>
      </trkpt>
      <trkpt lat="49.49111" lon="1.07955">
        <ele>147</ele>
        <time>2026-07-07T13:43:18.387Z</time>
      </trkpt>
      <trkpt lat="49.49111" lon="1.07962">
        <ele>145</ele>
        <time>2026-07-07T13:43:22.761Z</time>
      </trkpt>
      <trkpt lat="49.49112" lon="1.07967">
        <ele>145</ele>
        <time>2026-07-07T13:43:27.056Z</time>
      </trkpt>
      <trkpt lat="49.49113" lon="1.07972">
        <ele>145</ele>
        <time>2026-07-07T13:43:31.181Z</time>
      </trkpt>
      <trkpt lat="49.49111" lon="1.07978">
        <ele>145</ele>
        <time>2026-07-07T13:43:35.384Z</time>
      </trkpt>
      <trkpt lat="49.49107" lon="1.07986">
        <ele>145</ele>
        <time>2026-07-07T13:43:39.632Z</time>
      </trkpt>
      <trkpt lat="49.49102" lon="1.07993">
        <ele>143</ele>
        <time>2026-07-07T13:43:43.966Z</time>
      </trkpt>
      <trkpt lat="49.491" lon="1.07999">
        <ele>143</ele>
        <time>2026-07-07T13:43:48.167Z</time>
      </trkpt>
      <trkpt lat="49.49099" lon="1.08006">
        <ele>143</ele>
        <time>2026-07-07T13:43:52.372Z</time>
      </trkpt>
      <trkpt lat="49.49101" lon="1.08013">
        <ele>143</ele>
        <time>2026-07-07T13:43:57.121Z</time>
      </trkpt>
      <trkpt lat="49.49105" lon="1.0802">
        <ele>144</ele>
        <time>2026-07-07T13:44:01.811Z</time>
      </trkpt>
      <trkpt lat="49.49108" lon="1.08028">
        <ele>144</ele>
        <time>2026-07-07T13:44:05.931Z</time>
      </trkpt>
      <trkpt lat="49.4911" lon="1.08034">
        <ele>144</ele>
        <time>2026-07-07T13:44:10.154Z</time>
      </trkpt>
      <trkpt lat="49.49111" lon="1.08041">
        <ele>144</ele>
        <time>2026-07-07T13:44:14.317Z</time>
      </trkpt>
      <trkpt lat="49.49113" lon="1.08049">
        <ele>146</ele>
        <time>2026-07-07T13:44:18.379Z</time>
      </trkpt>
      <trkpt lat="49.49113" lon="1.08054">
        <ele>146</ele>
        <time>2026-07-07T13:44:22.761Z</time>
      </trkpt>
      <trkpt lat="49.49116" lon="1.08061">
        <ele>146</ele>
        <time>2026-07-07T13:44:26.884Z</time>
      </trkpt>
      <trkpt lat="49.49119" lon="1.08063">
        <ele>146</ele>
        <time>2026-07-07T13:44:30.965Z</time>
      </trkpt>
      <trkpt lat="49.49119" lon="1.08071">
        <ele>149</ele>
        <time>2026-07-07T13:44:35.253Z</time>
      </trkpt>
      <trkpt lat="49.49119" lon="1.08079">
        <ele>149</ele>
        <time>2026-07-07T13:44:39.272Z</time>
      </trkpt>
      <trkpt lat="49.49119" lon="1.08085">
        <ele>149</ele>
        <time>2026-07-07T13:44:43.631Z</time>
      </trkpt>
      <trkpt lat="49.49119" lon="1.08092">
        <ele>149</ele>
        <time>2026-07-07T13:44:47.836Z</time>
      </trkpt>
      <trkpt lat="49.49119" lon="1.08098">
        <ele>151</ele>
        <time>2026-07-07T13:44:52.110Z</time>
      </trkpt>
      <trkpt lat="49.49119" lon="1.08105">
        <ele>151</ele>
        <time>2026-07-07T13:44:56.308Z</time>
      </trkpt>
      <trkpt lat="49.4912" lon="1.08112">
        <ele>151</ele>
        <time>2026-07-07T13:45:00.633Z</time>
      </trkpt>
      <trkpt lat="49.49122" lon="1.08119">
        <ele>151</ele>
        <time>2026-07-07T13:45:04.714Z</time>
      </trkpt>
      <trkpt lat="49.49123" lon="1.08126">
        <ele>153</ele>
        <time>2026-07-07T13:45:08.953Z</time>
      </trkpt>
      <trkpt lat="49.49123" lon="1.08133">
        <ele>153</ele>
        <time>2026-07-07T13:45:13.121Z</time>
      </trkpt>
      <trkpt lat="49.49123" lon="1.0814">
        <ele>153</ele>
        <time>2026-07-07T13:45:17.339Z</time>
      </trkpt>
      <trkpt lat="49.49124" lon="1.08147">
        <ele>153</ele>
        <time>2026-07-07T13:45:22.133Z</time>
      </trkpt>
      <trkpt lat="49.49125" lon="1.08154">
        <ele>155</ele>
        <time>2026-07-07T13:45:26.848Z</time>
      </trkpt>
      <trkpt lat="49.49125" lon="1.0816">
        <ele>155</ele>
        <time>2026-07-07T13:45:31.378Z</time>
      </trkpt>
      <trkpt lat="49.49126" lon="1.08164">
        <ele>155</ele>
        <time>2026-07-07T13:45:35.735Z</time>
      </trkpt>
      <trkpt lat="49.49125" lon="1.0817">
        <ele>155</ele>
        <time>2026-07-07T13:45:40.073Z</time>
      </trkpt>
      <trkpt lat="49.49125" lon="1.08177">
        <ele>155</ele>
        <time>2026-07-07T13:45:44.272Z</time>
      </trkpt>
      <trkpt lat="49.49125" lon="1.08183">
        <ele>158</ele>
        <time>2026-07-07T13:45:48.677Z</time>
      </trkpt>
      <trkpt lat="49.49127" lon="1.08189">
        <ele>158</ele>
        <time>2026-07-07T13:45:52.861Z</time>
      </trkpt>
      <trkpt lat="49.49127" lon="1.08196">
        <ele>158</ele>
        <time>2026-07-07T13:45:57.160Z</time>
      </trkpt>
      <trkpt lat="49.49127" lon="1.08203">
        <ele>158</ele>
        <time>2026-07-07T13:46:01.216Z</time>
      </trkpt>
      <trkpt lat="49.49127" lon="1.08211">
        <ele>159</ele>
        <time>2026-07-07T13:46:05.383Z</time>
      </trkpt>
      <trkpt lat="49.49128" lon="1.08217">
        <ele>159</ele>
        <time>2026-07-07T13:46:09.749Z</time>
      </trkpt>
      <trkpt lat="49.49128" lon="1.08224">
        <ele>159</ele>
        <time>2026-07-07T13:46:14.121Z</time>
      </trkpt>
      <trkpt lat="49.49129" lon="1.0823">
        <ele>159</ele>
        <time>2026-07-07T13:46:18.283Z</time>
      </trkpt>
      <trkpt lat="49.49128" lon="1.08239">
        <ele>159</ele>
        <time>2026-07-07T13:46:22.565Z</time>
      </trkpt>
      <trkpt lat="49.49128" lon="1.08245">
        <ele>159</ele>
        <time>2026-07-07T13:46:26.656Z</time>
      </trkpt>
      <trkpt lat="49.49129" lon="1.08251">
        <ele>159</ele>
        <time>2026-07-07T13:47:52.385Z</time>
      </trkpt>
      <trkpt lat="49.49129" lon="1.08257">
        <ele>159</ele>
        <time>2026-07-07T13:47:59.381Z</time>
      </trkpt>
      <trkpt lat="49.4913" lon="1.08263">
        <ele>159</ele>
        <time>2026-07-07T13:48:04.389Z</time>
      </trkpt>
      <trkpt lat="49.4913" lon="1.0827">
        <ele>159</ele>
        <time>2026-07-07T13:48:10.392Z</time>
      </trkpt>
      <trkpt lat="49.49132" lon="1.08279">
        <ele>159</ele>
        <time>2026-07-07T13:48:18.383Z</time>
      </trkpt>
      <trkpt lat="49.49131" lon="1.08286">
        <ele>159</ele>
        <time>2026-07-07T13:48:23.384Z</time>
      </trkpt>
      <trkpt lat="49.4913" lon="1.0829">
        <ele>159</ele>
        <time>2026-07-07T13:48:28.387Z</time>
      </trkpt>
      <trkpt lat="49.49133" lon="1.08297">
        <ele>159</ele>
        <time>2026-07-07T13:48:33.379Z</time>
      </trkpt>
      <trkpt lat="49.49136" lon="1.08301">
        <ele>159</ele>
        <time>2026-07-07T13:48:37.400Z</time>
      </trkpt>
      <trkpt lat="49.49136" lon="1.08309">
        <ele>159</ele>
        <time>2026-07-07T13:48:42.373Z</time>
      </trkpt>
      <trkpt lat="49.49137" lon="1.08317">
        <ele>159</ele>
        <time>2026-07-07T13:48:46.383Z</time>
      </trkpt>
      <trkpt lat="49.49135" lon="1.08325">
        <ele>159</ele>
        <time>2026-07-07T13:48:51.272Z</time>
      </trkpt>
      <trkpt lat="49.49135" lon="1.08331">
        <ele>159</ele>
        <time>2026-07-07T13:48:55.645Z</time>
      </trkpt>
      <trkpt lat="49.49135" lon="1.08337">
        <ele>159</ele>
        <time>2026-07-07T13:48:59.977Z</time>
      </trkpt>
      <trkpt lat="49.49135" lon="1.08344">
        <ele>159</ele>
        <time>2026-07-07T13:49:04.046Z</time>
      </trkpt>
      <trkpt lat="49.49136" lon="1.0835">
        <ele>160</ele>
        <time>2026-07-07T13:49:08.348Z</time>
      </trkpt>
      <trkpt lat="49.49138" lon="1.08358">
        <ele>160</ele>
        <time>2026-07-07T13:49:12.486Z</time>
      </trkpt>
      <trkpt lat="49.49138" lon="1.08366">
        <ele>160</ele>
        <time>2026-07-07T13:49:16.816Z</time>
      </trkpt>
      <trkpt lat="49.49139" lon="1.08373">
        <ele>160</ele>
        <time>2026-07-07T13:49:21.247Z</time>
      </trkpt>
      <trkpt lat="49.49139" lon="1.08381">
        <ele>161</ele>
        <time>2026-07-07T13:49:25.380Z</time>
      </trkpt>
      <trkpt lat="49.49139" lon="1.08388">
        <ele>161</ele>
        <time>2026-07-07T13:49:29.388Z</time>
      </trkpt>
      <trkpt lat="49.49137" lon="1.08393">
        <ele>161</ele>
        <time>2026-07-07T13:49:33.848Z</time>
      </trkpt>
      <trkpt lat="49.49139" lon="1.08387">
        <ele>161</ele>
        <time>2026-07-07T13:49:38.310Z</time>
      </trkpt>
      <trkpt lat="49.4914" lon="1.08387">
        <ele>161</ele>
        <time>2026-07-07T13:49:42.609Z</time>
      </trkpt>
      <trkpt lat="49.49141" lon="1.08388">
        <ele>161</ele>
        <time>2026-07-07T13:49:46.956Z</time>
      </trkpt>
      <trkpt lat="49.49142" lon="1.08388">
        <ele>161</ele>
        <time>2026-07-07T13:49:51.309Z</time>
      </trkpt>
      <trkpt lat="49.49143" lon="1.08388">
        <ele>161</ele>
        <time>2026-07-07T13:49:55.589Z</time>
      </trkpt>
      <trkpt lat="49.4914" lon="1.08392">
        <ele>161</ele>
        <time>2026-07-07T13:49:59.871Z</time>
      </trkpt>
      <trkpt lat="49.4914" lon="1.08392">
        <ele>161</ele>
        <time>2026-07-07T13:50:04.312Z</time>
      </trkpt>
      <trkpt lat="49.49139" lon="1.08392">
        <ele>161</ele>
        <time>2026-07-07T13:50:08.716Z</time>
      </trkpt>
      <trkpt lat="49.49138" lon="1.08391">
        <ele>161</ele>
        <time>2026-07-07T13:50:13.156Z</time>
      </trkpt>
      <trkpt lat="49.49135" lon="1.08397">
        <ele>161</ele>
        <time>2026-07-07T13:50:17.380Z</time>
      </trkpt>
      <trkpt lat="49.49136" lon="1.08398">
        <ele>161</ele>
        <time>2026-07-07T13:50:21.793Z</time>
      </trkpt>
      <trkpt lat="49.49133" lon="1.08392">
        <ele>161</ele>
        <time>2026-07-07T13:50:26.126Z</time>
      </trkpt>
      <trkpt lat="49.49128" lon="1.08386">
        <ele>161</ele>
        <time>2026-07-07T13:50:30.655Z</time>
      </trkpt>
      <trkpt lat="49.49124" lon="1.08383">
        <ele>160</ele>
        <time>2026-07-07T13:50:35.167Z</time>
      </trkpt>
      <trkpt lat="49.49118" lon="1.0838">
        <ele>160</ele>
        <time>2026-07-07T13:50:39.381Z</time>
      </trkpt>
      <trkpt lat="49.49112" lon="1.08377">
        <ele>160</ele>
        <time>2026-07-07T13:50:43.930Z</time>
      </trkpt>
      <trkpt lat="49.49107" lon="1.08375">
        <ele>160</ele>
        <time>2026-07-07T13:50:48.299Z</time>
      </trkpt>
      <trkpt lat="49.49102" lon="1.08374">
        <ele>160</ele>
        <time>2026-07-07T13:50:52.373Z</time>
      </trkpt>
      <trkpt lat="49.49097" lon="1.08372">
        <ele>160</ele>
        <time>2026-07-07T13:50:56.772Z</time>
      </trkpt>
      <trkpt lat="49.49091" lon="1.0837">
        <ele>160</ele>
        <time>2026-07-07T13:51:00.956Z</time>
      </trkpt>
      <trkpt lat="49.49086" lon="1.08368">
        <ele>160</ele>
        <time>2026-07-07T13:51:05.229Z</time>
      </trkpt>
      <trkpt lat="49.49081" lon="1.08366">
        <ele>160</ele>
        <time>2026-07-07T13:51:09.651Z</time>
      </trkpt>
      <trkpt lat="49.49077" lon="1.08364">
        <ele>160</ele>
        <time>2026-07-07T13:51:13.934Z</time>
      </trkpt>
      <trkpt lat="49.49073" lon="1.08361">
        <ele>160</ele>
        <time>2026-07-07T13:51:18.118Z</time>
      </trkpt>
      <trkpt lat="49.49069" lon="1.08359">
        <ele>160</ele>
        <time>2026-07-07T13:51:22.793Z</time>
      </trkpt>
      <trkpt lat="49.49067" lon="1.0836">
        <ele>160</ele>
        <time>2026-07-07T13:51:26.913Z</time>
      </trkpt>
      <trkpt lat="49.49063" lon="1.08356">
        <ele>160</ele>
        <time>2026-07-07T13:51:31.056Z</time>
      </trkpt>
      <trkpt lat="49.49058" lon="1.08354">
        <ele>160</ele>
        <time>2026-07-07T13:51:35.313Z</time>
      </trkpt>
      <trkpt lat="49.49054" lon="1.08352">
        <ele>160</ele>
        <time>2026-07-07T13:51:39.384Z</time>
      </trkpt>
      <trkpt lat="49.4905" lon="1.08351">
        <ele>160</ele>
        <time>2026-07-07T13:51:43.869Z</time>
      </trkpt>
      <trkpt lat="49.49045" lon="1.08349">
        <ele>160</ele>
        <time>2026-07-07T13:51:47.955Z</time>
      </trkpt>
      <trkpt lat="49.49039" lon="1.08348">
        <ele>157</ele>
        <time>2026-07-07T13:51:52.173Z</time>
      </trkpt>
      <trkpt lat="49.49035" lon="1.08348">
        <ele>157</ele>
        <time>2026-07-07T13:51:56.260Z</time>
      </trkpt>
      <trkpt lat="49.4903" lon="1.08346">
        <ele>158</ele>
        <time>2026-07-07T13:52:00.357Z</time>
      </trkpt>
      <trkpt lat="49.49025" lon="1.08343">
        <ele>158</ele>
        <time>2026-07-07T13:52:04.380Z</time>
      </trkpt>
      <trkpt lat="49.49021" lon="1.08341">
        <ele>158</ele>
        <time>2026-07-07T13:52:09.140Z</time>
      </trkpt>
      <trkpt lat="49.49017" lon="1.08339">
        <ele>158</ele>
        <time>2026-07-07T13:52:13.314Z</time>
      </trkpt>
      <trkpt lat="49.49012" lon="1.08339">
        <ele>155</ele>
        <time>2026-07-07T13:52:17.310Z</time>
      </trkpt>
      <trkpt lat="49.49008" lon="1.08338">
        <ele>155</ele>
        <time>2026-07-07T13:52:22.161Z</time>
      </trkpt>
      <trkpt lat="49.49003" lon="1.08334">
        <ele>155</ele>
        <time>2026-07-07T13:52:26.376Z</time>
      </trkpt>
      <trkpt lat="49.48997" lon="1.08333">
        <ele>155</ele>
        <time>2026-07-07T13:52:31.101Z</time>
      </trkpt>
      <trkpt lat="49.48991" lon="1.08329">
        <ele>155</ele>
        <time>2026-07-07T13:52:35.573Z</time>
      </trkpt>
      <trkpt lat="49.48987" lon="1.08325">
        <ele>155</ele>
        <time>2026-07-07T13:52:40.193Z</time>
      </trkpt>
      <trkpt lat="49.48983" lon="1.08323">
        <ele>152</ele>
        <time>2026-07-07T13:52:44.295Z</time>
      </trkpt>
      <trkpt lat="49.48979" lon="1.08324">
        <ele>152</ele>
        <time>2026-07-07T13:52:48.296Z</time>
      </trkpt>
      <trkpt lat="49.48975" lon="1.08322">
        <ele>152</ele>
        <time>2026-07-07T13:52:52.378Z</time>
      </trkpt>
      <trkpt lat="49.48971" lon="1.08319">
        <ele>153</ele>
        <time>2026-07-07T13:52:56.360Z</time>
      </trkpt>
      <trkpt lat="49.48967" lon="1.08316">
        <ele>153</ele>
        <time>2026-07-07T13:53:01.132Z</time>
      </trkpt>
      <trkpt lat="49.48963" lon="1.08312">
        <ele>153</ele>
        <time>2026-07-07T13:53:05.269Z</time>
      </trkpt>
      <trkpt lat="49.48959" lon="1.08312">
        <ele>153</ele>
        <time>2026-07-07T13:53:09.818Z</time>
      </trkpt>
      <trkpt lat="49.48956" lon="1.08311">
        <ele>147</ele>
        <time>2026-07-07T13:53:14.295Z</time>
      </trkpt>
      <trkpt lat="49.48953" lon="1.0831">
        <ele>147</ele>
        <time>2026-07-07T13:53:18.976Z</time>
      </trkpt>
      <trkpt lat="49.4895" lon="1.08312">
        <ele>147</ele>
        <time>2026-07-07T13:53:23.388Z</time>
      </trkpt>
      <trkpt lat="49.48945" lon="1.08311">
        <ele>147</ele>
        <time>2026-07-07T13:53:28.204Z</time>
      </trkpt>
      <trkpt lat="49.4894" lon="1.08308">
        <ele>147</ele>
        <time>2026-07-07T13:53:32.274Z</time>
      </trkpt>
      <trkpt lat="49.48936" lon="1.08305">
        <ele>147</ele>
        <time>2026-07-07T13:53:36.377Z</time>
      </trkpt>
      <trkpt lat="49.48932" lon="1.08301">
        <ele>147</ele>
        <time>2026-07-07T13:53:41.245Z</time>
      </trkpt>
      <trkpt lat="49.48927" lon="1.08299">
        <ele>140</ele>
        <time>2026-07-07T13:53:45.691Z</time>
      </trkpt>
      <trkpt lat="49.48925" lon="1.08296">
        <ele>140</ele>
        <time>2026-07-07T13:53:50.137Z</time>
      </trkpt>
      <trkpt lat="49.48925" lon="1.08293">
        <ele>140</ele>
        <time>2026-07-07T13:53:54.178Z</time>
      </trkpt>
      <trkpt lat="49.48922" lon="1.08291">
        <ele>141</ele>
        <time>2026-07-07T13:53:58.337Z</time>
      </trkpt>
      <trkpt lat="49.48918" lon="1.0829">
        <ele>141</ele>
        <time>2026-07-07T13:54:02.377Z</time>
      </trkpt>
      <trkpt lat="49.48915" lon="1.08292">
        <ele>140</ele>
        <time>2026-07-07T13:54:06.387Z</time>
      </trkpt>
      <trkpt lat="49.48915" lon="1.08294">
        <ele>140</ele>
        <time>2026-07-07T13:54:10.385Z</time>
      </trkpt>
      <trkpt lat="49.48915" lon="1.08294">
        <ele>140</ele>
        <time>2026-07-07T13:54:14.600Z</time>
      </trkpt>
      <trkpt lat="49.48912" lon="1.08299">
        <ele>140</ele>
        <time>2026-07-07T13:54:19.248Z</time>
      </trkpt>
      <trkpt lat="49.48908" lon="1.08299">
        <ele>140</ele>
        <time>2026-07-07T13:54:23.727Z</time>
      </trkpt>
      <trkpt lat="49.48905" lon="1.08296">
        <ele>140</ele>
        <time>2026-07-07T13:54:28.336Z</time>
      </trkpt>
      <trkpt lat="49.489" lon="1.08294">
        <ele>132</ele>
        <time>2026-07-07T13:54:32.350Z</time>
      </trkpt>
      <trkpt lat="49.48896" lon="1.08291">
        <ele>132</ele>
        <time>2026-07-07T13:54:36.388Z</time>
      </trkpt>
      <trkpt lat="49.48894" lon="1.08289">
        <ele>132</ele>
        <time>2026-07-07T13:54:40.372Z</time>
      </trkpt>
      <trkpt lat="49.48891" lon="1.08284">
        <ele>132</ele>
        <time>2026-07-07T13:54:44.385Z</time>
      </trkpt>
      <trkpt lat="49.48888" lon="1.08282">
        <ele>132</ele>
        <time>2026-07-07T13:54:48.393Z</time>
      </trkpt>
      <trkpt lat="49.48885" lon="1.08279">
        <ele>132</ele>
        <time>2026-07-07T13:54:53.013Z</time>
      </trkpt>
      <trkpt lat="49.48886" lon="1.08275">
        <ele>132</ele>
        <time>2026-07-07T13:54:57.389Z</time>
      </trkpt>
      <trkpt lat="49.48884" lon="1.08277">
        <ele>132</ele>
        <time>2026-07-07T13:55:01.794Z</time>
      </trkpt>
      <trkpt lat="49.48879" lon="1.08278">
        <ele>132</ele>
        <time>2026-07-07T13:55:06.118Z</time>
      </trkpt>
      <trkpt lat="49.48876" lon="1.08278">
        <ele>132</ele>
        <time>2026-07-07T13:55:10.383Z</time>
      </trkpt>
      <trkpt lat="49.48875" lon="1.08277">
        <ele>132</ele>
        <time>2026-07-07T13:55:14.935Z</time>
      </trkpt>
      <trkpt lat="49.48874" lon="1.08275">
        <ele>124</ele>
        <time>2026-07-07T13:55:19.380Z</time>
      </trkpt>
      <trkpt lat="49.48871" lon="1.08275">
        <ele>124</ele>
        <time>2026-07-07T13:55:23.386Z</time>
      </trkpt>
      <trkpt lat="49.48867" lon="1.08276">
        <ele>124</ele>
        <time>2026-07-07T13:55:27.380Z</time>
      </trkpt>
      <trkpt lat="49.48864" lon="1.08276">
        <ele>124</ele>
        <time>2026-07-07T13:55:32.012Z</time>
      </trkpt>
      <trkpt lat="49.48861" lon="1.08273">
        <ele>124</ele>
        <time>2026-07-07T13:55:36.380Z</time>
      </trkpt>
      <trkpt lat="49.48858" lon="1.08272">
        <ele>124</ele>
        <time>2026-07-07T13:55:40.953Z</time>
      </trkpt>
      <trkpt lat="49.48856" lon="1.08274">
        <ele>124</ele>
        <time>2026-07-07T13:55:45.377Z</time>
      </trkpt>
      <trkpt lat="49.48854" lon="1.08274">
        <ele>124</ele>
        <time>2026-07-07T13:55:49.385Z</time>
      </trkpt>
      <trkpt lat="49.48851" lon="1.08266">
        <ele>124</ele>
        <time>2026-07-07T13:55:54.135Z</time>
      </trkpt>
      <trkpt lat="49.48847" lon="1.08264">
        <ele>119</ele>
        <time>2026-07-07T13:55:58.714Z</time>
      </trkpt>
      <trkpt lat="49.48844" lon="1.0826">
        <ele>121</ele>
        <time>2026-07-07T13:56:03.337Z</time>
      </trkpt>
      <trkpt lat="49.48841" lon="1.08257">
        <ele>121</ele>
        <time>2026-07-07T13:56:07.363Z</time>
      </trkpt>
      <trkpt lat="49.48837" lon="1.08257">
        <ele>121</ele>
        <time>2026-07-07T13:56:48.377Z</time>
      </trkpt>
      <trkpt lat="49.48833" lon="1.08257">
        <ele>121</ele>
        <time>2026-07-07T13:56:52.384Z</time>
      </trkpt>
      <trkpt lat="49.48829" lon="1.08255">
        <ele>121</ele>
        <time>2026-07-07T13:56:57.383Z</time>
      </trkpt>
      <trkpt lat="49.48823" lon="1.08255">
        <ele>121</ele>
        <time>2026-07-07T13:57:01.374Z</time>
      </trkpt>
      <trkpt lat="49.48823" lon="1.08262">
        <ele>121</ele>
        <time>2026-07-07T13:57:06.384Z</time>
      </trkpt>
      <trkpt lat="49.48825" lon="1.08263">
        <ele>121</ele>
        <time>2026-07-07T14:13:04.372Z</time>
      </trkpt>
      <trkpt lat="49.48826" lon="1.08265">
        <ele>119</ele>
        <time>2026-07-07T14:13:08.377Z</time>
      </trkpt>
      <trkpt lat="49.48826" lon="1.08265">
        <ele>119</ele>
        <time>2026-07-07T14:13:12.370Z</time>
      </trkpt>
      <trkpt lat="49.48825" lon="1.08267">
        <ele>119</ele>
        <time>2026-07-07T14:13:17.338Z</time>
      </trkpt>
      <trkpt lat="49.48821" lon="1.08274">
        <ele>119</ele>
        <time>2026-07-07T14:13:21.379Z</time>
      </trkpt>
      <trkpt lat="49.48818" lon="1.08271">
        <ele>120</ele>
        <time>2026-07-07T14:13:56.667Z</time>
      </trkpt>
      <trkpt lat="49.48816" lon="1.0828">
        <ele>120</ele>
        <time>2026-07-07T14:14:01.072Z</time>
      </trkpt>
      <trkpt lat="49.48818" lon="1.08285">
        <ele>120</ele>
        <time>2026-07-07T14:14:05.376Z</time>
      </trkpt>
      <trkpt lat="49.48816" lon="1.08293">
        <ele>119</ele>
        <time>2026-07-07T14:14:09.865Z</time>
      </trkpt>
      <trkpt lat="49.48818" lon="1.083">
        <ele>119</ele>
        <time>2026-07-07T14:14:14.011Z</time>
      </trkpt>
      <trkpt lat="49.4882" lon="1.08306">
        <ele>118</ele>
        <time>2026-07-07T14:14:18.372Z</time>
      </trkpt>
      <trkpt lat="49.48822" lon="1.08313">
        <ele>118</ele>
        <time>2026-07-07T14:14:22.632Z</time>
      </trkpt>
      <trkpt lat="49.48824" lon="1.08321">
        <ele>117</ele>
        <time>2026-07-07T14:14:27.035Z</time>
      </trkpt>
      <trkpt lat="49.48824" lon="1.08327">
        <ele>117</ele>
        <time>2026-07-07T14:14:31.318Z</time>
      </trkpt>
      <trkpt lat="49.48825" lon="1.08335">
        <ele>117</ele>
        <time>2026-07-07T14:14:35.536Z</time>
      </trkpt>
      <trkpt lat="49.48824" lon="1.08343">
        <ele>117</ele>
        <time>2026-07-07T14:14:39.873Z</time>
      </trkpt>
      <trkpt lat="49.48823" lon="1.0835">
        <ele>117</ele>
        <time>2026-07-07T14:14:44.296Z</time>
      </trkpt>
      <trkpt lat="49.48823" lon="1.08357">
        <ele>117</ele>
        <time>2026-07-07T14:14:48.796Z</time>
      </trkpt>
      <trkpt lat="49.48823" lon="1.08363">
        <ele>117</ele>
        <time>2026-07-07T14:14:53.123Z</time>
      </trkpt>
      <trkpt lat="49.48822" lon="1.08369">
        <ele>117</ele>
        <time>2026-07-07T14:14:57.374Z</time>
      </trkpt>
      <trkpt lat="49.48822" lon="1.08377">
        <ele>114</ele>
        <time>2026-07-07T14:15:01.817Z</time>
      </trkpt>
      <trkpt lat="49.48822" lon="1.08384">
        <ele>114</ele>
        <time>2026-07-07T14:15:06.057Z</time>
      </trkpt>
      <trkpt lat="49.48822" lon="1.08391">
        <ele>114</ele>
        <time>2026-07-07T14:15:10.193Z</time>
      </trkpt>
      <trkpt lat="49.48821" lon="1.08397">
        <ele>114</ele>
        <time>2026-07-07T14:15:14.369Z</time>
      </trkpt>
      <trkpt lat="49.48821" lon="1.08402">
        <ele>114</ele>
        <time>2026-07-07T14:15:18.659Z</time>
      </trkpt>
      <trkpt lat="49.48822" lon="1.08408">
        <ele>114</ele>
        <time>2026-07-07T14:15:22.772Z</time>
      </trkpt>
      <trkpt lat="49.48824" lon="1.08414">
        <ele>114</ele>
        <time>2026-07-07T14:15:27.069Z</time>
      </trkpt>
      <trkpt lat="49.48826" lon="1.08419">
        <ele>114</ele>
        <time>2026-07-07T14:15:31.371Z</time>
      </trkpt>
      <trkpt lat="49.48827" lon="1.08425">
        <ele>114</ele>
        <time>2026-07-07T14:15:35.636Z</time>
      </trkpt>
      <trkpt lat="49.48827" lon="1.08433">
        <ele>114</ele>
        <time>2026-07-07T14:15:39.928Z</time>
      </trkpt>
      <trkpt lat="49.48826" lon="1.08439">
        <ele>114</ele>
        <time>2026-07-07T14:15:44.316Z</time>
      </trkpt>
      <trkpt lat="49.48825" lon="1.08447">
        <ele>114</ele>
        <time>2026-07-07T14:15:48.548Z</time>
      </trkpt>
      <trkpt lat="49.48827" lon="1.08453">
        <ele>114</ele>
        <time>2026-07-07T14:15:52.919Z</time>
      </trkpt>
      <trkpt lat="49.4883" lon="1.08457">
        <ele>114</ele>
        <time>2026-07-07T14:15:57.204Z</time>
      </trkpt>
      <trkpt lat="49.48832" lon="1.08462">
        <ele>116</ele>
        <time>2026-07-07T14:16:01.560Z</time>
      </trkpt>
      <trkpt lat="49.48831" lon="1.08471">
        <ele>116</ele>
        <time>2026-07-07T14:16:06.001Z</time>
      </trkpt>
      <trkpt lat="49.4883" lon="1.08481">
        <ele>116</ele>
        <time>2026-07-07T14:16:10.376Z</time>
      </trkpt>
      <trkpt lat="49.48829" lon="1.08488">
        <ele>119</ele>
        <time>2026-07-07T14:16:15.075Z</time>
      </trkpt>
      <trkpt lat="49.48828" lon="1.08496">
        <ele>119</ele>
        <time>2026-07-07T14:16:19.609Z</time>
      </trkpt>
      <trkpt lat="49.48828" lon="1.08502">
        <ele>119</ele>
        <time>2026-07-07T14:16:24.109Z</time>
      </trkpt>
      <trkpt lat="49.48827" lon="1.08508">
        <ele>119</ele>
        <time>2026-07-07T14:16:28.611Z</time>
      </trkpt>
      <trkpt lat="49.48826" lon="1.08514">
        <ele>122</ele>
        <time>2026-07-07T14:16:32.886Z</time>
      </trkpt>
      <trkpt lat="49.48825" lon="1.08521">
        <ele>122</ele>
        <time>2026-07-07T14:16:37.374Z</time>
      </trkpt>
      <trkpt lat="49.48823" lon="1.08528">
        <ele>122</ele>
        <time>2026-07-07T14:16:41.863Z</time>
      </trkpt>
      <trkpt lat="49.48823" lon="1.08537">
        <ele>122</ele>
        <time>2026-07-07T14:16:45.883Z</time>
      </trkpt>
      <trkpt lat="49.48823" lon="1.08542">
        <ele>125</ele>
        <time>2026-07-07T14:16:50.297Z</time>
      </trkpt>
      <trkpt lat="49.48824" lon="1.08547">
        <ele>125</ele>
        <time>2026-07-07T14:16:54.795Z</time>
      </trkpt>
      <trkpt lat="49.48824" lon="1.08553">
        <ele>125</ele>
        <time>2026-07-07T14:16:58.874Z</time>
      </trkpt>
      <trkpt lat="49.48824" lon="1.08558">
        <ele>125</ele>
        <time>2026-07-07T14:17:03.371Z</time>
      </trkpt>
      <trkpt lat="49.48822" lon="1.08564">
        <ele>125</ele>
        <time>2026-07-07T14:17:08.134Z</time>
      </trkpt>
      <trkpt lat="49.48822" lon="1.08571">
        <ele>127</ele>
        <time>2026-07-07T14:17:12.658Z</time>
      </trkpt>
      <trkpt lat="49.48823" lon="1.08578">
        <ele>127</ele>
        <time>2026-07-07T14:17:17.271Z</time>
      </trkpt>
      <trkpt lat="49.48823" lon="1.08584">
        <ele>127</ele>
        <time>2026-07-07T14:17:21.976Z</time>
      </trkpt>
      <trkpt lat="49.48824" lon="1.0859">
        <ele>127</ele>
        <time>2026-07-07T14:17:26.367Z</time>
      </trkpt>
      <trkpt lat="49.48825" lon="1.08595">
        <ele>127</ele>
        <time>2026-07-07T14:17:30.374Z</time>
      </trkpt>
      <trkpt lat="49.48827" lon="1.08603">
        <ele>129</ele>
        <time>2026-07-07T14:17:34.376Z</time>
      </trkpt>
      <trkpt lat="49.48829" lon="1.0861">
        <ele>129</ele>
        <time>2026-07-07T14:17:38.706Z</time>
      </trkpt>
      <trkpt lat="49.4883" lon="1.08617">
        <ele>129</ele>
        <time>2026-07-07T14:17:42.890Z</time>
      </trkpt>
      <trkpt lat="49.48832" lon="1.08623">
        <ele>129</ele>
        <time>2026-07-07T14:17:51.377Z</time>
      </trkpt>
      <trkpt lat="49.48834" lon="1.08629">
        <ele>131</ele>
        <time>2026-07-07T14:17:55.915Z</time>
      </trkpt>
      <trkpt lat="49.48837" lon="1.08635">
        <ele>131</ele>
        <time>2026-07-07T14:18:00.376Z</time>
      </trkpt>
      <trkpt lat="49.48839" lon="1.08642">
        <ele>131</ele>
        <time>2026-07-07T14:18:04.795Z</time>
      </trkpt>
      <trkpt lat="49.48841" lon="1.08649">
        <ele>131</ele>
        <time>2026-07-07T14:18:08.892Z</time>
      </trkpt>
      <trkpt lat="49.48843" lon="1.08655">
        <ele>134</ele>
        <time>2026-07-07T14:18:13.335Z</time>
      </trkpt>
      <trkpt lat="49.48845" lon="1.08661">
        <ele>134</ele>
        <time>2026-07-07T14:18:17.773Z</time>
      </trkpt>
      <trkpt lat="49.48849" lon="1.08663">
        <ele>135</ele>
        <time>2026-07-07T14:18:21.881Z</time>
      </trkpt>
      <trkpt lat="49.48852" lon="1.08672">
        <ele>135</ele>
        <time>2026-07-07T14:18:26.369Z</time>
      </trkpt>
      <trkpt lat="49.48854" lon="1.08678">
        <ele>135</ele>
        <time>2026-07-07T14:18:30.696Z</time>
      </trkpt>
      <trkpt lat="49.48857" lon="1.08686">
        <ele>136</ele>
        <time>2026-07-07T14:18:34.998Z</time>
      </trkpt>
      <trkpt lat="49.48859" lon="1.08692">
        <ele>136</ele>
        <time>2026-07-07T14:18:39.283Z</time>
      </trkpt>
      <trkpt lat="49.48861" lon="1.08699">
        <ele>136</ele>
        <time>2026-07-07T14:18:43.371Z</time>
      </trkpt>
      <trkpt lat="49.48863" lon="1.08708">
        <ele>138</ele>
        <time>2026-07-07T14:18:47.835Z</time>
      </trkpt>
      <trkpt lat="49.48865" lon="1.08715">
        <ele>138</ele>
        <time>2026-07-07T14:18:52.117Z</time>
      </trkpt>
      <trkpt lat="49.4887" lon="1.0872">
        <ele>138</ele>
        <time>2026-07-07T14:18:56.369Z</time>
      </trkpt>
      <trkpt lat="49.48876" lon="1.08724">
        <ele>136</ele>
        <time>2026-07-07T14:19:00.372Z</time>
      </trkpt>
      <trkpt lat="49.4888" lon="1.08729">
        <ele>136</ele>
        <time>2026-07-07T14:19:04.369Z</time>
      </trkpt>
      <trkpt lat="49.48884" lon="1.08735">
        <ele>136</ele>
        <time>2026-07-07T14:19:08.728Z</time>
      </trkpt>
      <trkpt lat="49.48887" lon="1.0874">
        <ele>138</ele>
        <time>2026-07-07T14:19:12.936Z</time>
      </trkpt>
      <trkpt lat="49.48891" lon="1.08746">
        <ele>138</ele>
        <time>2026-07-07T14:19:17.193Z</time>
      </trkpt>
      <trkpt lat="49.48894" lon="1.08752">
        <ele>138</ele>
        <time>2026-07-07T14:19:21.378Z</time>
      </trkpt>
      <trkpt lat="49.48896" lon="1.08759">
        <ele>138</ele>
        <time>2026-07-07T14:19:25.712Z</time>
      </trkpt>
      <trkpt lat="49.48897" lon="1.08766">
        <ele>141</ele>
        <time>2026-07-07T14:19:30.168Z</time>
      </trkpt>
      <trkpt lat="49.48901" lon="1.08772">
        <ele>141</ele>
        <time>2026-07-07T14:19:34.509Z</time>
      </trkpt>
      <trkpt lat="49.48904" lon="1.08778">
        <ele>137</ele>
        <time>2026-07-07T14:19:38.612Z</time>
      </trkpt>
      <trkpt lat="49.48907" lon="1.08782">
        <ele>137</ele>
        <time>2026-07-07T14:19:43.156Z</time>
      </trkpt>
      <trkpt lat="49.4891" lon="1.08788">
        <ele>137</ele>
        <time>2026-07-07T14:19:47.375Z</time>
      </trkpt>
      <trkpt lat="49.48914" lon="1.08792">
        <ele>139</ele>
        <time>2026-07-07T14:19:51.497Z</time>
      </trkpt>
      <trkpt lat="49.48917" lon="1.08797">
        <ele>139</ele>
        <time>2026-07-07T14:19:55.575Z</time>
      </trkpt>
      <trkpt lat="49.4892" lon="1.08802">
        <ele>139</ele>
        <time>2026-07-07T14:20:00.068Z</time>
      </trkpt>
      <trkpt lat="49.48923" lon="1.08807">
        <ele>139</ele>
        <time>2026-07-07T14:20:04.570Z</time>
      </trkpt>
      <trkpt lat="49.48926" lon="1.08811">
        <ele>139</ele>
        <time>2026-07-07T14:23:23.376Z</time>
      </trkpt>
      <trkpt lat="49.48929" lon="1.08815">
        <ele>139</ele>
        <time>2026-07-07T14:23:28.367Z</time>
      </trkpt>
      <trkpt lat="49.48931" lon="1.0882">
        <ele>141</ele>
        <time>2026-07-07T14:23:33.374Z</time>
      </trkpt>
      <trkpt lat="49.48932" lon="1.08826">
        <ele>141</ele>
        <time>2026-07-07T14:23:41.375Z</time>
      </trkpt>
      <trkpt lat="49.48935" lon="1.08832">
        <ele>141</ele>
        <time>2026-07-07T14:23:46.367Z</time>
      </trkpt>
      <trkpt lat="49.48935" lon="1.08839">
        <ele>141</ele>
        <time>2026-07-07T14:24:21.366Z</time>
      </trkpt>
      <trkpt lat="49.48935" lon="1.08848">
        <ele>140</ele>
        <time>2026-07-07T14:24:26.368Z</time>
      </trkpt>
      <trkpt lat="49.48936" lon="1.08856">
        <ele>140</ele>
        <time>2026-07-07T14:24:31.365Z</time>
      </trkpt>
      <trkpt lat="49.48937" lon="1.08863">
        <ele>140</ele>
        <time>2026-07-07T14:24:35.378Z</time>
      </trkpt>
      <trkpt lat="49.48939" lon="1.08869">
        <ele>140</ele>
        <time>2026-07-07T14:24:40.296Z</time>
      </trkpt>
      <trkpt lat="49.4894" lon="1.08875">
        <ele>141</ele>
        <time>2026-07-07T14:24:44.275Z</time>
      </trkpt>
      <trkpt lat="49.48941" lon="1.08879">
        <ele>141</ele>
        <time>2026-07-07T14:24:48.372Z</time>
      </trkpt>
      <trkpt lat="49.48943" lon="1.08884">
        <ele>141</ele>
        <time>2026-07-07T14:24:52.873Z</time>
      </trkpt>
      <trkpt lat="49.48943" lon="1.08889">
        <ele>141</ele>
        <time>2026-07-07T14:24:57.377Z</time>
      </trkpt>
      <trkpt lat="49.4894" lon="1.08896">
        <ele>141</ele>
        <time>2026-07-07T14:25:01.378Z</time>
      </trkpt>
      <trkpt lat="49.48939" lon="1.08902">
        <ele>141</ele>
        <time>2026-07-07T14:25:06.263Z</time>
      </trkpt>
      <trkpt lat="49.48938" lon="1.08909">
        <ele>141</ele>
        <time>2026-07-07T14:25:10.828Z</time>
      </trkpt>
      <trkpt lat="49.48937" lon="1.08915">
        <ele>141</ele>
        <time>2026-07-07T14:25:15.338Z</time>
      </trkpt>
      <trkpt lat="49.48937" lon="1.08922">
        <ele>141</ele>
        <time>2026-07-07T14:25:19.324Z</time>
      </trkpt>
      <trkpt lat="49.48937" lon="1.0893">
        <ele>141</ele>
        <time>2026-07-07T14:25:23.977Z</time>
      </trkpt>
      <trkpt lat="49.48937" lon="1.08937">
        <ele>141</ele>
        <time>2026-07-07T14:25:27.965Z</time>
      </trkpt>
      <trkpt lat="49.48936" lon="1.08944">
        <ele>141</ele>
        <time>2026-07-07T14:25:32.553Z</time>
      </trkpt>
      <trkpt lat="49.48936" lon="1.08952">
        <ele>141</ele>
        <time>2026-07-07T14:25:37.270Z</time>
      </trkpt>
      <trkpt lat="49.48935" lon="1.08961">
        <ele>140</ele>
        <time>2026-07-07T14:25:41.373Z</time>
      </trkpt>
      <trkpt lat="49.48936" lon="1.08969">
        <ele>140</ele>
        <time>2026-07-07T14:25:45.812Z</time>
      </trkpt>
      <trkpt lat="49.48935" lon="1.08978">
        <ele>140</ele>
        <time>2026-07-07T14:25:49.872Z</time>
      </trkpt>
      <trkpt lat="49.48934" lon="1.08987">
        <ele>139</ele>
        <time>2026-07-07T14:25:54.366Z</time>
      </trkpt>
      <trkpt lat="49.48933" lon="1.08994">
        <ele>139</ele>
        <time>2026-07-07T14:25:58.692Z</time>
      </trkpt>
      <trkpt lat="49.48932" lon="1.09001">
        <ele>139</ele>
        <time>2026-07-07T14:26:03.295Z</time>
      </trkpt>
      <trkpt lat="49.48933" lon="1.09007">
        <ele>139</ele>
        <time>2026-07-07T14:26:07.334Z</time>
      </trkpt>
      <trkpt lat="49.48934" lon="1.09012">
        <ele>139</ele>
        <time>2026-07-07T14:26:11.973Z</time>
      </trkpt>
      <trkpt lat="49.48934" lon="1.09017">
        <ele>139</ele>
        <time>2026-07-07T14:26:16.075Z</time>
      </trkpt>
      <trkpt lat="49.48933" lon="1.09024">
        <ele>139</ele>
        <time>2026-07-07T14:26:20.077Z</time>
      </trkpt>
      <trkpt lat="49.48934" lon="1.0903">
        <ele>139</ele>
        <time>2026-07-07T14:26:24.291Z</time>
      </trkpt>
      <trkpt lat="49.48934" lon="1.09036">
        <ele>139</ele>
        <time>2026-07-07T14:26:28.305Z</time>
      </trkpt>
      <trkpt lat="49.48934" lon="1.09043">
        <ele>139</ele>
        <time>2026-07-07T14:26:32.363Z</time>
      </trkpt>
      <trkpt lat="49.48934" lon="1.09052">
        <ele>139</ele>
        <time>2026-07-07T14:26:36.369Z</time>
      </trkpt>
      <trkpt lat="49.48934" lon="1.0906">
        <ele>139</ele>
        <time>2026-07-07T14:26:41.133Z</time>
      </trkpt>
      <trkpt lat="49.48936" lon="1.09067">
        <ele>139</ele>
        <time>2026-07-07T14:26:45.169Z</time>
      </trkpt>
      <trkpt lat="49.48938" lon="1.09073">
        <ele>141</ele>
        <time>2026-07-07T14:26:49.860Z</time>
      </trkpt>
      <trkpt lat="49.48937" lon="1.09081">
        <ele>141</ele>
        <time>2026-07-07T14:26:54.374Z</time>
      </trkpt>
      <trkpt lat="49.48937" lon="1.0909">
        <ele>141</ele>
        <time>2026-07-07T14:26:58.366Z</time>
      </trkpt>
      <trkpt lat="49.48937" lon="1.09096">
        <ele>141</ele>
        <time>2026-07-07T14:27:02.570Z</time>
      </trkpt>
      <trkpt lat="49.48935" lon="1.09103">
        <ele>143</ele>
        <time>2026-07-07T14:27:06.665Z</time>
      </trkpt>
      <trkpt lat="49.48933" lon="1.0911">
        <ele>143</ele>
        <time>2026-07-07T14:27:10.749Z</time>
      </trkpt>
      <trkpt lat="49.48932" lon="1.09117">
        <ele>143</ele>
        <time>2026-07-07T14:27:14.976Z</time>
      </trkpt>
      <trkpt lat="49.48931" lon="1.09125">
        <ele>145</ele>
        <time>2026-07-07T14:27:19.071Z</time>
      </trkpt>
      <trkpt lat="49.48932" lon="1.09134">
        <ele>145</ele>
        <time>2026-07-07T14:27:23.155Z</time>
      </trkpt>
      <trkpt lat="49.48932" lon="1.09143">
        <ele>145</ele>
        <time>2026-07-07T14:27:27.202Z</time>
      </trkpt>
      <trkpt lat="49.48931" lon="1.09151">
        <ele>145</ele>
        <time>2026-07-07T14:27:31.371Z</time>
      </trkpt>
      <trkpt lat="49.48931" lon="1.0916">
        <ele>146</ele>
        <time>2026-07-07T14:27:36.075Z</time>
      </trkpt>
      <trkpt lat="49.48932" lon="1.09168">
        <ele>146</ele>
        <time>2026-07-07T14:27:41.217Z</time>
      </trkpt>
      <trkpt lat="49.48932" lon="1.09176">
        <ele>146</ele>
        <time>2026-07-07T14:27:45.673Z</time>
      </trkpt>
      <trkpt lat="49.48934" lon="1.09183">
        <ele>148</ele>
        <time>2026-07-07T14:27:49.935Z</time>
      </trkpt>
      <trkpt lat="49.48936" lon="1.0919">
        <ele>148</ele>
        <time>2026-07-07T14:27:53.989Z</time>
      </trkpt>
      <trkpt lat="49.4894" lon="1.09197">
        <ele>148</ele>
        <time>2026-07-07T14:27:58.366Z</time>
      </trkpt>
      <trkpt lat="49.48945" lon="1.09201">
        <ele>148</ele>
        <time>2026-07-07T14:28:03.033Z</time>
      </trkpt>
      <trkpt lat="49.4895" lon="1.09207">
        <ele>148</ele>
        <time>2026-07-07T14:28:07.073Z</time>
      </trkpt>
      <trkpt lat="49.48954" lon="1.09212">
        <ele>150</ele>
        <time>2026-07-07T14:28:11.379Z</time>
      </trkpt>
      <trkpt lat="49.48959" lon="1.09216">
        <ele>149</ele>
        <time>2026-07-07T14:28:16.095Z</time>
      </trkpt>
      <trkpt lat="49.48962" lon="1.09223">
        <ele>149</ele>
        <time>2026-07-07T14:28:20.043Z</time>
      </trkpt>
      <trkpt lat="49.48964" lon="1.09226">
        <ele>149</ele>
        <time>2026-07-07T14:28:24.368Z</time>
      </trkpt>
      <trkpt lat="49.48967" lon="1.09233">
        <ele>149</ele>
        <time>2026-07-07T14:28:28.661Z</time>
      </trkpt>
      <trkpt lat="49.48969" lon="1.09241">
        <ele>152</ele>
        <time>2026-07-07T14:28:33.095Z</time>
      </trkpt>
      <trkpt lat="49.48971" lon="1.09249">
        <ele>152</ele>
        <time>2026-07-07T14:28:37.175Z</time>
      </trkpt>
      <trkpt lat="49.48973" lon="1.09256">
        <ele>152</ele>
        <time>2026-07-07T14:28:42.248Z</time>
      </trkpt>
      <trkpt lat="49.48977" lon="1.09264">
        <ele>152</ele>
        <time>2026-07-07T14:28:46.713Z</time>
      </trkpt>
      <trkpt lat="49.4898" lon="1.0927">
        <ele>154</ele>
        <time>2026-07-07T14:28:51.372Z</time>
      </trkpt>
      <trkpt lat="49.48983" lon="1.09277">
        <ele>154</ele>
        <time>2026-07-07T14:28:55.796Z</time>
      </trkpt>
      <trkpt lat="49.48986" lon="1.09281">
        <ele>154</ele>
        <time>2026-07-07T14:29:00.370Z</time>
      </trkpt>
      <trkpt lat="49.48987" lon="1.09287">
        <ele>154</ele>
        <time>2026-07-07T14:29:04.378Z</time>
      </trkpt>
      <trkpt lat="49.48989" lon="1.09298">
        <ele>157</ele>
        <time>2026-07-07T14:29:08.919Z</time>
      </trkpt>
      <trkpt lat="49.4899" lon="1.09303">
        <ele>157</ele>
        <time>2026-07-07T14:29:13.372Z</time>
      </trkpt>
      <trkpt lat="49.48989" lon="1.09311">
        <ele>157</ele>
        <time>2026-07-07T14:29:17.837Z</time>
      </trkpt>
      <trkpt lat="49.48986" lon="1.09316">
        <ele>157</ele>
        <time>2026-07-07T14:29:22.372Z</time>
      </trkpt>
      <trkpt lat="49.48983" lon="1.09319">
        <ele>156</ele>
        <time>2026-07-07T14:29:27.148Z</time>
      </trkpt>
      <trkpt lat="49.4898" lon="1.09322">
        <ele>159</ele>
        <time>2026-07-07T14:29:31.871Z</time>
      </trkpt>
      <trkpt lat="49.48978" lon="1.09326">
        <ele>159</ele>
        <time>2026-07-07T14:29:36.365Z</time>
      </trkpt>
      <trkpt lat="49.48976" lon="1.09328">
        <ele>159</ele>
        <time>2026-07-07T14:29:40.372Z</time>
      </trkpt>
      <trkpt lat="49.48972" lon="1.0933">
        <ele>159</ele>
        <time>2026-07-07T14:29:45.033Z</time>
      </trkpt>
      <trkpt lat="49.48967" lon="1.09328">
        <ele>159</ele>
        <time>2026-07-07T14:29:49.668Z</time>
      </trkpt>
      <trkpt lat="49.48963" lon="1.09328">
        <ele>159</ele>
        <time>2026-07-07T14:29:54.253Z</time>
      </trkpt>
      <trkpt lat="49.48958" lon="1.09329">
        <ele>159</ele>
        <time>2026-07-07T14:29:58.305Z</time>
      </trkpt>
      <trkpt lat="49.48954" lon="1.09329">
        <ele>159</ele>
        <time>2026-07-07T14:30:02.836Z</time>
      </trkpt>
      <trkpt lat="49.4895" lon="1.0933">
        <ele>159</ele>
        <time>2026-07-07T14:30:07.369Z</time>
      </trkpt>
      <trkpt lat="49.48946" lon="1.09332">
        <ele>159</ele>
        <time>2026-07-07T14:30:11.373Z</time>
      </trkpt>
      <trkpt lat="49.48942" lon="1.09333">
        <ele>159</ele>
        <time>2026-07-07T14:30:16.139Z</time>
      </trkpt>
      <trkpt lat="49.48941" lon="1.0934">
        <ele>159</ele>
        <time>2026-07-07T14:30:20.816Z</time>
      </trkpt>
      <trkpt lat="49.48945" lon="1.09351">
        <ele>160</ele>
        <time>2026-07-07T14:30:25.367Z</time>
      </trkpt>
      <trkpt lat="49.48946" lon="1.09348">
        <ele>160</ele>
        <time>2026-07-07T14:30:29.636Z</time>
      </trkpt>
      <trkpt lat="49.48945" lon="1.0935">
        <ele>160</ele>
        <time>2026-07-07T14:30:34.009Z</time>
      </trkpt>
      <trkpt lat="49.48945" lon="1.09351">
        <ele>160</ele>
        <time>2026-07-07T14:30:38.192Z</time>
      </trkpt>
      <trkpt lat="49.48945" lon="1.09352">
        <ele>160</ele>
        <time>2026-07-07T14:30:42.816Z</time>
      </trkpt>
      <trkpt lat="49.48945" lon="1.09352">
        <ele>160</ele>
        <time>2026-07-07T14:30:46.976Z</time>
      </trkpt>
      <trkpt lat="49.48945" lon="1.09352">
        <ele>160</ele>
        <time>2026-07-07T14:30:51.070Z</time>
      </trkpt>
      <trkpt lat="49.48944" lon="1.0935">
        <ele>160</ele>
        <time>2026-07-07T14:30:55.785Z</time>
      </trkpt>
      <trkpt lat="49.48951" lon="1.09352">
        <ele>160</ele>
        <time>2026-07-07T14:30:59.941Z</time>
      </trkpt>
      <trkpt lat="49.48957" lon="1.09354">
        <ele>160</ele>
        <time>2026-07-07T14:31:04.611Z</time>
      </trkpt>
      <trkpt lat="49.48962" lon="1.09357">
        <ele>161</ele>
        <time>2026-07-07T14:31:08.703Z</time>
      </trkpt>
      <trkpt lat="49.48967" lon="1.09358">
        <ele>161</ele>
        <time>2026-07-07T14:31:13.368Z</time>
      </trkpt>
      <trkpt lat="49.48971" lon="1.09359">
        <ele>161</ele>
        <time>2026-07-07T14:31:18.056Z</time>
      </trkpt>
      <trkpt lat="49.48972" lon="1.0936">
        <ele>161</ele>
        <time>2026-07-07T14:31:22.702Z</time>
      </trkpt>
      <trkpt lat="49.48971" lon="1.09362">
        <ele>161</ele>
        <time>2026-07-07T14:31:27.299Z</time>
      </trkpt>
      <trkpt lat="49.4897" lon="1.09363">
        <ele>161</ele>
        <time>2026-07-07T14:31:31.371Z</time>
      </trkpt>
      <trkpt lat="49.48966" lon="1.09366">
        <ele>161</ele>
        <time>2026-07-07T14:31:35.546Z</time>
      </trkpt>
      <trkpt lat="49.48963" lon="1.09371">
        <ele>161</ele>
        <time>2026-07-07T14:31:40.217Z</time>
      </trkpt>
      <trkpt lat="49.48962" lon="1.09377">
        <ele>161</ele>
        <time>2026-07-07T14:31:44.772Z</time>
      </trkpt>
      <trkpt lat="49.4896" lon="1.09383">
        <ele>161</ele>
        <time>2026-07-07T14:31:49.369Z</time>
      </trkpt>
      <trkpt lat="49.48959" lon="1.0939">
        <ele>161</ele>
        <time>2026-07-07T14:31:53.369Z</time>
      </trkpt>
      <trkpt lat="49.48957" lon="1.09397">
        <ele>161</ele>
        <time>2026-07-07T14:31:57.337Z</time>
      </trkpt>
      <trkpt lat="49.48956" lon="1.09403">
        <ele>161</ele>
        <time>2026-07-07T14:32:01.849Z</time>
      </trkpt>
      <trkpt lat="49.48954" lon="1.09409">
        <ele>161</ele>
        <time>2026-07-07T14:32:05.898Z</time>
      </trkpt>
      <trkpt lat="49.48952" lon="1.09415">
        <ele>161</ele>
        <time>2026-07-07T14:32:10.368Z</time>
      </trkpt>
      <trkpt lat="49.4895" lon="1.09421">
        <ele>161</ele>
        <time>2026-07-07T14:32:15.088Z</time>
      </trkpt>
      <trkpt lat="49.48947" lon="1.09426">
        <ele>161</ele>
        <time>2026-07-07T14:32:19.782Z</time>
      </trkpt>
      <trkpt lat="49.48946" lon="1.09432">
        <ele>161</ele>
        <time>2026-07-07T14:32:24.317Z</time>
      </trkpt>
      <trkpt lat="49.48946" lon="1.09439">
        <ele>161</ele>
        <time>2026-07-07T14:32:29.011Z</time>
      </trkpt>
      <trkpt lat="49.48944" lon="1.09447">
        <ele>161</ele>
        <time>2026-07-07T14:32:33.648Z</time>
      </trkpt>
      <trkpt lat="49.48942" lon="1.09454">
        <ele>161</ele>
        <time>2026-07-07T14:32:37.691Z</time>
      </trkpt>
      <trkpt lat="49.48941" lon="1.09461">
        <ele>162</ele>
        <time>2026-07-07T14:32:41.795Z</time>
      </trkpt>
      <trkpt lat="49.48939" lon="1.09469">
        <ele>162</ele>
        <time>2026-07-07T14:32:45.954Z</time>
      </trkpt>
      <trkpt lat="49.48938" lon="1.09476">
        <ele>162</ele>
        <time>2026-07-07T14:32:50.372Z</time>
      </trkpt>
      <trkpt lat="49.48938" lon="1.09483">
        <ele>162</ele>
        <time>2026-07-07T14:32:54.735Z</time>
      </trkpt>
      <trkpt lat="49.48937" lon="1.09489">
        <ele>162</ele>
        <time>2026-07-07T14:32:58.836Z</time>
      </trkpt>
      <trkpt lat="49.48936" lon="1.09495">
        <ele>162</ele>
        <time>2026-07-07T14:33:03.369Z</time>
      </trkpt>
      <trkpt lat="49.48934" lon="1.09502">
        <ele>162</ele>
        <time>2026-07-07T14:33:07.737Z</time>
      </trkpt>
      <trkpt lat="49.48933" lon="1.0951">
        <ele>162</ele>
        <time>2026-07-07T14:33:11.795Z</time>
      </trkpt>
      <trkpt lat="49.48931" lon="1.09516">
        <ele>162</ele>
        <time>2026-07-07T14:33:15.920Z</time>
      </trkpt>
      <trkpt lat="49.48929" lon="1.09522">
        <ele>162</ele>
        <time>2026-07-07T14:33:20.366Z</time>
      </trkpt>
      <trkpt lat="49.48928" lon="1.09529">
        <ele>162</ele>
        <time>2026-07-07T14:33:24.818Z</time>
      </trkpt>
      <trkpt lat="49.48928" lon="1.09534">
        <ele>162</ele>
        <time>2026-07-07T14:33:28.872Z</time>
      </trkpt>
      <trkpt lat="49.48927" lon="1.09541">
        <ele>162</ele>
        <time>2026-07-07T14:33:33.372Z</time>
      </trkpt>
      <trkpt lat="49.48926" lon="1.09549">
        <ele>163</ele>
        <time>2026-07-07T14:33:38.253Z</time>
      </trkpt>
      <trkpt lat="49.48926" lon="1.09556">
        <ele>163</ele>
        <time>2026-07-07T14:33:42.308Z</time>
      </trkpt>
      <trkpt lat="49.48926" lon="1.09563">
        <ele>163</ele>
        <time>2026-07-07T14:33:46.836Z</time>
      </trkpt>
      <trkpt lat="49.48926" lon="1.09569">
        <ele>163</ele>
        <time>2026-07-07T14:33:51.373Z</time>
      </trkpt>
      <trkpt lat="49.48925" lon="1.09576">
        <ele>164</ele>
        <time>2026-07-07T14:33:56.179Z</time>
      </trkpt>
      <trkpt lat="49.48923" lon="1.09581">
        <ele>164</ele>
        <time>2026-07-07T14:34:00.872Z</time>
      </trkpt>
      <trkpt lat="49.48921" lon="1.0959">
        <ele>164</ele>
        <time>2026-07-07T14:34:05.374Z</time>
      </trkpt>
      <trkpt lat="49.48921" lon="1.09585">
        <ele>164</ele>
        <time>2026-07-07T14:34:10.182Z</time>
      </trkpt>
      <trkpt lat="49.48916" lon="1.09581">
        <ele>164</ele>
        <time>2026-07-07T14:34:14.200Z</time>
      </trkpt>
      <trkpt lat="49.48914" lon="1.09582">
        <ele>164</ele>
        <time>2026-07-07T14:34:18.759Z</time>
      </trkpt>
      <trkpt lat="49.48909" lon="1.09583">
        <ele>164</ele>
        <time>2026-07-07T14:34:22.703Z</time>
      </trkpt>
      <trkpt lat="49.48907" lon="1.09587">
        <ele>164</ele>
        <time>2026-07-07T14:34:27.369Z</time>
      </trkpt>
      <trkpt lat="49.48904" lon="1.09592">
        <ele>164</ele>
        <time>2026-07-07T14:34:31.899Z</time>
      </trkpt>
      <trkpt lat="49.489" lon="1.09594">
        <ele>165</ele>
        <time>2026-07-07T14:34:36.368Z</time>
      </trkpt>
      <trkpt lat="49.48896" lon="1.09593">
        <ele>165</ele>
        <time>2026-07-07T14:34:41.218Z</time>
      </trkpt>
      <trkpt lat="49.48892" lon="1.09592">
        <ele>165</ele>
        <time>2026-07-07T14:34:45.899Z</time>
      </trkpt>
      <trkpt lat="49.48887" lon="1.09591">
        <ele>165</ele>
        <time>2026-07-07T14:34:50.371Z</time>
      </trkpt>
      <trkpt lat="49.48884" lon="1.09592">
        <ele>165</ele>
        <time>2026-07-07T14:34:55.088Z</time>
      </trkpt>
      <trkpt lat="49.48877" lon="1.09592">
        <ele>165</ele>
        <time>2026-07-07T14:34:59.674Z</time>
      </trkpt>
      <trkpt lat="49.48872" lon="1.09596">
        <ele>166</ele>
        <time>2026-07-07T14:35:04.194Z</time>
      </trkpt>
      <trkpt lat="49.48868" lon="1.096">
        <ele>166</ele>
        <time>2026-07-07T14:35:08.185Z</time>
      </trkpt>
      <trkpt lat="49.48863" lon="1.096">
        <ele>166</ele>
        <time>2026-07-07T14:35:12.755Z</time>
      </trkpt>
      <trkpt lat="49.48857" lon="1.096">
        <ele>166</ele>
        <time>2026-07-07T14:35:17.276Z</time>
      </trkpt>
      <trkpt lat="49.48853" lon="1.09598">
        <ele>166</ele>
        <time>2026-07-07T14:35:21.303Z</time>
      </trkpt>
      <trkpt lat="49.48849" lon="1.09593">
        <ele>166</ele>
        <time>2026-07-07T14:35:25.915Z</time>
      </trkpt>
      <trkpt lat="49.48847" lon="1.09585">
        <ele>166</ele>
        <time>2026-07-07T14:35:30.376Z</time>
      </trkpt>
      <trkpt lat="49.48843" lon="1.09579">
        <ele>166</ele>
        <time>2026-07-07T14:35:34.672Z</time>
      </trkpt>
      <trkpt lat="49.48839" lon="1.09575">
        <ele>166</ele>
        <time>2026-07-07T14:35:38.969Z</time>
      </trkpt>
      <trkpt lat="49.48835" lon="1.09568">
        <ele>166</ele>
        <time>2026-07-07T14:35:43.277Z</time>
      </trkpt>
      <trkpt lat="49.48832" lon="1.09561">
        <ele>166</ele>
        <time>2026-07-07T14:35:47.935Z</time>
      </trkpt>
      <trkpt lat="49.48828" lon="1.09559">
        <ele>166</ele>
        <time>2026-07-07T14:37:02.912Z</time>
      </trkpt>
      <trkpt lat="49.48823" lon="1.09557">
        <ele>166</ele>
        <time>2026-07-07T14:37:07.366Z</time>
      </trkpt>
      <trkpt lat="49.4882" lon="1.09553">
        <ele>166</ele>
        <time>2026-07-07T14:37:12.362Z</time>
      </trkpt>
      <trkpt lat="49.48815" lon="1.09554">
        <ele>166</ele>
        <time>2026-07-07T14:37:16.698Z</time>
      </trkpt>
      <trkpt lat="49.4881" lon="1.09557">
        <ele>166</ele>
        <time>2026-07-07T14:37:20.826Z</time>
      </trkpt>
      <trkpt lat="49.48803" lon="1.09562">
        <ele>166</ele>
        <time>2026-07-07T14:37:24.899Z</time>
      </trkpt>
      <trkpt lat="49.48803" lon="1.09562">
        <ele>166</ele>
        <time>2026-07-07T14:37:29.361Z</time>
      </trkpt>
      <trkpt lat="49.48803" lon="1.09562">
        <ele>166</ele>
        <time>2026-07-07T14:37:33.592Z</time>
      </trkpt>
      <trkpt lat="49.488" lon="1.09562">
        <ele>166</ele>
        <time>2026-07-07T14:37:37.769Z</time>
      </trkpt>
      <trkpt lat="49.48796" lon="1.09558">
        <ele>166</ele>
        <time>2026-07-07T14:37:42.757Z</time>
      </trkpt>
      <trkpt lat="49.48792" lon="1.0956">
        <ele>166</ele>
        <time>2026-07-07T14:37:47.263Z</time>
      </trkpt>
      <trkpt lat="49.48787" lon="1.09561">
        <ele>168</ele>
        <time>2026-07-07T14:37:51.841Z</time>
      </trkpt>
      <trkpt lat="49.48783" lon="1.09563">
        <ele>168</ele>
        <time>2026-07-07T14:37:55.935Z</time>
      </trkpt>
      <trkpt lat="49.48777" lon="1.09565">
        <ele>168</ele>
        <time>2026-07-07T14:38:00.249Z</time>
      </trkpt>
      <trkpt lat="49.48773" lon="1.09567">
        <ele>168</ele>
        <time>2026-07-07T14:38:04.185Z</time>
      </trkpt>
      <trkpt lat="49.48769" lon="1.09572">
        <ele>168</ele>
        <time>2026-07-07T14:38:08.555Z</time>
      </trkpt>
      <trkpt lat="49.48765" lon="1.09577">
        <ele>168</ele>
        <time>2026-07-07T14:38:13.169Z</time>
      </trkpt>
      <trkpt lat="49.48761" lon="1.09581">
        <ele>169</ele>
        <time>2026-07-07T14:38:45.369Z</time>
      </trkpt>
      <trkpt lat="49.48757" lon="1.09586">
        <ele>169</ele>
        <time>2026-07-07T14:38:49.980Z</time>
      </trkpt>
      <trkpt lat="49.48754" lon="1.09592">
        <ele>169</ele>
        <time>2026-07-07T14:38:54.366Z</time>
      </trkpt>
      <trkpt lat="49.48751" lon="1.09596">
        <ele>169</ele>
        <time>2026-07-07T14:38:58.372Z</time>
      </trkpt>
      <trkpt lat="49.48747" lon="1.09601">
        <ele>169</ele>
        <time>2026-07-07T14:39:04.374Z</time>
      </trkpt>
      <trkpt lat="49.48743" lon="1.09606">
        <ele>169</ele>
        <time>2026-07-07T14:39:10.363Z</time>
      </trkpt>
      <trkpt lat="49.48739" lon="1.0961">
        <ele>169</ele>
        <time>2026-07-07T14:39:14.371Z</time>
      </trkpt>
      <trkpt lat="49.48735" lon="1.09615">
        <ele>169</ele>
        <time>2026-07-07T14:39:18.369Z</time>
      </trkpt>
      <trkpt lat="49.4873" lon="1.0962">
        <ele>169</ele>
        <time>2026-07-07T14:39:23.316Z</time>
      </trkpt>
      <trkpt lat="49.48725" lon="1.09623">
        <ele>169</ele>
        <time>2026-07-07T14:39:28.088Z</time>
      </trkpt>
      <trkpt lat="49.48721" lon="1.09626">
        <ele>169</ele>
        <time>2026-07-07T14:39:32.373Z</time>
      </trkpt>
      <trkpt lat="49.48718" lon="1.0963">
        <ele>169</ele>
        <time>2026-07-07T14:39:37.365Z</time>
      </trkpt>
      <trkpt lat="49.48716" lon="1.09637">
        <ele>169</ele>
        <time>2026-07-07T14:39:41.755Z</time>
      </trkpt>
      <trkpt lat="49.48715" lon="1.09643">
        <ele>169</ele>
        <time>2026-07-07T14:39:46.041Z</time>
      </trkpt>
      <trkpt lat="49.48713" lon="1.09644">
        <ele>169</ele>
        <time>2026-07-07T14:39:51.380Z</time>
      </trkpt>
      <trkpt lat="49.48709" lon="1.09648">
        <ele>169</ele>
        <time>2026-07-07T14:39:55.491Z</time>
      </trkpt>
      <trkpt lat="49.48707" lon="1.09653">
        <ele>172</ele>
        <time>2026-07-07T14:39:59.845Z</time>
      </trkpt>
      <trkpt lat="49.48705" lon="1.0966">
        <ele>172</ele>
        <time>2026-07-07T14:40:04.390Z</time>
      </trkpt>
      <trkpt lat="49.48703" lon="1.09667">
        <ele>172</ele>
        <time>2026-07-07T14:40:08.761Z</time>
      </trkpt>
      <trkpt lat="49.48702" lon="1.09675">
        <ele>172</ele>
        <time>2026-07-07T14:40:13.011Z</time>
      </trkpt>
      <trkpt lat="49.487" lon="1.09683">
        <ele>171</ele>
        <time>2026-07-07T14:40:17.173Z</time>
      </trkpt>
      <trkpt lat="49.48696" lon="1.09691">
        <ele>171</ele>
        <time>2026-07-07T14:40:21.368Z</time>
      </trkpt>
      <trkpt lat="49.48691" lon="1.09696">
        <ele>171</ele>
        <time>2026-07-07T14:40:25.608Z</time>
      </trkpt>
      <trkpt lat="49.48686" lon="1.09703">
        <ele>171</ele>
        <time>2026-07-07T14:40:29.771Z</time>
      </trkpt>
      <trkpt lat="49.48683" lon="1.09711">
        <ele>171</ele>
        <time>2026-07-07T14:40:33.912Z</time>
      </trkpt>
      <trkpt lat="49.48681" lon="1.09716">
        <ele>171</ele>
        <time>2026-07-07T14:40:38.151Z</time>
      </trkpt>
      <trkpt lat="49.4868" lon="1.09722">
        <ele>171</ele>
        <time>2026-07-07T14:40:42.337Z</time>
      </trkpt>
      <trkpt lat="49.48677" lon="1.09726">
        <ele>171</ele>
        <time>2026-07-07T14:40:46.371Z</time>
      </trkpt>
      <trkpt lat="49.48675" lon="1.09728">
        <ele>171</ele>
        <time>2026-07-07T14:40:50.374Z</time>
      </trkpt>
      <trkpt lat="49.48681" lon="1.09738">
        <ele>170</ele>
        <time>2026-07-07T14:40:54.935Z</time>
      </trkpt>
      <trkpt lat="49.48681" lon="1.09738">
        <ele>170</ele>
        <time>2026-07-07T14:40:59.132Z</time>
      </trkpt>
      <trkpt lat="49.48682" lon="1.09736">
        <ele>170</ele>
        <time>2026-07-07T14:41:03.368Z</time>
      </trkpt>
      <trkpt lat="49.48682" lon="1.09736">
        <ele>171</ele>
        <time>2026-07-07T14:41:08.293Z</time>
      </trkpt>
      <trkpt lat="49.48684" lon="1.09734">
        <ele>171</ele>
        <time>2026-07-07T14:41:12.367Z</time>
      </trkpt>
      <trkpt lat="49.48684" lon="1.09734">
        <ele>171</ele>
        <time>2026-07-07T14:41:16.953Z</time>
      </trkpt>
      <trkpt lat="49.48687" lon="1.09738">
        <ele>170</ele>
        <time>2026-07-07T14:41:21.362Z</time>
      </trkpt>
      <trkpt lat="49.4869" lon="1.09744">
        <ele>170</ele>
        <time>2026-07-07T14:41:25.935Z</time>
      </trkpt>
      <trkpt lat="49.4869" lon="1.09751">
        <ele>170</ele>
        <time>2026-07-07T14:41:30.370Z</time>
      </trkpt>
      <trkpt lat="49.48689" lon="1.09759">
        <ele>170</ele>
        <time>2026-07-07T14:41:35.117Z</time>
      </trkpt>
      <trkpt lat="49.4869" lon="1.09766">
        <ele>171</ele>
        <time>2026-07-07T14:41:39.554Z</time>
      </trkpt>
      <trkpt lat="49.48694" lon="1.0977">
        <ele>171</ele>
        <time>2026-07-07T14:41:43.573Z</time>
      </trkpt>
      <trkpt lat="49.48699" lon="1.09772">
        <ele>171</ele>
        <time>2026-07-07T14:41:47.656Z</time>
      </trkpt>
      <trkpt lat="49.48704" lon="1.09775">
        <ele>171</ele>
        <time>2026-07-07T14:41:51.641Z</time>
      </trkpt>
      <trkpt lat="49.48706" lon="1.09778">
        <ele>171</ele>
        <time>2026-07-07T14:41:56.216Z</time>
      </trkpt>
      <trkpt lat="49.48711" lon="1.09777">
        <ele>169</ele>
        <time>2026-07-07T14:42:00.771Z</time>
      </trkpt>
      <trkpt lat="49.48716" lon="1.09781">
        <ele>169</ele>
        <time>2026-07-07T14:42:05.363Z</time>
      </trkpt>
      <trkpt lat="49.4872" lon="1.09784">
        <ele>169</ele>
        <time>2026-07-07T14:42:09.806Z</time>
      </trkpt>
      <trkpt lat="49.48724" lon="1.09785">
        <ele>169</ele>
        <time>2026-07-07T14:42:14.369Z</time>
      </trkpt>
      <trkpt lat="49.48729" lon="1.09786">
        <ele>169</ele>
        <time>2026-07-07T14:42:18.891Z</time>
      </trkpt>
      <trkpt lat="49.48733" lon="1.09788">
        <ele>169</ele>
        <time>2026-07-07T14:42:22.826Z</time>
      </trkpt>
      <trkpt lat="49.48737" lon="1.09789">
        <ele>169</ele>
        <time>2026-07-07T14:42:43.370Z</time>
      </trkpt>
      <trkpt lat="49.4874" lon="1.0979">
        <ele>169</ele>
        <time>2026-07-07T14:42:47.695Z</time>
      </trkpt>
      <trkpt lat="49.48745" lon="1.09791">
        <ele>169</ele>
        <time>2026-07-07T14:42:51.816Z</time>
      </trkpt>
      <trkpt lat="49.48749" lon="1.09793">
        <ele>169</ele>
        <time>2026-07-07T14:42:56.368Z</time>
      </trkpt>
      <trkpt lat="49.48754" lon="1.09796">
        <ele>169</ele>
        <time>2026-07-07T14:43:01.251Z</time>
      </trkpt>
      <trkpt lat="49.48759" lon="1.09799">
        <ele>169</ele>
        <time>2026-07-07T14:43:05.363Z</time>
      </trkpt>
      <trkpt lat="49.48765" lon="1.09802">
        <ele>170</ele>
        <time>2026-07-07T14:43:10.045Z</time>
      </trkpt>
      <trkpt lat="49.4877" lon="1.09807">
        <ele>170</ele>
        <time>2026-07-07T14:43:14.771Z</time>
      </trkpt>
      <trkpt lat="49.48775" lon="1.0981">
        <ele>170</ele>
        <time>2026-07-07T14:43:19.365Z</time>
      </trkpt>
      <trkpt lat="49.4878" lon="1.09813">
        <ele>170</ele>
        <time>2026-07-07T14:43:23.372Z</time>
      </trkpt>
      <trkpt lat="49.48783" lon="1.09817">
        <ele>170</ele>
        <time>2026-07-07T14:43:28.117Z</time>
      </trkpt>
      <trkpt lat="49.48788" lon="1.09821">
        <ele>171</ele>
        <time>2026-07-07T14:43:32.452Z</time>
      </trkpt>
      <trkpt lat="49.48793" lon="1.09822">
        <ele>171</ele>
        <time>2026-07-07T14:43:37.110Z</time>
      </trkpt>
      <trkpt lat="49.48799" lon="1.09822">
        <ele>171</ele>
        <time>2026-07-07T14:43:41.587Z</time>
      </trkpt>
      <trkpt lat="49.48804" lon="1.09822">
        <ele>171</ele>
        <time>2026-07-07T14:43:46.271Z</time>
      </trkpt>
      <trkpt lat="49.48808" lon="1.09822">
        <ele>171</ele>
        <time>2026-07-07T14:43:50.272Z</time>
      </trkpt>
      <trkpt lat="49.48813" lon="1.09822">
        <ele>171</ele>
        <time>2026-07-07T14:43:54.871Z</time>
      </trkpt>
      <trkpt lat="49.48818" lon="1.09823">
        <ele>171</ele>
        <time>2026-07-07T14:43:58.896Z</time>
      </trkpt>
      <trkpt lat="49.48822" lon="1.09825">
        <ele>169</ele>
        <time>2026-07-07T14:44:03.362Z</time>
      </trkpt>
      <trkpt lat="49.48826" lon="1.09826">
        <ele>169</ele>
        <time>2026-07-07T14:44:07.919Z</time>
      </trkpt>
      <trkpt lat="49.4883" lon="1.09827">
        <ele>169</ele>
        <time>2026-07-07T14:44:12.363Z</time>
      </trkpt>
      <trkpt lat="49.48835" lon="1.09828">
        <ele>169</ele>
        <time>2026-07-07T14:44:16.369Z</time>
      </trkpt>
      <trkpt lat="49.48839" lon="1.09828">
        <ele>169</ele>
        <time>2026-07-07T14:44:20.930Z</time>
      </trkpt>
      <trkpt lat="49.48843" lon="1.09829">
        <ele>169</ele>
        <time>2026-07-07T14:44:25.363Z</time>
      </trkpt>
      <trkpt lat="49.48848" lon="1.09829">
        <ele>167</ele>
        <time>2026-07-07T14:44:30.066Z</time>
      </trkpt>
      <trkpt lat="49.48853" lon="1.0983">
        <ele>167</ele>
        <time>2026-07-07T14:44:34.371Z</time>
      </trkpt>
      <trkpt lat="49.48859" lon="1.09831">
        <ele>167</ele>
        <time>2026-07-07T14:44:38.795Z</time>
      </trkpt>
      <trkpt lat="49.48863" lon="1.09833">
        <ele>167</ele>
        <time>2026-07-07T14:44:43.215Z</time>
      </trkpt>
      <trkpt lat="49.48868" lon="1.09835">
        <ele>167</ele>
        <time>2026-07-07T14:44:47.817Z</time>
      </trkpt>
      <trkpt lat="49.48872" lon="1.09838">
        <ele>167</ele>
        <time>2026-07-07T14:46:32.379Z</time>
      </trkpt>
      <trkpt lat="49.48874" lon="1.09843">
        <ele>167</ele>
        <time>2026-07-07T14:46:40.370Z</time>
      </trkpt>
      <trkpt lat="49.48873" lon="1.09848">
        <ele>167</ele>
        <time>2026-07-07T14:46:44.370Z</time>
      </trkpt>
      <trkpt lat="49.48871" lon="1.09855">
        <ele>167</ele>
        <time>2026-07-07T14:46:49.372Z</time>
      </trkpt>
      <trkpt lat="49.4887" lon="1.09861">
        <ele>167</ele>
        <time>2026-07-07T14:46:54.365Z</time>
      </trkpt>
      <trkpt lat="49.48869" lon="1.09867">
        <ele>167</ele>
        <time>2026-07-07T14:46:59.119Z</time>
      </trkpt>
      <trkpt lat="49.48868" lon="1.0987">
        <ele>167</ele>
        <time>2026-07-07T14:47:03.910Z</time>
      </trkpt>
      <trkpt lat="49.48868" lon="1.09874">
        <ele>167</ele>
        <time>2026-07-07T14:47:07.968Z</time>
      </trkpt>
      <trkpt lat="49.48864" lon="1.09876">
        <ele>168</ele>
        <time>2026-07-07T14:47:12.553Z</time>
      </trkpt>
      <trkpt lat="49.48864" lon="1.09885">
        <ele>168</ele>
        <time>2026-07-07T14:47:16.608Z</time>
      </trkpt>
      <trkpt lat="49.48864" lon="1.09891">
        <ele>168</ele>
        <time>2026-07-07T14:47:21.311Z</time>
      </trkpt>
      <trkpt lat="49.48866" lon="1.09899">
        <ele>168</ele>
        <time>2026-07-07T14:47:25.897Z</time>
      </trkpt>
      <trkpt lat="49.48867" lon="1.09906">
        <ele>168</ele>
        <time>2026-07-07T14:47:30.358Z</time>
      </trkpt>
      <trkpt lat="49.48867" lon="1.09912">
        <ele>168</ele>
        <time>2026-07-07T14:47:34.364Z</time>
      </trkpt>
      <trkpt lat="49.48869" lon="1.09919">
        <ele>168</ele>
        <time>2026-07-07T14:47:38.892Z</time>
      </trkpt>
      <trkpt lat="49.48871" lon="1.09924">
        <ele>168</ele>
        <time>2026-07-07T14:47:42.935Z</time>
      </trkpt>
      <trkpt lat="49.48875" lon="1.09925">
        <ele>167</ele>
        <time>2026-07-07T14:47:47.553Z</time>
      </trkpt>
      <trkpt lat="49.48879" lon="1.09924">
        <ele>167</ele>
        <time>2026-07-07T14:47:52.128Z</time>
      </trkpt>
      <trkpt lat="49.48883" lon="1.09923">
        <ele>167</ele>
        <time>2026-07-07T14:47:56.651Z</time>
      </trkpt>
      <trkpt lat="49.48886" lon="1.09925">
        <ele>167</ele>
        <time>2026-07-07T14:48:01.150Z</time>
      </trkpt>
      <trkpt lat="49.48889" lon="1.09924">
        <ele>167</ele>
        <time>2026-07-07T14:48:05.717Z</time>
      </trkpt>
      <trkpt lat="49.48895" lon="1.09926">
        <ele>167</ele>
        <time>2026-07-07T14:48:10.199Z</time>
      </trkpt>
      <trkpt lat="49.48901" lon="1.09925">
        <ele>167</ele>
        <time>2026-07-07T14:48:14.363Z</time>
      </trkpt>
      <trkpt lat="49.48906" lon="1.09925">
        <ele>167</ele>
        <time>2026-07-07T14:48:18.363Z</time>
      </trkpt>
      <trkpt lat="49.48911" lon="1.09925">
        <ele>167</ele>
        <time>2026-07-07T14:48:22.922Z</time>
      </trkpt>
      <trkpt lat="49.48916" lon="1.09926">
        <ele>167</ele>
        <time>2026-07-07T14:48:27.293Z</time>
      </trkpt>
      <trkpt lat="49.48921" lon="1.09925">
        <ele>167</ele>
        <time>2026-07-07T14:48:31.553Z</time>
      </trkpt>
      <trkpt lat="49.48926" lon="1.09927">
        <ele>167</ele>
        <time>2026-07-07T14:48:35.990Z</time>
      </trkpt>
      <trkpt lat="49.48932" lon="1.09928">
        <ele>167</ele>
        <time>2026-07-07T14:48:40.511Z</time>
      </trkpt>
      <trkpt lat="49.48937" lon="1.09926">
        <ele>167</ele>
        <time>2026-07-07T14:48:45.012Z</time>
      </trkpt>
      <trkpt lat="49.48944" lon="1.09924">
        <ele>167</ele>
        <time>2026-07-07T14:48:49.367Z</time>
      </trkpt>
      <trkpt lat="49.48949" lon="1.09925">
        <ele>167</ele>
        <time>2026-07-07T14:48:53.917Z</time>
      </trkpt>
      <trkpt lat="49.48954" lon="1.09928">
        <ele>167</ele>
        <time>2026-07-07T14:48:58.347Z</time>
      </trkpt>
      <trkpt lat="49.4896" lon="1.09929">
        <ele>167</ele>
        <time>2026-07-07T14:49:02.860Z</time>
      </trkpt>
      <trkpt lat="49.48964" lon="1.0993">
        <ele>167</ele>
        <time>2026-07-07T14:49:07.296Z</time>
      </trkpt>
      <trkpt lat="49.48968" lon="1.09932">
        <ele>166</ele>
        <time>2026-07-07T14:49:11.696Z</time>
      </trkpt>
      <trkpt lat="49.48973" lon="1.09931">
        <ele>166</ele>
        <time>2026-07-07T14:49:16.095Z</time>
      </trkpt>
      <trkpt lat="49.48978" lon="1.09932">
        <ele>166</ele>
        <time>2026-07-07T14:49:20.369Z</time>
      </trkpt>
      <trkpt lat="49.48983" lon="1.09935">
        <ele>166</ele>
        <time>2026-07-07T14:49:24.363Z</time>
      </trkpt>
      <trkpt lat="49.48988" lon="1.09937">
        <ele>167</ele>
        <time>2026-07-07T14:49:29.150Z</time>
      </trkpt>
      <trkpt lat="49.48992" lon="1.0994">
        <ele>167</ele>
        <time>2026-07-07T14:49:33.367Z</time>
      </trkpt>
      <trkpt lat="49.48996" lon="1.09941">
        <ele>167</ele>
        <time>2026-07-07T14:50:45.369Z</time>
      </trkpt>
      <trkpt lat="49.49" lon="1.09945">
        <ele>167</ele>
        <time>2026-07-07T14:50:57.361Z</time>
      </trkpt>
      <trkpt lat="49.49002" lon="1.09949">
        <ele>167</ele>
        <time>2026-07-07T14:51:02.369Z</time>
      </trkpt>
      <trkpt lat="49.49002" lon="1.09955">
        <ele>167</ele>
        <time>2026-07-07T14:51:07.357Z</time>
      </trkpt>
      <trkpt lat="49.49002" lon="1.0996">
        <ele>167</ele>
        <time>2026-07-07T14:51:11.369Z</time>
      </trkpt>
      <trkpt lat="49.49004" lon="1.09967">
        <ele>167</ele>
        <time>2026-07-07T14:51:15.370Z</time>
      </trkpt>
      <trkpt lat="49.49004" lon="1.09975">
        <ele>167</ele>
        <time>2026-07-07T14:51:20.368Z</time>
      </trkpt>
      <trkpt lat="49.49004" lon="1.09983">
        <ele>167</ele>
        <time>2026-07-07T14:51:25.364Z</time>
      </trkpt>
      <trkpt lat="49.49003" lon="1.0999">
        <ele>168</ele>
        <time>2026-07-07T14:51:29.370Z</time>
      </trkpt>
      <trkpt lat="49.49003" lon="1.09998">
        <ele>168</ele>
        <time>2026-07-07T14:51:34.368Z</time>
      </trkpt>
      <trkpt lat="49.49001" lon="1.10005">
        <ele>168</ele>
        <time>2026-07-07T14:51:39.367Z</time>
      </trkpt>
      <trkpt lat="49.48999" lon="1.10013">
        <ele>168</ele>
        <time>2026-07-07T14:51:44.050Z</time>
      </trkpt>
      <trkpt lat="49.48996" lon="1.10021">
        <ele>169</ele>
        <time>2026-07-07T14:51:48.366Z</time>
      </trkpt>
      <trkpt lat="49.48994" lon="1.10029">
        <ele>169</ele>
        <time>2026-07-07T14:51:52.709Z</time>
      </trkpt>
      <trkpt lat="49.48993" lon="1.10037">
        <ele>169</ele>
        <time>2026-07-07T14:51:57.147Z</time>
      </trkpt>
      <trkpt lat="49.48992" lon="1.10044">
        <ele>169</ele>
        <time>2026-07-07T14:52:01.316Z</time>
      </trkpt>
      <trkpt lat="49.48991" lon="1.10052">
        <ele>169</ele>
        <time>2026-07-07T14:52:06.136Z</time>
      </trkpt>
      <trkpt lat="49.4899" lon="1.1006">
        <ele>169</ele>
        <time>2026-07-07T14:52:10.364Z</time>
      </trkpt>
      <trkpt lat="49.48989" lon="1.10068">
        <ele>169</ele>
        <time>2026-07-07T14:52:14.542Z</time>
      </trkpt>
      <trkpt lat="49.4899" lon="1.10075">
        <ele>171</ele>
        <time>2026-07-07T14:52:18.922Z</time>
      </trkpt>
      <trkpt lat="49.4899" lon="1.10082">
        <ele>171</ele>
        <time>2026-07-07T14:52:22.970Z</time>
      </trkpt>
      <trkpt lat="49.48992" lon="1.10088">
        <ele>171</ele>
        <time>2026-07-07T14:52:27.358Z</time>
      </trkpt>
      <trkpt lat="49.48994" lon="1.10093">
        <ele>171</ele>
        <time>2026-07-07T14:52:31.531Z</time>
      </trkpt>
      <trkpt lat="49.48994" lon="1.10098">
        <ele>172</ele>
        <time>2026-07-07T14:52:36.363Z</time>
      </trkpt>
      <trkpt lat="49.48997" lon="1.10103">
        <ele>172</ele>
        <time>2026-07-07T14:52:40.913Z</time>
      </trkpt>
      <trkpt lat="49.48996" lon="1.10114">
        <ele>172</ele>
        <time>2026-07-07T14:52:45.243Z</time>
      </trkpt>
      <trkpt lat="49.48995" lon="1.10124">
        <ele>172</ele>
        <time>2026-07-07T14:52:49.364Z</time>
      </trkpt>
      <trkpt lat="49.48995" lon="1.10133">
        <ele>174</ele>
        <time>2026-07-07T14:52:53.599Z</time>
      </trkpt>
      <trkpt lat="49.48995" lon="1.10142">
        <ele>174</ele>
        <time>2026-07-07T14:52:57.736Z</time>
      </trkpt>
      <trkpt lat="49.48995" lon="1.1015">
        <ele>174</ele>
        <time>2026-07-07T14:53:02.058Z</time>
      </trkpt>
      <trkpt lat="49.48996" lon="1.10156">
        <ele>175</ele>
        <time>2026-07-07T14:53:06.121Z</time>
      </trkpt>
      <trkpt lat="49.48995" lon="1.10166">
        <ele>175</ele>
        <time>2026-07-07T14:53:10.287Z</time>
      </trkpt>
      <trkpt lat="49.48996" lon="1.10174">
        <ele>175</ele>
        <time>2026-07-07T14:53:14.348Z</time>
      </trkpt>
      <trkpt lat="49.48997" lon="1.10181">
        <ele>175</ele>
        <time>2026-07-07T14:53:18.725Z</time>
      </trkpt>
      <trkpt lat="49.48999" lon="1.1019">
        <ele>175</ele>
        <time>2026-07-07T14:53:23.087Z</time>
      </trkpt>
      <trkpt lat="49.49002" lon="1.10195">
        <ele>175</ele>
        <time>2026-07-07T14:53:27.372Z</time>
      </trkpt>
      <trkpt lat="49.49003" lon="1.10202">
        <ele>175</ele>
        <time>2026-07-07T14:53:31.632Z</time>
      </trkpt>
      <trkpt lat="49.49005" lon="1.10209">
        <ele>175</ele>
        <time>2026-07-07T14:53:35.980Z</time>
      </trkpt>
      <trkpt lat="49.49007" lon="1.10214">
        <ele>175</ele>
        <time>2026-07-07T14:53:40.193Z</time>
      </trkpt>
      <trkpt lat="49.49008" lon="1.1022">
        <ele>175</ele>
        <time>2026-07-07T14:53:44.624Z</time>
      </trkpt>
      <trkpt lat="49.49008" lon="1.10226">
        <ele>175</ele>
        <time>2026-07-07T14:53:48.837Z</time>
      </trkpt>
      <trkpt lat="49.49007" lon="1.10234">
        <ele>175</ele>
        <time>2026-07-07T14:53:53.237Z</time>
      </trkpt>
      <trkpt lat="49.49006" lon="1.10243">
        <ele>174</ele>
        <time>2026-07-07T14:53:57.546Z</time>
      </trkpt>
      <trkpt lat="49.49007" lon="1.10251">
        <ele>174</ele>
        <time>2026-07-07T14:54:01.873Z</time>
      </trkpt>
      <trkpt lat="49.49006" lon="1.1026">
        <ele>174</ele>
        <time>2026-07-07T14:54:05.932Z</time>
      </trkpt>
      <trkpt lat="49.49005" lon="1.10269">
        <ele>174</ele>
        <time>2026-07-07T14:54:10.260Z</time>
      </trkpt>
      <trkpt lat="49.49007" lon="1.10277">
        <ele>174</ele>
        <time>2026-07-07T14:54:14.361Z</time>
      </trkpt>
      <trkpt lat="49.49009" lon="1.10283">
        <ele>174</ele>
        <time>2026-07-07T14:54:18.674Z</time>
      </trkpt>
      <trkpt lat="49.49012" lon="1.1029">
        <ele>174</ele>
        <time>2026-07-07T14:54:22.874Z</time>
      </trkpt>
      <trkpt lat="49.49014" lon="1.10297">
        <ele>176</ele>
        <time>2026-07-07T14:54:27.088Z</time>
      </trkpt>
      <trkpt lat="49.49014" lon="1.10303">
        <ele>176</ele>
        <time>2026-07-07T14:54:31.377Z</time>
      </trkpt>
      <trkpt lat="49.49015" lon="1.10309">
        <ele>176</ele>
        <time>2026-07-07T14:54:35.873Z</time>
      </trkpt>
      <trkpt lat="49.49016" lon="1.10316">
        <ele>176</ele>
        <time>2026-07-07T14:54:40.319Z</time>
      </trkpt>
      <trkpt lat="49.49017" lon="1.10324">
        <ele>174</ele>
        <time>2026-07-07T14:54:44.806Z</time>
      </trkpt>
      <trkpt lat="49.49019" lon="1.1033">
        <ele>174</ele>
        <time>2026-07-07T14:54:49.100Z</time>
      </trkpt>
      <trkpt lat="49.4902" lon="1.10336">
        <ele>174</ele>
        <time>2026-07-07T14:54:53.577Z</time>
      </trkpt>
      <trkpt lat="49.49021" lon="1.10341">
        <ele>174</ele>
        <time>2026-07-07T14:54:57.940Z</time>
      </trkpt>
      <trkpt lat="49.49023" lon="1.10349">
        <ele>171</ele>
        <time>2026-07-07T14:55:02.353Z</time>
      </trkpt>
    </trkseg>
  </trk>
</gpx>